<?xml version="1.0" encoding="UTF-8"?>
<gpx version="1.1" creator="2bulu-scraper" xmlns="http://www.topografix.com/GPX/1/1">
  <metadata><name>黄荆老林山地跑18km组别赛道</name><desc>source: 2bulu.com trackId=88024573; exported 2026-09-01T14:49:02.877Z</desc>
    <bounds minlat="28.2267189" minlon="105.7155883" maxlat="28.269928" maxlon="105.7563319"/>
    <link href="https://www.2bulu.com/track/t-PT%252FFVNO1m5rp%252FR2KBg5Tzw%253D%253D.htm"><text>2bulu 源页面</text></link>
  </metadata>
  <wpt lat="28.253995" lon="105.722196"><ele>1026</ele><name>赛道警示（路面湿滑，下坡），增加赛道应急救援员2人
        </name></wpt>
  <wpt lat="28.253995" lon="105.722196"><ele>1026</ele><name>赛道警示牌（路面湿滑）
        </name></wpt>
  <wpt lat="28.253995" lon="105.722196"><ele>1026</ele><name>赛道分叉口，路边上边路
        </name></wpt>
  <wpt lat="28.253995" lon="105.722196"><ele>1026</ele><name>赛道警示（路面湿滑）
        </name></wpt>
  <wpt lat="28.253995" lon="105.722196"><ele>1026</ele><name>赛道警示（路面湿滑，下陡坡）
        </name></wpt>
  <wpt lat="28.253995" lon="105.722196"><ele>1026</ele><name>赛道警示（路面湿滑，下陡坡）
        </name></wpt>
  <wpt lat="28.253995" lon="105.722196"><ele>1026</ele><name>赛道警示牌（过桥，路面湿滑）
        </name></wpt>
  <wpt lat="28.254044" lon="105.722178"><ele>1027</ele><name>SP1（补给点）
        </name></wpt>
  <wpt lat="28.254044" lon="105.722178"><ele>1027</ele><name>分流点
        </name></wpt>
  <wpt lat="28.254044" lon="105.722178"><ele>1027</ele><name>分流点
        </name></wpt>
  <wpt lat="28.254044" lon="105.722178"><ele>1027</ele><name>右转（路口）
        </name></wpt>
  <wpt lat="28.254044" lon="105.722178"><ele>1027</ele><name>赛道出口直行（路口）
        </name></wpt>
  <wpt lat="28.254044" lon="105.722178"><ele>1027</ele><name>SP2/CP1（补给点2和打卡1点）
        </name></wpt>
  <wpt lat="28.254044" lon="105.722178"><ele>1027</ele><name>SP3/CP2（3号补给点/2号打卡点）
        </name></wpt>
  <wpt lat="28.254044" lon="105.722178"><ele>1027</ele><name>降温点（降温海绵）
        </name></wpt>
  <wpt lat="28.254044" lon="105.722178"><ele>1027</ele><name>降温点（降温海绵）
        </name></wpt>
  <trk><name>黄荆老林山地跑18km组别赛道</name>
      <trkseg>
        <trkpt lat="28.2309721" lon="105.7562989"><ele>1011</ele><time>2026-07-19T02:52:33.000Z</time></trkpt>
        <trkpt lat="28.2310182" lon="105.7561863"><ele>1011</ele><time>2026-07-19T02:52:33.000Z</time></trkpt>
        <trkpt lat="28.2310489" lon="105.756138"><ele>1011</ele><time>2026-07-19T02:52:33.000Z</time></trkpt>
        <trkpt lat="28.2310761" lon="105.7560723"><ele>1011</ele><time>2026-07-19T02:52:33.000Z</time></trkpt>
        <trkpt lat="28.2310985" lon="105.7560119"><ele>1011</ele><time>2026-07-19T02:52:33.000Z</time></trkpt>
        <trkpt lat="28.2311281" lon="105.7559381"><ele>1011</ele><time>2026-07-19T02:52:33.000Z</time></trkpt>
        <trkpt lat="28.2311553" lon="105.7558644"><ele>1011</ele><time>2026-07-19T02:52:33.000Z</time></trkpt>
        <trkpt lat="28.2311813" lon="105.7557812"><ele>1011</ele><time>2026-07-19T02:52:33.000Z</time></trkpt>
        <trkpt lat="28.2312084" lon="105.7557195"><ele>1011</ele><time>2026-07-19T02:52:33.000Z</time></trkpt>
        <trkpt lat="28.2312368" lon="105.7556337"><ele>1011</ele><time>2026-07-19T02:52:33.000Z</time></trkpt>
        <trkpt lat="28.2312592" lon="105.7555707"><ele>1011</ele><time>2026-07-19T02:52:33.000Z</time></trkpt>
        <trkpt lat="28.2312781" lon="105.7554956"><ele>1011</ele><time>2026-07-19T02:52:33.000Z</time></trkpt>
        <trkpt lat="28.2313112" lon="105.7554084"><ele>1011</ele><time>2026-07-19T02:52:33.000Z</time></trkpt>
        <trkpt lat="28.2313349" lon="105.755332"><ele>1011</ele><time>2026-07-19T02:52:33.000Z</time></trkpt>
        <trkpt lat="28.2313609" lon="105.7552636"><ele>1010</ele><time>2026-07-19T02:52:33.000Z</time></trkpt>
        <trkpt lat="28.2313869" lon="105.7551952"><ele>1010</ele><time>2026-07-19T02:52:33.000Z</time></trkpt>
        <trkpt lat="28.2314164" lon="105.7551254"><ele>1010</ele><time>2026-07-19T02:52:33.000Z</time></trkpt>
        <trkpt lat="28.23144" lon="105.7550517"><ele>1010</ele><time>2026-07-19T02:52:33.000Z</time></trkpt>
        <trkpt lat="28.2314648" lon="105.7549819"><ele>1010</ele><time>2026-07-19T02:52:33.000Z</time></trkpt>
        <trkpt lat="28.2314849" lon="105.754927"><ele>1009</ele><time>2026-07-19T02:52:33.000Z</time></trkpt>
        <trkpt lat="28.2315062" lon="105.7548666"><ele>1009</ele><time>2026-07-19T02:52:33.000Z</time></trkpt>
        <trkpt lat="28.2315286" lon="105.754825"><ele>1009</ele><time>2026-07-19T02:52:33.000Z</time></trkpt>
        <trkpt lat="28.2315464" lon="105.7547754"><ele>1009</ele><time>2026-07-19T02:52:33.000Z</time></trkpt>
        <trkpt lat="28.2315653" lon="105.7547124"><ele>1009</ele><time>2026-07-19T02:52:33.000Z</time></trkpt>
        <trkpt lat="28.2316114" lon="105.7546252"><ele>1008</ele><time>2026-07-19T02:52:33.000Z</time></trkpt>
        <trkpt lat="28.2316858" lon="105.7545689"><ele>1008</ele><time>2026-07-19T02:52:33.000Z</time></trkpt>
        <trkpt lat="28.2317614" lon="105.7545488"><ele>1008</ele><time>2026-07-19T02:52:33.000Z</time></trkpt>
        <trkpt lat="28.231824" lon="105.7545514"><ele>1007</ele><time>2026-07-19T02:52:33.000Z</time></trkpt>
        <trkpt lat="28.2318902" lon="105.7545635"><ele>1007</ele><time>2026-07-19T02:52:33.000Z</time></trkpt>
        <trkpt lat="28.2319611" lon="105.7546011"><ele>1007</ele><time>2026-07-19T02:52:33.000Z</time></trkpt>
        <trkpt lat="28.2320249" lon="105.7546279"><ele>1007</ele><time>2026-07-19T02:52:33.000Z</time></trkpt>
        <trkpt lat="28.2320928" lon="105.7546493"><ele>1007</ele><time>2026-07-19T02:52:33.000Z</time></trkpt>
        <trkpt lat="28.2321578" lon="105.7546842"><ele>1006</ele><time>2026-07-19T02:52:33.000Z</time></trkpt>
        <trkpt lat="28.2322352" lon="105.7547191"><ele>1006</ele><time>2026-07-19T02:52:33.000Z</time></trkpt>
        <trkpt lat="28.232299" lon="105.7547526"><ele>1006</ele><time>2026-07-19T02:52:33.000Z</time></trkpt>
        <trkpt lat="28.2323605" lon="105.7547814"><ele>1005</ele><time>2026-07-19T02:52:33.000Z</time></trkpt>
        <trkpt lat="28.2324325" lon="105.7548143"><ele>1005</ele><time>2026-07-19T02:52:33.000Z</time></trkpt>
        <trkpt lat="28.232496" lon="105.754844"><ele>1005</ele><time>2026-07-19T02:52:33.000Z</time></trkpt>
        <trkpt lat="28.232562" lon="105.75487"><ele>1005</ele><time>2026-07-19T02:52:33.000Z</time></trkpt>
        <trkpt lat="28.232627" lon="105.754898"><ele>1005</ele><time>2026-07-19T02:52:33.000Z</time></trkpt>
        <trkpt lat="28.232692" lon="105.754926"><ele>1005</ele><time>2026-07-19T02:52:33.000Z</time></trkpt>
        <trkpt lat="28.232756" lon="105.754954"><ele>1005</ele><time>2026-07-19T02:52:33.000Z</time></trkpt>
        <trkpt lat="28.232819" lon="105.754981"><ele>1005</ele><time>2026-07-19T02:52:33.000Z</time></trkpt>
        <trkpt lat="28.232882" lon="105.755008"><ele>1005</ele><time>2026-07-19T02:52:33.000Z</time></trkpt>
        <trkpt lat="28.232945" lon="105.755035"><ele>1005</ele><time>2026-07-19T02:52:33.000Z</time></trkpt>
        <trkpt lat="28.233007" lon="105.755059"><ele>1005</ele><time>2026-07-19T02:52:33.000Z</time></trkpt>
        <trkpt lat="28.233065" lon="105.75508"><ele>1005</ele><time>2026-07-19T02:52:33.000Z</time></trkpt>
        <trkpt lat="28.2331338" lon="105.7550922"><ele>1005</ele><time>2026-07-19T02:52:33.000Z</time></trkpt>
        <trkpt lat="28.2331846" lon="105.7550658"><ele>1005</ele><time>2026-07-19T02:52:33.000Z</time></trkpt>
        <trkpt lat="28.2332236" lon="105.7550342"><ele>1005</ele><time>2026-07-19T02:52:33.000Z</time></trkpt>
        <trkpt lat="28.2332566" lon="105.754985"><ele>1005</ele><time>2026-07-19T02:52:33.000Z</time></trkpt>
        <trkpt lat="28.2332566" lon="105.754985"><ele>1005</ele><time>2026-07-19T02:52:33.000Z</time></trkpt>
        <trkpt lat="28.2332646" lon="105.754924"><ele>1005</ele><time>2026-07-19T02:52:33.000Z</time></trkpt>
        <trkpt lat="28.2332676" lon="105.754856"><ele>1005</ele><time>2026-07-19T02:52:33.000Z</time></trkpt>
        <trkpt lat="28.2332686" lon="105.754788"><ele>1005</ele><time>2026-07-19T02:52:33.000Z</time></trkpt>
        <trkpt lat="28.2332706" lon="105.754721"><ele>1005</ele><time>2026-07-19T02:52:33.000Z</time></trkpt>
        <trkpt lat="28.2332726" lon="105.754656"><ele>1006</ele><time>2026-07-19T02:52:33.000Z</time></trkpt>
        <trkpt lat="28.2332746" lon="105.754588"><ele>1006</ele><time>2026-07-19T02:52:33.000Z</time></trkpt>
        <trkpt lat="28.2332776" lon="105.754523"><ele>1006</ele><time>2026-07-19T02:52:33.000Z</time></trkpt>
        <trkpt lat="28.2332786" lon="105.754459"><ele>1006</ele><time>2026-07-19T02:52:33.000Z</time></trkpt>
        <trkpt lat="28.2332766" lon="105.754395"><ele>1006</ele><time>2026-07-19T02:52:33.000Z</time></trkpt>
        <trkpt lat="28.2332676" lon="105.754333"><ele>1006</ele><time>2026-07-19T02:52:33.000Z</time></trkpt>
        <trkpt lat="28.2332546" lon="105.754274"><ele>1007</ele><time>2026-07-19T02:52:33.000Z</time></trkpt>
        <trkpt lat="28.2332336" lon="105.754217"><ele>1007</ele><time>2026-07-19T02:52:33.000Z</time></trkpt>
        <trkpt lat="28.2332096" lon="105.75416"><ele>1007</ele><time>2026-07-19T02:52:33.000Z</time></trkpt>
        <trkpt lat="28.2331856" lon="105.754101"><ele>1007</ele><time>2026-07-19T02:52:33.000Z</time></trkpt>
        <trkpt lat="28.2331626" lon="105.754039"><ele>1008</ele><time>2026-07-19T02:52:33.000Z</time></trkpt>
        <trkpt lat="28.2331396" lon="105.753975"><ele>1008</ele><time>2026-07-19T02:52:33.000Z</time></trkpt>
        <trkpt lat="28.2331156" lon="105.753909"><ele>1008</ele><time>2026-07-19T02:52:33.000Z</time></trkpt>
        <trkpt lat="28.2330936" lon="105.75384"><ele>1009</ele><time>2026-07-19T02:52:33.000Z</time></trkpt>
        <trkpt lat="28.2330696" lon="105.753764"><ele>1009</ele><time>2026-07-19T02:52:33.000Z</time></trkpt>
        <trkpt lat="28.2330466" lon="105.753684"><ele>1009</ele><time>2026-07-19T02:52:33.000Z</time></trkpt>
        <trkpt lat="28.2330266" lon="105.753603"><ele>1009</ele><time>2026-07-19T02:52:33.000Z</time></trkpt>
        <trkpt lat="28.2330056" lon="105.753519"><ele>1010</ele><time>2026-07-19T02:52:33.000Z</time></trkpt>
        <trkpt lat="28.2329816" lon="105.753433"><ele>1010</ele><time>2026-07-19T02:52:33.000Z</time></trkpt>
        <trkpt lat="28.2329546" lon="105.753351"><ele>1010</ele><time>2026-07-19T02:52:33.000Z</time></trkpt>
        <trkpt lat="28.2329236" lon="105.753271"><ele>1011</ele><time>2026-07-19T02:52:33.000Z</time></trkpt>
        <trkpt lat="28.2328886" lon="105.753189"><ele>1011</ele><time>2026-07-19T02:52:33.000Z</time></trkpt>
        <trkpt lat="28.2328496" lon="105.753102"><ele>1012</ele><time>2026-07-19T02:52:33.000Z</time></trkpt>
        <trkpt lat="28.2328106" lon="105.753015"><ele>1012</ele><time>2026-07-19T02:52:33.000Z</time></trkpt>
        <trkpt lat="28.2327726" lon="105.752925"><ele>1012</ele><time>2026-07-19T02:52:33.000Z</time></trkpt>
        <trkpt lat="28.2327376" lon="105.752835"><ele>1012</ele><time>2026-07-19T02:52:33.000Z</time></trkpt>
        <trkpt lat="28.2327036" lon="105.752743"><ele>1013</ele><time>2026-07-19T02:52:33.000Z</time></trkpt>
        <trkpt lat="28.2326726" lon="105.752649"><ele>1013</ele><time>2026-07-19T02:52:33.000Z</time></trkpt>
        <trkpt lat="28.2326406" lon="105.752554"><ele>1013</ele><time>2026-07-19T02:52:33.000Z</time></trkpt>
        <trkpt lat="28.2326046" lon="105.752459"><ele>1014</ele><time>2026-07-19T02:52:33.000Z</time></trkpt>
        <trkpt lat="28.2325656" lon="105.752366"><ele>1014</ele><time>2026-07-19T02:52:33.000Z</time></trkpt>
        <trkpt lat="28.2324826" lon="105.752186"><ele>1014</ele><time>2026-07-19T02:52:33.000Z</time></trkpt>
        <trkpt lat="28.2324426" lon="105.752096"><ele>1015</ele><time>2026-07-19T02:52:33.000Z</time></trkpt>
        <trkpt lat="28.2324036" lon="105.752013"><ele>1015</ele><time>2026-07-19T02:52:33.000Z</time></trkpt>
        <trkpt lat="28.2323656" lon="105.75193"><ele>1016</ele><time>2026-07-19T02:52:33.000Z</time></trkpt>
        <trkpt lat="28.2323296" lon="105.751849"><ele>1016</ele><time>2026-07-19T02:52:33.000Z</time></trkpt>
        <trkpt lat="28.2322966" lon="105.751767"><ele>1016</ele><time>2026-07-19T02:52:33.000Z</time></trkpt>
        <trkpt lat="28.2322676" lon="105.751684"><ele>1017</ele><time>2026-07-19T02:52:33.000Z</time></trkpt>
        <trkpt lat="28.2322406" lon="105.7516"><ele>1017</ele><time>2026-07-19T02:52:33.000Z</time></trkpt>
        <trkpt lat="28.2321916" lon="105.751436"><ele>1017</ele><time>2026-07-19T02:52:33.000Z</time></trkpt>
        <trkpt lat="28.2321536" lon="105.751279"><ele>1021</ele><time>2026-07-19T02:52:33.000Z</time></trkpt>
        <trkpt lat="28.2321316" lon="105.751196"><ele>1021</ele><time>2026-07-19T02:52:33.000Z</time></trkpt>
        <trkpt lat="28.2321047" lon="105.7511115"><ele>1021</ele><time>2026-07-19T02:52:33.000Z</time></trkpt>
        <trkpt lat="28.2320787" lon="105.751029"><ele>1022</ele><time>2026-07-19T02:52:33.000Z</time></trkpt>
        <trkpt lat="28.2320562" lon="105.7509486"><ele>1022</ele><time>2026-07-19T02:52:33.000Z</time></trkpt>
        <trkpt lat="28.2320361" lon="105.7508627"><ele>1022</ele><time>2026-07-19T02:52:33.000Z</time></trkpt>
        <trkpt lat="28.2320143" lon="105.7507803"><ele>1023</ele><time>2026-07-19T02:52:33.000Z</time></trkpt>
        <trkpt lat="28.2319865" lon="105.7506911"><ele>1023</ele><time>2026-07-19T02:52:33.000Z</time></trkpt>
        <trkpt lat="28.2319629" lon="105.7506079"><ele>1023</ele><time>2026-07-19T02:52:33.000Z</time></trkpt>
        <trkpt lat="28.2319422" lon="105.7505214"><ele>1023</ele><time>2026-07-19T02:52:33.000Z</time></trkpt>
        <trkpt lat="28.2319209" lon="105.7504343"><ele>1023</ele><time>2026-07-19T02:52:33.000Z</time></trkpt>
        <trkpt lat="28.2318997" lon="105.7503524"><ele>1024</ele><time>2026-07-19T02:52:33.000Z</time></trkpt>
        <trkpt lat="28.2318916" lon="105.750275"><ele>1025</ele><time>2026-07-19T02:52:33.000Z</time></trkpt>
        <trkpt lat="28.2318756" lon="105.7502"><ele>1026</ele><time>2026-07-19T02:52:33.000Z</time></trkpt>
        <trkpt lat="28.2318613" lon="105.7501265"><ele>1027</ele><time>2026-07-19T02:52:33.000Z</time></trkpt>
        <trkpt lat="28.2318483" lon="105.7500587"><ele>1027</ele><time>2026-07-19T02:52:33.000Z</time></trkpt>
        <trkpt lat="28.2318386" lon="105.749987"><ele>1027</ele><time>2026-07-19T02:52:33.000Z</time></trkpt>
        <trkpt lat="28.2318256" lon="105.749911"><ele>1028</ele><time>2026-07-19T02:52:33.000Z</time></trkpt>
        <trkpt lat="28.2318104" lon="105.7498388"><ele>1028</ele><time>2026-07-19T02:52:33.000Z</time></trkpt>
        <trkpt lat="28.2318057" lon="105.7497597"><ele>1028</ele><time>2026-07-19T02:52:33.000Z</time></trkpt>
        <trkpt lat="28.2318087" lon="105.7496839"><ele>1028</ele><time>2026-07-19T02:52:33.000Z</time></trkpt>
        <trkpt lat="28.2318169" lon="105.7496041"><ele>1028</ele><time>2026-07-19T02:52:33.000Z</time></trkpt>
        <trkpt lat="28.2318276" lon="105.7495364"><ele>1029</ele><time>2026-07-19T02:52:33.000Z</time></trkpt>
        <trkpt lat="28.2318394" lon="105.7494727"><ele>1029</ele><time>2026-07-19T02:52:33.000Z</time></trkpt>
        <trkpt lat="28.2318536" lon="105.7493949"><ele>1029</ele><time>2026-07-19T02:52:33.000Z</time></trkpt>
        <trkpt lat="28.2318678" lon="105.7493225"><ele>1029</ele><time>2026-07-19T02:52:33.000Z</time></trkpt>
        <trkpt lat="28.2318813" lon="105.7492507"><ele>1029</ele><time>2026-07-19T02:52:33.000Z</time></trkpt>
        <trkpt lat="28.2318856" lon="105.749181"><ele>1029</ele><time>2026-07-19T02:52:33.000Z</time></trkpt>
        <trkpt lat="28.2318836" lon="105.749103"><ele>1029</ele><time>2026-07-19T02:52:33.000Z</time></trkpt>
        <trkpt lat="28.2318806" lon="105.749021"><ele>1029</ele><time>2026-07-19T02:52:33.000Z</time></trkpt>
        <trkpt lat="28.2318776" lon="105.748939"><ele>1029</ele><time>2026-07-19T02:52:33.000Z</time></trkpt>
        <trkpt lat="28.2318686" lon="105.748862"><ele>1029</ele><time>2026-07-19T02:52:33.000Z</time></trkpt>
        <trkpt lat="28.2318536" lon="105.748799"><ele>1029</ele><time>2026-07-19T02:52:33.000Z</time></trkpt>
        <trkpt lat="28.2318346" lon="105.748736"><ele>1030</ele><time>2026-07-19T02:52:33.000Z</time></trkpt>
        <trkpt lat="28.2318056" lon="105.748671"><ele>1030</ele><time>2026-07-19T02:52:33.000Z</time></trkpt>
        <trkpt lat="28.2317806" lon="105.748604"><ele>1031</ele><time>2026-07-19T02:52:33.000Z</time></trkpt>
        <trkpt lat="28.2317616" lon="105.748534"><ele>1032</ele><time>2026-07-19T02:52:33.000Z</time></trkpt>
        <trkpt lat="28.2317476" lon="105.748461"><ele>1033</ele><time>2026-07-19T02:52:33.000Z</time></trkpt>
        <trkpt lat="28.2317336" lon="105.74839"><ele>1033</ele><time>2026-07-19T02:52:33.000Z</time></trkpt>
        <trkpt lat="28.2317226" lon="105.748323"><ele>1034</ele><time>2026-07-19T02:52:33.000Z</time></trkpt>
        <trkpt lat="28.2317096" lon="105.748254"><ele>1035</ele><time>2026-07-19T02:52:33.000Z</time></trkpt>
        <trkpt lat="28.2316956" lon="105.748187"><ele>1036</ele><time>2026-07-19T02:52:33.000Z</time></trkpt>
        <trkpt lat="28.2316876" lon="105.748117"><ele>1036</ele><time>2026-07-19T02:52:33.000Z</time></trkpt>
        <trkpt lat="28.2316846" lon="105.748046"><ele>1037</ele><time>2026-07-19T02:52:33.000Z</time></trkpt>
        <trkpt lat="28.2316856" lon="105.747979"><ele>1037</ele><time>2026-07-19T02:52:33.000Z</time></trkpt>
        <trkpt lat="28.2316896" lon="105.747913"><ele>1037</ele><time>2026-07-19T02:52:33.000Z</time></trkpt>
        <trkpt lat="28.2316956" lon="105.747844"><ele>1037</ele><time>2026-07-19T02:52:33.000Z</time></trkpt>
        <trkpt lat="28.2316996" lon="105.747776"><ele>1038</ele><time>2026-07-19T02:52:33.000Z</time></trkpt>
        <trkpt lat="28.2316976" lon="105.747706"><ele>1038</ele><time>2026-07-19T02:52:33.000Z</time></trkpt>
        <trkpt lat="28.2316886" lon="105.747639"><ele>1038</ele><time>2026-07-19T02:52:33.000Z</time></trkpt>
        <trkpt lat="28.2316776" lon="105.747576"><ele>1038</ele><time>2026-07-19T02:52:33.000Z</time></trkpt>
        <trkpt lat="28.2316606" lon="105.747517"><ele>1039</ele><time>2026-07-19T02:52:33.000Z</time></trkpt>
        <trkpt lat="28.2316426" lon="105.747453"><ele>1040</ele><time>2026-07-19T02:52:33.000Z</time></trkpt>
        <trkpt lat="28.2315988" lon="105.7473013"><ele>1041</ele><time>2026-07-19T02:52:33.000Z</time></trkpt>
        <trkpt lat="28.2315988" lon="105.7473013"><ele>1042</ele><time>2026-07-19T02:52:33.000Z</time></trkpt>
        <trkpt lat="28.2315828" lon="105.7472263"><ele>1043</ele><time>2026-07-19T02:52:33.000Z</time></trkpt>
        <trkpt lat="28.2315688" lon="105.7471543"><ele>1044</ele><time>2026-07-19T02:52:33.000Z</time></trkpt>
        <trkpt lat="28.2315608" lon="105.7470803"><ele>1045</ele><time>2026-07-19T02:52:33.000Z</time></trkpt>
        <trkpt lat="28.2315558" lon="105.7470053"><ele>1046</ele><time>2026-07-19T02:52:33.000Z</time></trkpt>
        <trkpt lat="28.2315458" lon="105.7469253"><ele>1048</ele><time>2026-07-19T02:52:33.000Z</time></trkpt>
        <trkpt lat="28.2315368" lon="105.7468433"><ele>1049</ele><time>2026-07-19T02:52:33.000Z</time></trkpt>
        <trkpt lat="28.2315348" lon="105.7467583"><ele>1050</ele><time>2026-07-19T02:52:33.000Z</time></trkpt>
        <trkpt lat="28.2315378" lon="105.7466743"><ele>1052</ele><time>2026-07-19T02:52:33.000Z</time></trkpt>
        <trkpt lat="28.2315418" lon="105.7465903"><ele>1054</ele><time>2026-07-19T02:52:33.000Z</time></trkpt>
        <trkpt lat="28.2315468" lon="105.7465073"><ele>1055</ele><time>2026-07-19T02:52:33.000Z</time></trkpt>
        <trkpt lat="28.2315508" lon="105.7464313"><ele>1056</ele><time>2026-07-19T02:52:33.000Z</time></trkpt>
        <trkpt lat="28.2315568" lon="105.7463603"><ele>1057</ele><time>2026-07-19T02:52:33.000Z</time></trkpt>
        <trkpt lat="28.2315668" lon="105.7462843"><ele>1058</ele><time>2026-07-19T02:52:33.000Z</time></trkpt>
        <trkpt lat="28.2315758" lon="105.7462093"><ele>1058</ele><time>2026-07-19T02:52:33.000Z</time></trkpt>
        <trkpt lat="28.2315828" lon="105.7461243"><ele>1058</ele><time>2026-07-19T02:52:33.000Z</time></trkpt>
        <trkpt lat="28.2315868" lon="105.7460453"><ele>1058</ele><time>2026-07-19T02:52:33.000Z</time></trkpt>
        <trkpt lat="28.2315888" lon="105.7459653"><ele>1059</ele><time>2026-07-19T02:52:33.000Z</time></trkpt>
        <trkpt lat="28.2315858" lon="105.7458903"><ele>1060</ele><time>2026-07-19T02:52:33.000Z</time></trkpt>
        <trkpt lat="28.2315838" lon="105.7458133"><ele>1062</ele><time>2026-07-19T02:52:33.000Z</time></trkpt>
        <trkpt lat="28.2315768" lon="105.7457383"><ele>1063</ele><time>2026-07-19T02:52:33.000Z</time></trkpt>
        <trkpt lat="28.2315611" lon="105.7456633"><ele>1064</ele><time>2026-07-19T02:52:33.000Z</time></trkpt>
        <trkpt lat="28.2315499" lon="105.7456009"><ele>1064</ele><time>2026-07-19T02:52:33.000Z</time></trkpt>
        <trkpt lat="28.2315363" lon="105.7455486"><ele>1065</ele><time>2026-07-19T02:52:33.000Z</time></trkpt>
        <trkpt lat="28.2315168" lon="105.7455003"><ele>1066</ele><time>2026-07-19T02:52:33.000Z</time></trkpt>
        <trkpt lat="28.2314808" lon="105.7454373"><ele>1066</ele><time>2026-07-19T02:52:33.000Z</time></trkpt>
        <trkpt lat="28.2314483" lon="105.7453917"><ele>1066</ele><time>2026-07-19T02:52:33.000Z</time></trkpt>
        <trkpt lat="28.2314483" lon="105.7453917"><ele>1067</ele><time>2026-07-19T02:52:33.000Z</time></trkpt>
        <trkpt lat="28.231396" lon="105.745378"><ele>1068</ele><time>2026-07-19T02:52:33.000Z</time></trkpt>
        <trkpt lat="28.231348" lon="105.74538"><ele>1068</ele><time>2026-07-19T02:52:33.000Z</time></trkpt>
        <trkpt lat="28.2313" lon="105.745399"><ele>1068</ele><time>2026-07-19T02:52:33.000Z</time></trkpt>
        <trkpt lat="28.231261" lon="105.745437"><ele>1069</ele><time>2026-07-19T02:52:33.000Z</time></trkpt>
        <trkpt lat="28.231231" lon="105.745489"><ele>1069</ele><time>2026-07-19T02:52:33.000Z</time></trkpt>
        <trkpt lat="28.231207" lon="105.745547"><ele>1070</ele><time>2026-07-19T02:52:33.000Z</time></trkpt>
        <trkpt lat="28.231186" lon="105.745604"><ele>1070</ele><time>2026-07-19T02:52:33.000Z</time></trkpt>
        <trkpt lat="28.231168" lon="105.74566"><ele>1070</ele><time>2026-07-19T02:52:33.000Z</time></trkpt>
        <trkpt lat="28.231182" lon="105.745697"><ele>1077</ele><time>2026-07-19T02:52:33.000Z</time></trkpt>
        <trkpt lat="28.231169" lon="105.745754"><ele>1077</ele><time>2026-07-19T02:52:33.000Z</time></trkpt>
        <trkpt lat="28.231154" lon="105.745813"><ele>1077</ele><time>2026-07-19T02:52:33.000Z</time></trkpt>
        <trkpt lat="28.231134" lon="105.745869"><ele>1078</ele><time>2026-07-19T02:52:33.000Z</time></trkpt>
        <trkpt lat="28.231113" lon="105.745925"><ele>1078</ele><time>2026-07-19T02:52:33.000Z</time></trkpt>
        <trkpt lat="28.231097" lon="105.745981"><ele>1079</ele><time>2026-07-19T02:52:33.000Z</time></trkpt>
        <trkpt lat="28.231083" lon="105.74604"><ele>1079</ele><time>2026-07-19T02:52:33.000Z</time></trkpt>
        <trkpt lat="28.231071" lon="105.746099"><ele>1079</ele><time>2026-07-19T02:52:33.000Z</time></trkpt>
        <trkpt lat="28.231055" lon="105.746159"><ele>1079</ele><time>2026-07-19T02:52:33.000Z</time></trkpt>
        <trkpt lat="28.231049" lon="105.746219"><ele>1079</ele><time>2026-07-19T02:52:33.000Z</time></trkpt>
        <trkpt lat="28.231049" lon="105.746277"><ele>1079</ele><time>2026-07-19T02:52:33.000Z</time></trkpt>
        <trkpt lat="28.231053" lon="105.746338"><ele>1079</ele><time>2026-07-19T02:52:33.000Z</time></trkpt>
        <trkpt lat="28.231059" lon="105.746399"><ele>1080</ele><time>2026-07-19T02:52:33.000Z</time></trkpt>
        <trkpt lat="28.231062" lon="105.746461"><ele>1080</ele><time>2026-07-19T02:52:33.000Z</time></trkpt>
        <trkpt lat="28.231107" lon="105.74653"><ele>1081</ele><time>2026-07-19T02:52:33.000Z</time></trkpt>
        <trkpt lat="28.231108" lon="105.746593"><ele>1081</ele><time>2026-07-19T02:52:33.000Z</time></trkpt>
        <trkpt lat="28.231109" lon="105.746702"><ele>1081</ele><time>2026-07-19T02:52:33.000Z</time></trkpt>
        <trkpt lat="28.231107" lon="105.746759"><ele>1081</ele><time>2026-07-19T02:52:33.000Z</time></trkpt>
        <trkpt lat="28.231108" lon="105.746819"><ele>1081</ele><time>2026-07-19T02:52:33.000Z</time></trkpt>
        <trkpt lat="28.231111" lon="105.746881"><ele>1082</ele><time>2026-07-19T02:52:33.000Z</time></trkpt>
        <trkpt lat="28.231117" lon="105.746948"><ele>1082</ele><time>2026-07-19T02:52:33.000Z</time></trkpt>
        <trkpt lat="28.231123" lon="105.747018"><ele>1082</ele><time>2026-07-19T02:52:33.000Z</time></trkpt>
        <trkpt lat="28.231133" lon="105.747086"><ele>1082</ele><time>2026-07-19T02:52:33.000Z</time></trkpt>
        <trkpt lat="28.23114" lon="105.747154"><ele>1082</ele><time>2026-07-19T02:52:33.000Z</time></trkpt>
        <trkpt lat="28.231145" lon="105.747219"><ele>1083</ele><time>2026-07-19T02:52:33.000Z</time></trkpt>
        <trkpt lat="28.231147" lon="105.747278"><ele>1083</ele><time>2026-07-19T02:52:33.000Z</time></trkpt>
        <trkpt lat="28.23115" lon="105.747342"><ele>1083</ele><time>2026-07-19T02:52:33.000Z</time></trkpt>
        <trkpt lat="28.23115" lon="105.747407"><ele>1083</ele><time>2026-07-19T02:52:33.000Z</time></trkpt>
        <trkpt lat="28.231147" lon="105.747471"><ele>1083</ele><time>2026-07-19T02:52:33.000Z</time></trkpt>
        <trkpt lat="28.231143" lon="105.747535"><ele>1083</ele><time>2026-07-19T02:52:33.000Z</time></trkpt>
        <trkpt lat="28.231139" lon="105.747605"><ele>1083</ele><time>2026-07-19T02:52:33.000Z</time></trkpt>
        <trkpt lat="28.231145" lon="105.747675"><ele>1083</ele><time>2026-07-19T02:52:33.000Z</time></trkpt>
        <trkpt lat="28.231154" lon="105.74774"><ele>1083</ele><time>2026-07-19T02:52:33.000Z</time></trkpt>
        <trkpt lat="28.231163" lon="105.747803"><ele>1084</ele><time>2026-07-19T02:52:33.000Z</time></trkpt>
        <trkpt lat="28.231169" lon="105.747868"><ele>1084</ele><time>2026-07-19T02:52:33.000Z</time></trkpt>
        <trkpt lat="28.231173" lon="105.747932"><ele>1084</ele><time>2026-07-19T02:52:33.000Z</time></trkpt>
        <trkpt lat="28.231171" lon="105.747993"><ele>1084</ele><time>2026-07-19T02:52:33.000Z</time></trkpt>
        <trkpt lat="28.231159" lon="105.748056"><ele>1085</ele><time>2026-07-19T02:52:33.000Z</time></trkpt>
        <trkpt lat="28.231144" lon="105.748114"><ele>1085</ele><time>2026-07-19T02:52:33.000Z</time></trkpt>
        <trkpt lat="28.231115" lon="105.748165"><ele>1085</ele><time>2026-07-19T02:52:33.000Z</time></trkpt>
        <trkpt lat="28.231103" lon="105.748221"><ele>1086</ele><time>2026-07-19T02:52:33.000Z</time></trkpt>
        <trkpt lat="28.231083" lon="105.74832"><ele>1087</ele><time>2026-07-19T02:52:33.000Z</time></trkpt>
        <trkpt lat="28.231066" lon="105.748386"><ele>1088</ele><time>2026-07-19T02:52:33.000Z</time></trkpt>
        <trkpt lat="28.231035" lon="105.748455"><ele>1088</ele><time>2026-07-19T02:52:33.000Z</time></trkpt>
        <trkpt lat="28.230984" lon="105.748502"><ele>1089</ele><time>2026-07-19T02:52:33.000Z</time></trkpt>
        <trkpt lat="28.230914" lon="105.748525"><ele>1089</ele><time>2026-07-19T02:52:33.000Z</time></trkpt>
        <trkpt lat="28.230837" lon="105.74853"><ele>1090</ele><time>2026-07-19T02:52:33.000Z</time></trkpt>
        <trkpt lat="28.230752" lon="105.748532"><ele>1090</ele><time>2026-07-19T02:52:33.000Z</time></trkpt>
        <trkpt lat="28.230703" lon="105.74853"><ele>1090</ele><time>2026-07-19T02:52:33.000Z</time></trkpt>
        <trkpt lat="28.230653" lon="105.748524"><ele>1090</ele><time>2026-07-19T02:52:33.000Z</time></trkpt>
        <trkpt lat="28.230603" lon="105.748515"><ele>1091</ele><time>2026-07-19T02:52:33.000Z</time></trkpt>
        <trkpt lat="28.230555" lon="105.748503"><ele>1091</ele><time>2026-07-19T02:52:33.000Z</time></trkpt>
        <trkpt lat="28.23051" lon="105.748486"><ele>1092</ele><time>2026-07-19T02:52:33.000Z</time></trkpt>
        <trkpt lat="28.230466" lon="105.748462"><ele>1092</ele><time>2026-07-19T02:52:33.000Z</time></trkpt>
        <trkpt lat="28.230423" lon="105.748437"><ele>1092</ele><time>2026-07-19T02:52:33.000Z</time></trkpt>
        <trkpt lat="28.230377" lon="105.748415"><ele>1092</ele><time>2026-07-19T02:52:33.000Z</time></trkpt>
        <trkpt lat="28.230328" lon="105.748399"><ele>1092</ele><time>2026-07-19T02:52:33.000Z</time></trkpt>
        <trkpt lat="28.230279" lon="105.748385"><ele>1092</ele><time>2026-07-19T02:52:33.000Z</time></trkpt>
        <trkpt lat="28.23023" lon="105.748375"><ele>1092</ele><time>2026-07-19T02:52:33.000Z</time></trkpt>
        <trkpt lat="28.230181" lon="105.748364"><ele>1092</ele><time>2026-07-19T02:52:33.000Z</time></trkpt>
        <trkpt lat="28.230133" lon="105.748372"><ele>1092</ele><time>2026-07-19T02:52:33.000Z</time></trkpt>
        <trkpt lat="28.230069" lon="105.748345"><ele>1093</ele><time>2026-07-19T02:52:33.000Z</time></trkpt>
        <trkpt lat="28.230051" lon="105.748292"><ele>1093</ele><time>2026-07-19T02:52:33.000Z</time></trkpt>
        <trkpt lat="28.229988" lon="105.748281"><ele>1094</ele><time>2026-07-19T02:52:33.000Z</time></trkpt>
        <trkpt lat="28.229934" lon="105.748261"><ele>1094</ele><time>2026-07-19T02:52:33.000Z</time></trkpt>
        <trkpt lat="28.229881" lon="105.748248"><ele>1095</ele><time>2026-07-19T02:52:33.000Z</time></trkpt>
        <trkpt lat="28.229838" lon="105.748217"><ele>1096</ele><time>2026-07-19T02:52:33.000Z</time></trkpt>
        <trkpt lat="28.229772" lon="105.748164"><ele>1096</ele><time>2026-07-19T02:52:33.000Z</time></trkpt>
        <trkpt lat="28.229719" lon="105.748133"><ele>1097</ele><time>2026-07-19T02:52:33.000Z</time></trkpt>
        <trkpt lat="28.229676" lon="105.748104"><ele>1097</ele><time>2026-07-19T02:52:33.000Z</time></trkpt>
        <trkpt lat="28.229631" lon="105.748076"><ele>1097</ele><time>2026-07-19T02:52:33.000Z</time></trkpt>
        <trkpt lat="28.229583" lon="105.748051"><ele>1097</ele><time>2026-07-19T02:52:33.000Z</time></trkpt>
        <trkpt lat="28.229533" lon="105.748026"><ele>1097</ele><time>2026-07-19T02:52:33.000Z</time></trkpt>
        <trkpt lat="28.229481" lon="105.748001"><ele>1098</ele><time>2026-07-19T02:52:33.000Z</time></trkpt>
        <trkpt lat="28.229424" lon="105.747978"><ele>1098</ele><time>2026-07-19T02:52:33.000Z</time></trkpt>
        <trkpt lat="28.229367" lon="105.747957"><ele>1098</ele><time>2026-07-19T02:52:33.000Z</time></trkpt>
        <trkpt lat="28.229311" lon="105.747933"><ele>1098</ele><time>2026-07-19T02:52:33.000Z</time></trkpt>
        <trkpt lat="28.229254" lon="105.747908"><ele>1098</ele><time>2026-07-19T02:52:33.000Z</time></trkpt>
        <trkpt lat="28.229198" lon="105.747884"><ele>1098</ele><time>2026-07-19T02:52:33.000Z</time></trkpt>
        <trkpt lat="28.229139" lon="105.747861"><ele>1098</ele><time>2026-07-19T02:52:33.000Z</time></trkpt>
        <trkpt lat="28.229083" lon="105.74784"><ele>1098</ele><time>2026-07-19T02:52:33.000Z</time></trkpt>
        <trkpt lat="28.229037" lon="105.747815"><ele>1098</ele><time>2026-07-19T02:52:33.000Z</time></trkpt>
        <trkpt lat="28.228991" lon="105.747791"><ele>1099</ele><time>2026-07-19T02:52:33.000Z</time></trkpt>
        <trkpt lat="28.228907" lon="105.747753"><ele>1100</ele><time>2026-07-19T02:52:33.000Z</time></trkpt>
        <trkpt lat="28.228842" lon="105.747734"><ele>1100</ele><time>2026-07-19T02:52:33.000Z</time></trkpt>
        <trkpt lat="28.228784" lon="105.747738"><ele>1100</ele><time>2026-07-19T02:52:33.000Z</time></trkpt>
        <trkpt lat="28.228735" lon="105.747781"><ele>1100</ele><time>2026-07-19T02:52:33.000Z</time></trkpt>
        <trkpt lat="28.228713" lon="105.747865"><ele>1100</ele><time>2026-07-19T02:52:33.000Z</time></trkpt>
        <trkpt lat="28.228733" lon="105.747933"><ele>1100</ele><time>2026-07-19T02:52:33.000Z</time></trkpt>
        <trkpt lat="28.228764" lon="105.747974"><ele>1101</ele><time>2026-07-19T02:52:33.000Z</time></trkpt>
        <trkpt lat="28.22882" lon="105.747991"><ele>1102</ele><time>2026-07-19T02:52:33.000Z</time></trkpt>
        <trkpt lat="28.22885" lon="105.748044"><ele>1102</ele><time>2026-07-19T02:52:33.000Z</time></trkpt>
        <trkpt lat="28.228871" lon="105.748092"><ele>1103</ele><time>2026-07-19T02:52:33.000Z</time></trkpt>
        <trkpt lat="28.228894" lon="105.748136"><ele>1103</ele><time>2026-07-19T02:52:33.000Z</time></trkpt>
        <trkpt lat="28.228915" lon="105.748184"><ele>1103</ele><time>2026-07-19T02:52:33.000Z</time></trkpt>
        <trkpt lat="28.228938" lon="105.748253"><ele>1107</ele><time>2026-07-19T02:52:33.000Z</time></trkpt>
        <trkpt lat="28.228967" lon="105.748294"><ele>1107</ele><time>2026-07-19T02:52:33.000Z</time></trkpt>
        <trkpt lat="28.2290201" lon="105.7483287"><ele>1106</ele><time>2026-07-19T02:52:33.000Z</time></trkpt>
        <trkpt lat="28.2291064" lon="105.748377"><ele>1106</ele><time>2026-07-19T02:52:33.000Z</time></trkpt>
        <trkpt lat="28.229216" lon="105.748456"><ele>1125</ele><time>2026-07-19T02:52:33.000Z</time></trkpt>
        <trkpt lat="28.22926" lon="105.748512"><ele>1126</ele><time>2026-07-19T02:52:33.000Z</time></trkpt>
        <trkpt lat="28.229288" lon="105.748551"><ele>1127</ele><time>2026-07-19T02:52:33.000Z</time></trkpt>
        <trkpt lat="28.22932" lon="105.748605"><ele>1127</ele><time>2026-07-19T02:52:33.000Z</time></trkpt>
        <trkpt lat="28.22933" lon="105.748664"><ele>1127</ele><time>2026-07-19T02:52:33.000Z</time></trkpt>
        <trkpt lat="28.229339" lon="105.748724"><ele>1127</ele><time>2026-07-19T02:52:33.000Z</time></trkpt>
        <trkpt lat="28.229323" lon="105.748821"><ele>1128</ele><time>2026-07-19T02:52:33.000Z</time></trkpt>
        <trkpt lat="28.229249" lon="105.748857"><ele>1129</ele><time>2026-07-19T02:52:33.000Z</time></trkpt>
        <trkpt lat="28.229171" lon="105.748828"><ele>1129</ele><time>2026-07-19T02:52:33.000Z</time></trkpt>
        <trkpt lat="28.229136" lon="105.74879"><ele>1129</ele><time>2026-07-19T02:52:33.000Z</time></trkpt>
        <trkpt lat="28.229115" lon="105.748744"><ele>1129</ele><time>2026-07-19T02:52:33.000Z</time></trkpt>
        <trkpt lat="28.229093" lon="105.74869"><ele>1129</ele><time>2026-07-19T02:52:33.000Z</time></trkpt>
        <trkpt lat="28.229058" lon="105.748629"><ele>1130</ele><time>2026-07-19T02:52:33.000Z</time></trkpt>
        <trkpt lat="28.228987" lon="105.748608"><ele>1131</ele><time>2026-07-19T02:52:33.000Z</time></trkpt>
        <trkpt lat="28.22895" lon="105.748554"><ele>1131</ele><time>2026-07-19T02:52:33.000Z</time></trkpt>
        <trkpt lat="28.228913" lon="105.748497"><ele>1131</ele><time>2026-07-19T02:52:33.000Z</time></trkpt>
        <trkpt lat="28.228875" lon="105.748437"><ele>1131</ele><time>2026-07-19T02:52:33.000Z</time></trkpt>
        <trkpt lat="28.228849" lon="105.748376"><ele>1132</ele><time>2026-07-19T02:52:33.000Z</time></trkpt>
        <trkpt lat="28.228821" lon="105.748314"><ele>1132</ele><time>2026-07-19T02:52:33.000Z</time></trkpt>
        <trkpt lat="28.228793" lon="105.748252"><ele>1132</ele><time>2026-07-19T02:52:33.000Z</time></trkpt>
        <trkpt lat="28.228761" lon="105.7482"><ele>1132</ele><time>2026-07-19T02:52:33.000Z</time></trkpt>
        <trkpt lat="28.228725" lon="105.748161"><ele>1132</ele><time>2026-07-19T02:52:33.000Z</time></trkpt>
        <trkpt lat="28.22864" lon="105.748129"><ele>1133</ele><time>2026-07-19T02:52:33.000Z</time></trkpt>
        <trkpt lat="28.228584" lon="105.748131"><ele>1134</ele><time>2026-07-19T02:52:33.000Z</time></trkpt>
        <trkpt lat="28.22852" lon="105.748132"><ele>1135</ele><time>2026-07-19T02:52:33.000Z</time></trkpt>
        <trkpt lat="28.228466" lon="105.74814"><ele>1135</ele><time>2026-07-19T02:52:33.000Z</time></trkpt>
        <trkpt lat="28.228411" lon="105.748139"><ele>1136</ele><time>2026-07-19T02:52:33.000Z</time></trkpt>
        <trkpt lat="28.228358" lon="105.748134"><ele>1136</ele><time>2026-07-19T02:52:33.000Z</time></trkpt>
        <trkpt lat="28.228309" lon="105.74812"><ele>1137</ele><time>2026-07-19T02:52:33.000Z</time></trkpt>
        <trkpt lat="28.228253" lon="105.74805"><ele>1137</ele><time>2026-07-19T02:52:33.000Z</time></trkpt>
        <trkpt lat="28.228243" lon="105.747999"><ele>1137</ele><time>2026-07-19T02:52:33.000Z</time></trkpt>
        <trkpt lat="28.228245" lon="105.747948"><ele>1137</ele><time>2026-07-19T02:52:33.000Z</time></trkpt>
        <trkpt lat="28.228264" lon="105.747891"><ele>1138</ele><time>2026-07-19T02:52:33.000Z</time></trkpt>
        <trkpt lat="28.228289" lon="105.747845"><ele>1138</ele><time>2026-07-19T02:52:33.000Z</time></trkpt>
        <trkpt lat="28.228321" lon="105.747807"><ele>1138</ele><time>2026-07-19T02:52:33.000Z</time></trkpt>
        <trkpt lat="28.228383" lon="105.747738"><ele>1139</ele><time>2026-07-19T02:52:33.000Z</time></trkpt>
        <trkpt lat="28.228402" lon="105.747644"><ele>1140</ele><time>2026-07-19T02:52:33.000Z</time></trkpt>
        <trkpt lat="28.228401" lon="105.747592"><ele>1141</ele><time>2026-07-19T02:52:33.000Z</time></trkpt>
        <trkpt lat="28.228389" lon="105.747533"><ele>1141</ele><time>2026-07-19T02:52:33.000Z</time></trkpt>
        <trkpt lat="28.228382" lon="105.747473"><ele>1142</ele><time>2026-07-19T02:52:33.000Z</time></trkpt>
        <trkpt lat="28.228369" lon="105.747417"><ele>1143</ele><time>2026-07-19T02:52:33.000Z</time></trkpt>
        <trkpt lat="28.228348" lon="105.747366"><ele>1144</ele><time>2026-07-19T02:52:33.000Z</time></trkpt>
        <trkpt lat="28.228349" lon="105.747308"><ele>1145</ele><time>2026-07-19T02:52:33.000Z</time></trkpt>
        <trkpt lat="28.228316" lon="105.74727"><ele>1146</ele><time>2026-07-19T02:52:33.000Z</time></trkpt>
        <trkpt lat="28.228282" lon="105.747234"><ele>1147</ele><time>2026-07-19T02:52:33.000Z</time></trkpt>
        <trkpt lat="28.228245" lon="105.747193"><ele>1148</ele><time>2026-07-19T02:52:33.000Z</time></trkpt>
        <trkpt lat="28.228216" lon="105.747144"><ele>1149</ele><time>2026-07-19T02:52:33.000Z</time></trkpt>
        <trkpt lat="28.228188" lon="105.747096"><ele>1150</ele><time>2026-07-19T02:52:33.000Z</time></trkpt>
        <trkpt lat="28.228176" lon="105.747045"><ele>1151</ele><time>2026-07-19T02:52:33.000Z</time></trkpt>
        <trkpt lat="28.228185" lon="105.746994"><ele>1152</ele><time>2026-07-19T02:52:33.000Z</time></trkpt>
        <trkpt lat="28.228218" lon="105.746957"><ele>1152</ele><time>2026-07-19T02:52:33.000Z</time></trkpt>
        <trkpt lat="28.228263" lon="105.746934"><ele>1152</ele><time>2026-07-19T02:52:33.000Z</time></trkpt>
        <trkpt lat="28.228318" lon="105.746928"><ele>1152</ele><time>2026-07-19T02:52:33.000Z</time></trkpt>
        <trkpt lat="28.228382" lon="105.746931"><ele>1152</ele><time>2026-07-19T02:52:33.000Z</time></trkpt>
        <trkpt lat="28.228447" lon="105.746931"><ele>1153</ele><time>2026-07-19T02:52:33.000Z</time></trkpt>
        <trkpt lat="28.228505" lon="105.746935"><ele>1153</ele><time>2026-07-19T02:52:33.000Z</time></trkpt>
        <trkpt lat="28.228575" lon="105.746954"><ele>1153</ele><time>2026-07-19T02:52:33.000Z</time></trkpt>
        <trkpt lat="28.228639" lon="105.74699"><ele>1153</ele><time>2026-07-19T02:52:33.000Z</time></trkpt>
        <trkpt lat="28.228696" lon="105.747042"><ele>1153</ele><time>2026-07-19T02:52:33.000Z</time></trkpt>
        <trkpt lat="28.228743" lon="105.747088"><ele>1153</ele><time>2026-07-19T02:52:33.000Z</time></trkpt>
        <trkpt lat="28.228785" lon="105.747141"><ele>1154</ele><time>2026-07-19T02:52:33.000Z</time></trkpt>
        <trkpt lat="28.22883" lon="105.747186"><ele>1154</ele><time>2026-07-19T02:52:33.000Z</time></trkpt>
        <trkpt lat="28.228876" lon="105.747226"><ele>1155</ele><time>2026-07-19T02:52:33.000Z</time></trkpt>
        <trkpt lat="28.228922" lon="105.747267"><ele>1156</ele><time>2026-07-19T02:52:33.000Z</time></trkpt>
        <trkpt lat="28.228957" lon="105.747319"><ele>1157</ele><time>2026-07-19T02:52:33.000Z</time></trkpt>
        <trkpt lat="28.228977" lon="105.747376"><ele>1158</ele><time>2026-07-19T02:52:33.000Z</time></trkpt>
        <trkpt lat="28.228992" lon="105.747429"><ele>1158</ele><time>2026-07-19T02:52:33.000Z</time></trkpt>
        <trkpt lat="28.22905" lon="105.747509"><ele>1158</ele><time>2026-07-19T02:52:33.000Z</time></trkpt>
        <trkpt lat="28.2291" lon="105.747532"><ele>1159</ele><time>2026-07-19T02:52:33.000Z</time></trkpt>
        <trkpt lat="28.229152" lon="105.747555"><ele>1159</ele><time>2026-07-19T02:52:33.000Z</time></trkpt>
        <trkpt lat="28.229209" lon="105.747572"><ele>1160</ele><time>2026-07-19T02:52:33.000Z</time></trkpt>
        <trkpt lat="28.229265" lon="105.74759"><ele>1160</ele><time>2026-07-19T02:52:33.000Z</time></trkpt>
        <trkpt lat="28.229325" lon="105.747605"><ele>1160</ele><time>2026-07-19T02:52:33.000Z</time></trkpt>
        <trkpt lat="28.229394" lon="105.747587"><ele>1160</ele><time>2026-07-19T02:52:33.000Z</time></trkpt>
        <trkpt lat="28.229447" lon="105.747622"><ele>1160</ele><time>2026-07-19T02:52:33.000Z</time></trkpt>
        <trkpt lat="28.229507" lon="105.747654"><ele>1160</ele><time>2026-07-19T02:52:33.000Z</time></trkpt>
        <trkpt lat="28.229564" lon="105.74768"><ele>1160</ele><time>2026-07-19T02:52:33.000Z</time></trkpt>
        <trkpt lat="28.229624" lon="105.747665"><ele>1160</ele><time>2026-07-19T02:52:33.000Z</time></trkpt>
        <trkpt lat="28.229683" lon="105.747679"><ele>1161</ele><time>2026-07-19T02:52:33.000Z</time></trkpt>
        <trkpt lat="28.229737" lon="105.747686"><ele>1161</ele><time>2026-07-19T02:52:33.000Z</time></trkpt>
        <trkpt lat="28.229791" lon="105.747687"><ele>1162</ele><time>2026-07-19T02:52:33.000Z</time></trkpt>
        <trkpt lat="28.229838" lon="105.747683"><ele>1162</ele><time>2026-07-19T02:52:33.000Z</time></trkpt>
        <trkpt lat="28.229889" lon="105.747677"><ele>1162</ele><time>2026-07-19T02:52:33.000Z</time></trkpt>
        <trkpt lat="28.229939" lon="105.747684"><ele>1163</ele><time>2026-07-19T02:52:33.000Z</time></trkpt>
        <trkpt lat="28.229989" lon="105.747705"><ele>1164</ele><time>2026-07-19T02:52:33.000Z</time></trkpt>
        <trkpt lat="28.230041" lon="105.747729"><ele>1165</ele><time>2026-07-19T02:52:33.000Z</time></trkpt>
        <trkpt lat="28.230092" lon="105.747743"><ele>1165</ele><time>2026-07-19T02:52:33.000Z</time></trkpt>
        <trkpt lat="28.230147" lon="105.747739"><ele>1165</ele><time>2026-07-19T02:52:33.000Z</time></trkpt>
        <trkpt lat="28.230205" lon="105.747729"><ele>1166</ele><time>2026-07-19T02:52:33.000Z</time></trkpt>
        <trkpt lat="28.2303" lon="105.747767"><ele>1166</ele><time>2026-07-19T02:52:33.000Z</time></trkpt>
        <trkpt lat="28.230387" lon="105.74775"><ele>1169</ele><time>2026-07-19T02:52:33.000Z</time></trkpt>
        <trkpt lat="28.230476" lon="105.747697"><ele>1169</ele><time>2026-07-19T02:52:33.000Z</time></trkpt>
        <trkpt lat="28.230505" lon="105.747654"><ele>1170</ele><time>2026-07-19T02:52:33.000Z</time></trkpt>
        <trkpt lat="28.230506" lon="105.747599"><ele>1170</ele><time>2026-07-19T02:52:33.000Z</time></trkpt>
        <trkpt lat="28.230498" lon="105.747534"><ele>1171</ele><time>2026-07-19T02:52:33.000Z</time></trkpt>
        <trkpt lat="28.230503" lon="105.74748"><ele>1171</ele><time>2026-07-19T02:52:33.000Z</time></trkpt>
        <trkpt lat="28.230498" lon="105.747428"><ele>1172</ele><time>2026-07-19T02:52:33.000Z</time></trkpt>
        <trkpt lat="28.230479" lon="105.74738"><ele>1172</ele><time>2026-07-19T02:52:33.000Z</time></trkpt>
        <trkpt lat="28.230448" lon="105.747334"><ele>1172</ele><time>2026-07-19T02:52:33.000Z</time></trkpt>
        <trkpt lat="28.230412" lon="105.747288"><ele>1172</ele><time>2026-07-19T02:52:33.000Z</time></trkpt>
        <trkpt lat="28.230382" lon="105.747244"><ele>1173</ele><time>2026-07-19T02:52:33.000Z</time></trkpt>
        <trkpt lat="28.230351" lon="105.747184"><ele>1174</ele><time>2026-07-19T02:52:33.000Z</time></trkpt>
        <trkpt lat="28.23032" lon="105.747131"><ele>1174</ele><time>2026-07-19T02:52:33.000Z</time></trkpt>
        <trkpt lat="28.230301" lon="105.747076"><ele>1174</ele><time>2026-07-19T02:52:33.000Z</time></trkpt>
        <trkpt lat="28.230297" lon="105.747022"><ele>1174</ele><time>2026-07-19T02:52:33.000Z</time></trkpt>
        <trkpt lat="28.230303" lon="105.746971"><ele>1174</ele><time>2026-07-19T02:52:33.000Z</time></trkpt>
        <trkpt lat="28.230328" lon="105.746921"><ele>1175</ele><time>2026-07-19T02:52:33.000Z</time></trkpt>
        <trkpt lat="28.230356" lon="105.746829"><ele>1175</ele><time>2026-07-19T02:52:33.000Z</time></trkpt>
        <trkpt lat="28.230364" lon="105.746778"><ele>1176</ele><time>2026-07-19T02:52:33.000Z</time></trkpt>
        <trkpt lat="28.230346" lon="105.746683"><ele>1176</ele><time>2026-07-19T02:52:33.000Z</time></trkpt>
        <trkpt lat="28.230321" lon="105.746634"><ele>1176</ele><time>2026-07-19T02:52:33.000Z</time></trkpt>
        <trkpt lat="28.230285" lon="105.746588"><ele>1177</ele><time>2026-07-19T02:52:33.000Z</time></trkpt>
        <trkpt lat="28.23024" lon="105.746548"><ele>1178</ele><time>2026-07-19T02:52:33.000Z</time></trkpt>
        <trkpt lat="28.23019" lon="105.746508"><ele>1178</ele><time>2026-07-19T02:52:33.000Z</time></trkpt>
        <trkpt lat="28.230144" lon="105.746466"><ele>1179</ele><time>2026-07-19T02:52:33.000Z</time></trkpt>
        <trkpt lat="28.230094" lon="105.746428"><ele>1179</ele><time>2026-07-19T02:52:33.000Z</time></trkpt>
        <trkpt lat="28.230048" lon="105.746382"><ele>1179</ele><time>2026-07-19T02:52:33.000Z</time></trkpt>
        <trkpt lat="28.230011" lon="105.746327"><ele>1180</ele><time>2026-07-19T02:52:33.000Z</time></trkpt>
        <trkpt lat="28.229982" lon="105.746266"><ele>1180</ele><time>2026-07-19T02:52:33.000Z</time></trkpt>
        <trkpt lat="28.229958" lon="105.746204"><ele>1181</ele><time>2026-07-19T02:52:33.000Z</time></trkpt>
        <trkpt lat="28.229942" lon="105.746144"><ele>1181</ele><time>2026-07-19T02:52:33.000Z</time></trkpt>
        <trkpt lat="28.229932" lon="105.746082"><ele>1181</ele><time>2026-07-19T02:52:33.000Z</time></trkpt>
        <trkpt lat="28.229938" lon="105.746023"><ele>1181</ele><time>2026-07-19T02:52:33.000Z</time></trkpt>
        <trkpt lat="28.229977" lon="105.745932"><ele>1181</ele><time>2026-07-19T02:52:33.000Z</time></trkpt>
        <trkpt lat="28.230003" lon="105.74589"><ele>1182</ele><time>2026-07-19T02:52:33.000Z</time></trkpt>
        <trkpt lat="28.230042" lon="105.745856"><ele>1182</ele><time>2026-07-19T02:52:33.000Z</time></trkpt>
        <trkpt lat="28.230083" lon="105.745824"><ele>1182</ele><time>2026-07-19T02:52:33.000Z</time></trkpt>
        <trkpt lat="28.230113" lon="105.745785"><ele>1182</ele><time>2026-07-19T02:52:33.000Z</time></trkpt>
        <trkpt lat="28.230151" lon="105.745752"><ele>1183</ele><time>2026-07-19T02:52:33.000Z</time></trkpt>
        <trkpt lat="28.2302" lon="105.745677"><ele>1183</ele><time>2026-07-19T02:52:33.000Z</time></trkpt>
        <trkpt lat="28.230206" lon="105.745588"><ele>1184</ele><time>2026-07-19T02:52:33.000Z</time></trkpt>
        <trkpt lat="28.230181" lon="105.745497"><ele>1185</ele><time>2026-07-19T02:52:33.000Z</time></trkpt>
        <trkpt lat="28.230086" lon="105.745493"><ele>1186</ele><time>2026-07-19T02:52:33.000Z</time></trkpt>
        <trkpt lat="28.230046" lon="105.745461"><ele>1186</ele><time>2026-07-19T02:52:33.000Z</time></trkpt>
        <trkpt lat="28.230005" lon="105.745427"><ele>1187</ele><time>2026-07-19T02:52:33.000Z</time></trkpt>
        <trkpt lat="28.229962" lon="105.745386"><ele>1187</ele><time>2026-07-19T02:52:33.000Z</time></trkpt>
        <trkpt lat="28.229916" lon="105.745345"><ele>1188</ele><time>2026-07-19T02:52:33.000Z</time></trkpt>
        <trkpt lat="28.229873" lon="105.745299"><ele>1188</ele><time>2026-07-19T02:52:33.000Z</time></trkpt>
        <trkpt lat="28.229838" lon="105.74525"><ele>1188</ele><time>2026-07-19T02:52:33.000Z</time></trkpt>
        <trkpt lat="28.229817" lon="105.745198"><ele>1188</ele><time>2026-07-19T02:52:33.000Z</time></trkpt>
        <trkpt lat="28.229799" lon="105.745137"><ele>1188</ele><time>2026-07-19T02:52:33.000Z</time></trkpt>
        <trkpt lat="28.229787" lon="105.745071"><ele>1188</ele><time>2026-07-19T02:52:33.000Z</time></trkpt>
        <trkpt lat="28.229773" lon="105.745002"><ele>1189</ele><time>2026-07-19T02:52:33.000Z</time></trkpt>
        <trkpt lat="28.229763" lon="105.744891"><ele>1190</ele><time>2026-07-19T02:52:33.000Z</time></trkpt>
        <trkpt lat="28.229725" lon="105.744806"><ele>1191</ele><time>2026-07-19T02:52:33.000Z</time></trkpt>
        <trkpt lat="28.229693" lon="105.744719"><ele>1191</ele><time>2026-07-19T02:52:33.000Z</time></trkpt>
        <trkpt lat="28.229693" lon="105.744623"><ele>1192</ele><time>2026-07-19T02:52:33.000Z</time></trkpt>
        <trkpt lat="28.229728" lon="105.74454"><ele>1192</ele><time>2026-07-19T02:52:33.000Z</time></trkpt>
        <trkpt lat="28.229721" lon="105.744463"><ele>1194</ele><time>2026-07-19T02:52:33.000Z</time></trkpt>
        <trkpt lat="28.229688" lon="105.744386"><ele>1193</ele><time>2026-07-19T02:52:33.000Z</time></trkpt>
        <trkpt lat="28.229658" lon="105.74434"><ele>1194</ele><time>2026-07-19T02:52:33.000Z</time></trkpt>
        <trkpt lat="28.229627" lon="105.744296"><ele>1194</ele><time>2026-07-19T02:52:33.000Z</time></trkpt>
        <trkpt lat="28.229565" lon="105.744217"><ele>1194</ele><time>2026-07-19T02:52:33.000Z</time></trkpt>
        <trkpt lat="28.229507" lon="105.744179"><ele>1196</ele><time>2026-07-19T02:52:33.000Z</time></trkpt>
        <trkpt lat="28.229443" lon="105.744169"><ele>1197</ele><time>2026-07-19T02:52:33.000Z</time></trkpt>
        <trkpt lat="28.229385" lon="105.744138"><ele>1197</ele><time>2026-07-19T02:52:33.000Z</time></trkpt>
        <trkpt lat="28.229362" lon="105.744067"><ele>1197</ele><time>2026-07-19T02:52:33.000Z</time></trkpt>
        <trkpt lat="28.229366" lon="105.74399"><ele>1197</ele><time>2026-07-19T02:52:33.000Z</time></trkpt>
        <trkpt lat="28.229398" lon="105.743908"><ele>1197</ele><time>2026-07-19T02:52:33.000Z</time></trkpt>
        <trkpt lat="28.229421" lon="105.743864"><ele>1197</ele><time>2026-07-19T02:52:33.000Z</time></trkpt>
        <trkpt lat="28.229469" lon="105.743778"><ele>1197</ele><time>2026-07-19T02:52:33.000Z</time></trkpt>
        <trkpt lat="28.229515" lon="105.743696"><ele>1197</ele><time>2026-07-19T02:52:33.000Z</time></trkpt>
        <trkpt lat="28.22955" lon="105.743624"><ele>1198</ele><time>2026-07-19T02:52:33.000Z</time></trkpt>
        <trkpt lat="28.229572" lon="105.743557"><ele>1199</ele><time>2026-07-19T02:52:33.000Z</time></trkpt>
        <trkpt lat="28.229563" lon="105.743498"><ele>1198</ele><time>2026-07-19T02:52:33.000Z</time></trkpt>
        <trkpt lat="28.229541" lon="105.743451"><ele>1198</ele><time>2026-07-19T02:52:33.000Z</time></trkpt>
        <trkpt lat="28.229501" lon="105.743393"><ele>1199</ele><time>2026-07-19T02:52:33.000Z</time></trkpt>
        <trkpt lat="28.229465" lon="105.74336"><ele>1199</ele><time>2026-07-19T02:52:33.000Z</time></trkpt>
        <trkpt lat="28.229426" lon="105.743322"><ele>1199</ele><time>2026-07-19T02:52:33.000Z</time></trkpt>
        <trkpt lat="28.229382" lon="105.743311"><ele>1199</ele><time>2026-07-19T02:52:33.000Z</time></trkpt>
        <trkpt lat="28.229328" lon="105.743303"><ele>1199</ele><time>2026-07-19T02:52:33.000Z</time></trkpt>
        <trkpt lat="28.229279" lon="105.743298"><ele>1199</ele><time>2026-07-19T02:52:33.000Z</time></trkpt>
        <trkpt lat="28.229235" lon="105.743286"><ele>1199</ele><time>2026-07-19T02:52:33.000Z</time></trkpt>
        <trkpt lat="28.229216" lon="105.743187"><ele>1200</ele><time>2026-07-19T02:52:33.000Z</time></trkpt>
        <trkpt lat="28.229168" lon="105.743145"><ele>1200</ele><time>2026-07-19T02:52:33.000Z</time></trkpt>
        <trkpt lat="28.229148" lon="105.743085"><ele>1203</ele><time>2026-07-19T02:52:33.000Z</time></trkpt>
        <trkpt lat="28.22913" lon="105.743084"><ele>1207</ele><time>2026-07-19T02:52:33.000Z</time></trkpt>
        <trkpt lat="28.229152" lon="105.743074"><ele>1212</ele><time>2026-07-19T02:52:33.000Z</time></trkpt>
        <trkpt lat="28.22916" lon="105.743002"><ele>1212</ele><time>2026-07-19T02:52:33.000Z</time></trkpt>
        <trkpt lat="28.229175" lon="105.74295"><ele>1212</ele><time>2026-07-19T02:52:33.000Z</time></trkpt>
        <trkpt lat="28.229187" lon="105.742895"><ele>1213</ele><time>2026-07-19T02:52:33.000Z</time></trkpt>
        <trkpt lat="28.229186" lon="105.742842"><ele>1213</ele><time>2026-07-19T02:52:33.000Z</time></trkpt>
        <trkpt lat="28.229181" lon="105.742786"><ele>1213</ele><time>2026-07-19T02:52:33.000Z</time></trkpt>
        <trkpt lat="28.229176" lon="105.742729"><ele>1213</ele><time>2026-07-19T02:52:33.000Z</time></trkpt>
        <trkpt lat="28.229186" lon="105.742676"><ele>1213</ele><time>2026-07-19T02:52:33.000Z</time></trkpt>
        <trkpt lat="28.229212" lon="105.742632"><ele>1213</ele><time>2026-07-19T02:52:33.000Z</time></trkpt>
        <trkpt lat="28.229254" lon="105.742598"><ele>1214</ele><time>2026-07-19T02:52:33.000Z</time></trkpt>
        <trkpt lat="28.229326" lon="105.74253"><ele>1214</ele><time>2026-07-19T02:52:33.000Z</time></trkpt>
        <trkpt lat="28.229344" lon="105.742466"><ele>1215</ele><time>2026-07-19T02:52:33.000Z</time></trkpt>
        <trkpt lat="28.229331" lon="105.742399"><ele>1215</ele><time>2026-07-19T02:52:33.000Z</time></trkpt>
        <trkpt lat="28.229295" lon="105.742353"><ele>1217</ele><time>2026-07-19T02:52:33.000Z</time></trkpt>
        <trkpt lat="28.229247" lon="105.742308"><ele>1218</ele><time>2026-07-19T02:52:33.000Z</time></trkpt>
        <trkpt lat="28.22921" lon="105.74227"><ele>1218</ele><time>2026-07-19T02:52:33.000Z</time></trkpt>
        <trkpt lat="28.229171" lon="105.742224"><ele>1218</ele><time>2026-07-19T02:52:33.000Z</time></trkpt>
        <trkpt lat="28.22915" lon="105.742112"><ele>1219</ele><time>2026-07-19T02:52:33.000Z</time></trkpt>
        <trkpt lat="28.229121" lon="105.742021"><ele>1219</ele><time>2026-07-19T02:52:33.000Z</time></trkpt>
        <trkpt lat="28.229131" lon="105.74197"><ele>1219</ele><time>2026-07-19T02:52:33.000Z</time></trkpt>
        <trkpt lat="28.229128" lon="105.741888"><ele>1220</ele><time>2026-07-19T02:52:33.000Z</time></trkpt>
        <trkpt lat="28.229165" lon="105.74185"><ele>1220</ele><time>2026-07-19T02:52:33.000Z</time></trkpt>
        <trkpt lat="28.229208" lon="105.741823"><ele>1220</ele><time>2026-07-19T02:52:33.000Z</time></trkpt>
        <trkpt lat="28.229256" lon="105.741804"><ele>1220</ele><time>2026-07-19T02:52:33.000Z</time></trkpt>
        <trkpt lat="28.229303" lon="105.741784"><ele>1220</ele><time>2026-07-19T02:52:33.000Z</time></trkpt>
        <trkpt lat="28.229348" lon="105.741761"><ele>1220</ele><time>2026-07-19T02:52:33.000Z</time></trkpt>
        <trkpt lat="28.229389" lon="105.741734"><ele>1221</ele><time>2026-07-19T02:52:33.000Z</time></trkpt>
        <trkpt lat="28.229428" lon="105.741699"><ele>1221</ele><time>2026-07-19T02:52:33.000Z</time></trkpt>
        <trkpt lat="28.229457" lon="105.741657"><ele>1221</ele><time>2026-07-19T02:52:33.000Z</time></trkpt>
        <trkpt lat="28.229476" lon="105.741609"><ele>1222</ele><time>2026-07-19T02:52:33.000Z</time></trkpt>
        <trkpt lat="28.229487" lon="105.741555"><ele>1222</ele><time>2026-07-19T02:52:33.000Z</time></trkpt>
        <trkpt lat="28.22949" lon="105.7415"><ele>1223</ele><time>2026-07-19T02:52:33.000Z</time></trkpt>
        <trkpt lat="28.229489" lon="105.741444"><ele>1223</ele><time>2026-07-19T02:52:33.000Z</time></trkpt>
        <trkpt lat="28.229487" lon="105.741389"><ele>1224</ele><time>2026-07-19T02:52:33.000Z</time></trkpt>
        <trkpt lat="28.229468" lon="105.741298"><ele>1225</ele><time>2026-07-19T02:52:33.000Z</time></trkpt>
        <trkpt lat="28.229415" lon="105.741247"><ele>1227</ele><time>2026-07-19T02:52:33.000Z</time></trkpt>
        <trkpt lat="28.229368" lon="105.741228"><ele>1227</ele><time>2026-07-19T02:52:33.000Z</time></trkpt>
        <trkpt lat="28.229318" lon="105.741205"><ele>1228</ele><time>2026-07-19T02:52:33.000Z</time></trkpt>
        <trkpt lat="28.229268" lon="105.741189"><ele>1229</ele><time>2026-07-19T02:52:33.000Z</time></trkpt>
        <trkpt lat="28.229213" lon="105.741167"><ele>1230</ele><time>2026-07-19T02:52:33.000Z</time></trkpt>
        <trkpt lat="28.229157" lon="105.741147"><ele>1230</ele><time>2026-07-19T02:52:33.000Z</time></trkpt>
        <trkpt lat="28.229103" lon="105.741129"><ele>1231</ele><time>2026-07-19T02:52:33.000Z</time></trkpt>
        <trkpt lat="28.229019" lon="105.741073"><ele>1232</ele><time>2026-07-19T02:52:33.000Z</time></trkpt>
        <trkpt lat="28.22897" lon="105.741004"><ele>1232</ele><time>2026-07-19T02:52:33.000Z</time></trkpt>
        <trkpt lat="28.228959" lon="105.740913"><ele>1232</ele><time>2026-07-19T02:52:33.000Z</time></trkpt>
        <trkpt lat="28.228982" lon="105.740868"><ele>1232</ele><time>2026-07-19T02:52:33.000Z</time></trkpt>
        <trkpt lat="28.229015" lon="105.740827"><ele>1232</ele><time>2026-07-19T02:52:33.000Z</time></trkpt>
        <trkpt lat="28.229059" lon="105.740788"><ele>1232</ele><time>2026-07-19T02:52:33.000Z</time></trkpt>
        <trkpt lat="28.229112" lon="105.740757"><ele>1232</ele><time>2026-07-19T02:52:33.000Z</time></trkpt>
        <trkpt lat="28.229165" lon="105.740724"><ele>1233</ele><time>2026-07-19T02:52:33.000Z</time></trkpt>
        <trkpt lat="28.229214" lon="105.740688"><ele>1233</ele><time>2026-07-19T02:52:33.000Z</time></trkpt>
        <trkpt lat="28.229261" lon="105.74065"><ele>1233</ele><time>2026-07-19T02:52:33.000Z</time></trkpt>
        <trkpt lat="28.229301" lon="105.74061"><ele>1234</ele><time>2026-07-19T02:52:33.000Z</time></trkpt>
        <trkpt lat="28.229336" lon="105.740564"><ele>1234</ele><time>2026-07-19T02:52:33.000Z</time></trkpt>
        <trkpt lat="28.229352" lon="105.740514"><ele>1235</ele><time>2026-07-19T02:52:33.000Z</time></trkpt>
        <trkpt lat="28.229357" lon="105.740457"><ele>1235</ele><time>2026-07-19T02:52:33.000Z</time></trkpt>
        <trkpt lat="28.229353" lon="105.740396"><ele>1236</ele><time>2026-07-19T02:52:33.000Z</time></trkpt>
        <trkpt lat="28.229345" lon="105.740335"><ele>1236</ele><time>2026-07-19T02:52:33.000Z</time></trkpt>
        <trkpt lat="28.229342" lon="105.740279"><ele>1236</ele><time>2026-07-19T02:52:33.000Z</time></trkpt>
        <trkpt lat="28.22934" lon="105.740225"><ele>1236</ele><time>2026-07-19T02:52:33.000Z</time></trkpt>
        <trkpt lat="28.229339" lon="105.740169"><ele>1236</ele><time>2026-07-19T02:52:33.000Z</time></trkpt>
        <trkpt lat="28.229335" lon="105.740117"><ele>1236</ele><time>2026-07-19T02:52:33.000Z</time></trkpt>
        <trkpt lat="28.229331" lon="105.740064"><ele>1237</ele><time>2026-07-19T02:52:33.000Z</time></trkpt>
        <trkpt lat="28.229323" lon="105.74001"><ele>1237</ele><time>2026-07-19T02:52:33.000Z</time></trkpt>
        <trkpt lat="28.229305" lon="105.73996"><ele>1238</ele><time>2026-07-19T02:52:33.000Z</time></trkpt>
        <trkpt lat="28.229242" lon="105.7399"><ele>1239</ele><time>2026-07-19T02:52:33.000Z</time></trkpt>
        <trkpt lat="28.229199" lon="105.739874"><ele>1239</ele><time>2026-07-19T02:52:33.000Z</time></trkpt>
        <trkpt lat="28.229154" lon="105.739861"><ele>1239</ele><time>2026-07-19T02:52:33.000Z</time></trkpt>
        <trkpt lat="28.229076" lon="105.739858"><ele>1241</ele><time>2026-07-19T02:52:33.000Z</time></trkpt>
        <trkpt lat="28.22903" lon="105.739835"><ele>1241</ele><time>2026-07-19T02:52:33.000Z</time></trkpt>
        <trkpt lat="28.228983" lon="105.739761"><ele>1241</ele><time>2026-07-19T02:52:33.000Z</time></trkpt>
        <trkpt lat="28.228971" lon="105.739681"><ele>1241</ele><time>2026-07-19T02:52:33.000Z</time></trkpt>
        <trkpt lat="28.228967" lon="105.739599"><ele>1241</ele><time>2026-07-19T02:52:33.000Z</time></trkpt>
        <trkpt lat="28.228956" lon="105.739527"><ele>1242</ele><time>2026-07-19T02:52:33.000Z</time></trkpt>
        <trkpt lat="28.228947" lon="105.739458"><ele>1242</ele><time>2026-07-19T02:52:33.000Z</time></trkpt>
        <trkpt lat="28.228941" lon="105.739386"><ele>1243</ele><time>2026-07-19T02:52:33.000Z</time></trkpt>
        <trkpt lat="28.228975" lon="105.739325"><ele>1243</ele><time>2026-07-19T02:52:33.000Z</time></trkpt>
        <trkpt lat="28.228994" lon="105.739229"><ele>1239</ele><time>2026-07-19T02:52:33.000Z</time></trkpt>
        <trkpt lat="28.22907" lon="105.739239"><ele>1244</ele><time>2026-07-19T02:52:33.000Z</time></trkpt>
        <trkpt lat="28.229117" lon="105.739216"><ele>1244</ele><time>2026-07-19T02:52:33.000Z</time></trkpt>
        <trkpt lat="28.22919" lon="105.739172"><ele>1244</ele><time>2026-07-19T02:52:33.000Z</time></trkpt>
        <trkpt lat="28.229223" lon="105.739094"><ele>1244</ele><time>2026-07-19T02:52:33.000Z</time></trkpt>
        <trkpt lat="28.22923" lon="105.739043"><ele>1245</ele><time>2026-07-19T02:52:33.000Z</time></trkpt>
        <trkpt lat="28.229222" lon="105.738942"><ele>1245</ele><time>2026-07-19T02:52:33.000Z</time></trkpt>
        <trkpt lat="28.229215" lon="105.738852"><ele>1245</ele><time>2026-07-19T02:52:33.000Z</time></trkpt>
        <trkpt lat="28.229278" lon="105.738763"><ele>1245</ele><time>2026-07-19T02:52:33.000Z</time></trkpt>
        <trkpt lat="28.229272" lon="105.738683"><ele>1245</ele><time>2026-07-19T02:52:33.000Z</time></trkpt>
        <trkpt lat="28.229242" lon="105.738617"><ele>1246</ele><time>2026-07-19T02:52:33.000Z</time></trkpt>
        <trkpt lat="28.229197" lon="105.738552"><ele>1246</ele><time>2026-07-19T02:52:33.000Z</time></trkpt>
        <trkpt lat="28.229177" lon="105.738467"><ele>1246</ele><time>2026-07-19T02:52:33.000Z</time></trkpt>
        <trkpt lat="28.229199" lon="105.738382"><ele>1246</ele><time>2026-07-19T02:52:33.000Z</time></trkpt>
        <trkpt lat="28.229204" lon="105.738293"><ele>1245</ele><time>2026-07-19T02:52:33.000Z</time></trkpt>
        <trkpt lat="28.229248" lon="105.73821"><ele>1245</ele><time>2026-07-19T02:52:33.000Z</time></trkpt>
        <trkpt lat="28.229274" lon="105.738163"><ele>1245</ele><time>2026-07-19T02:52:33.000Z</time></trkpt>
        <trkpt lat="28.229281" lon="105.738108"><ele>1244</ele><time>2026-07-19T02:52:33.000Z</time></trkpt>
        <trkpt lat="28.229287" lon="105.73805"><ele>1244</ele><time>2026-07-19T02:52:33.000Z</time></trkpt>
        <trkpt lat="28.229295" lon="105.737995"><ele>1245</ele><time>2026-07-19T02:52:33.000Z</time></trkpt>
        <trkpt lat="28.229304" lon="105.737941"><ele>1245</ele><time>2026-07-19T02:52:33.000Z</time></trkpt>
        <trkpt lat="28.229314" lon="105.737888"><ele>1245</ele><time>2026-07-19T02:52:33.000Z</time></trkpt>
        <trkpt lat="28.229343" lon="105.737792"><ele>1245</ele><time>2026-07-19T02:52:33.000Z</time></trkpt>
        <trkpt lat="28.229358" lon="105.737743"><ele>1245</ele><time>2026-07-19T02:52:33.000Z</time></trkpt>
        <trkpt lat="28.229386" lon="105.737646"><ele>1246</ele><time>2026-07-19T02:52:33.000Z</time></trkpt>
        <trkpt lat="28.229401" lon="105.737598"><ele>1246</ele><time>2026-07-19T02:52:33.000Z</time></trkpt>
        <trkpt lat="28.229426" lon="105.737508"><ele>1246</ele><time>2026-07-19T02:52:33.000Z</time></trkpt>
        <trkpt lat="28.229415" lon="105.737424"><ele>1245</ele><time>2026-07-19T02:52:33.000Z</time></trkpt>
        <trkpt lat="28.229425" lon="105.737344"><ele>1245</ele><time>2026-07-19T02:52:33.000Z</time></trkpt>
        <trkpt lat="28.229435" lon="105.73727"><ele>1245</ele><time>2026-07-19T02:52:33.000Z</time></trkpt>
        <trkpt lat="28.2294595" lon="105.7371784"><ele>1245</ele><time>2026-07-19T02:52:33.000Z</time></trkpt>
        <trkpt lat="28.2294595" lon="105.7371784"><ele>1270</ele><time>2026-07-19T02:52:33.000Z</time></trkpt>
        <trkpt lat="28.2294116" lon="105.7370825"><ele>1272</ele><time>2026-07-19T02:52:33.000Z</time></trkpt>
        <trkpt lat="28.2293496" lon="105.7368487"><ele>1273</ele><time>2026-07-19T02:52:33.000Z</time></trkpt>
        <trkpt lat="28.2292828" lon="105.7363761"><ele>1271</ele><time>2026-07-19T02:52:33.000Z</time></trkpt>
        <trkpt lat="28.2292069" lon="105.7360843"><ele>1264</ele><time>2026-07-19T02:52:33.000Z</time></trkpt>
        <trkpt lat="28.229202" lon="105.7359015"><ele>1259</ele><time>2026-07-19T02:52:33.000Z</time></trkpt>
        <trkpt lat="28.2291501" lon="105.7357236"><ele>1253</ele><time>2026-07-19T02:52:33.000Z</time></trkpt>
        <trkpt lat="28.2291392" lon="105.7354269"><ele>1248</ele><time>2026-07-19T02:52:33.000Z</time></trkpt>
        <trkpt lat="28.2290294" lon="105.7349093"><ele>1234</ele><time>2026-07-19T02:52:33.000Z</time></trkpt>
        <trkpt lat="28.2290266" lon="105.7346096"><ele>1227</ele><time>2026-07-19T02:52:33.000Z</time></trkpt>
        <trkpt lat="28.228856" lon="105.7336655"><ele>1208</ele><time>2026-07-19T02:52:33.000Z</time></trkpt>
        <trkpt lat="28.2286992" lon="105.7332159"><ele>1200</ele><time>2026-07-19T02:52:33.000Z</time></trkpt>
        <trkpt lat="28.2286375" lon="105.7327923"><ele>1194</ele><time>2026-07-19T02:52:33.000Z</time></trkpt>
        <trkpt lat="28.2284457" lon="105.7323068"><ele>1186</ele><time>2026-07-19T02:52:33.000Z</time></trkpt>
        <trkpt lat="28.2282579" lon="105.7320611"><ele>1181</ele><time>2026-07-19T02:52:33.000Z</time></trkpt>
        <trkpt lat="28.2280631" lon="105.7316705"><ele>1173</ele><time>2026-07-19T02:52:33.000Z</time></trkpt>
        <trkpt lat="28.2279193" lon="105.7312639"><ele>1167</ele><time>2026-07-19T02:52:33.000Z</time></trkpt>
        <trkpt lat="28.2276226" lon="105.7308364"><ele>1160</ele><time>2026-07-19T02:52:33.000Z</time></trkpt>
        <trkpt lat="28.2271538" lon="105.7304088"><ele>1148</ele><time>2026-07-19T02:52:33.000Z</time></trkpt>
        <trkpt lat="28.2270258" lon="105.7303649"><ele>1146</ele><time>2026-07-19T02:52:33.000Z</time></trkpt>
        <trkpt lat="28.2267538" lon="105.7303769"><ele>1143</ele><time>2026-07-19T02:52:33.000Z</time></trkpt>
        <trkpt lat="28.2267189" lon="105.730333"><ele>1144</ele><time>2026-07-19T02:52:33.000Z</time></trkpt>
        <trkpt lat="28.2268771" lon="105.7299484"><ele>1148</ele><time>2026-07-19T02:52:33.000Z</time></trkpt>
        <trkpt lat="28.2269654" lon="105.7294289"><ele>1149</ele><time>2026-07-19T02:52:33.000Z</time></trkpt>
        <trkpt lat="28.2273121" lon="105.728473"><ele>1143</ele><time>2026-07-19T02:52:33.000Z</time></trkpt>
        <trkpt lat="28.2273561" lon="105.728479"><ele>1142</ele><time>2026-07-19T02:52:33.000Z</time></trkpt>
        <trkpt lat="28.227399" lon="105.7285659"><ele>1142</ele><time>2026-07-19T02:52:33.000Z</time></trkpt>
        <trkpt lat="28.2274189" lon="105.7287776"><ele>1140</ele><time>2026-07-19T02:52:33.000Z</time></trkpt>
        <trkpt lat="28.227544" lon="105.728794"><ele>1140</ele><time>2026-07-19T02:52:33.000Z</time></trkpt>
        <trkpt lat="28.227544" lon="105.728794"><ele>1086</ele><time>2026-07-19T02:52:33.000Z</time></trkpt>
        <trkpt lat="28.22759" lon="105.728805"><ele>1087</ele><time>2026-07-19T02:52:33.000Z</time></trkpt>
        <trkpt lat="28.227636" lon="105.728831"><ele>1088</ele><time>2026-07-19T02:52:33.000Z</time></trkpt>
        <trkpt lat="28.227679" lon="105.728875"><ele>1089</ele><time>2026-07-19T02:52:33.000Z</time></trkpt>
        <trkpt lat="28.227699" lon="105.728923"><ele>1089</ele><time>2026-07-19T02:52:33.000Z</time></trkpt>
        <trkpt lat="28.227701" lon="105.728983"><ele>1089</ele><time>2026-07-19T02:52:33.000Z</time></trkpt>
        <trkpt lat="28.227699" lon="105.72904"><ele>1090</ele><time>2026-07-19T02:52:33.000Z</time></trkpt>
        <trkpt lat="28.227704" lon="105.7291"><ele>1090</ele><time>2026-07-19T02:52:33.000Z</time></trkpt>
        <trkpt lat="28.227696" lon="105.729156"><ele>1090</ele><time>2026-07-19T02:52:33.000Z</time></trkpt>
        <trkpt lat="28.227687" lon="105.72921"><ele>1091</ele><time>2026-07-19T02:52:33.000Z</time></trkpt>
        <trkpt lat="28.227679" lon="105.729269"><ele>1092</ele><time>2026-07-19T02:52:33.000Z</time></trkpt>
        <trkpt lat="28.227678" lon="105.72932"><ele>1093</ele><time>2026-07-19T02:52:33.000Z</time></trkpt>
        <trkpt lat="28.227686" lon="105.729371"><ele>1094</ele><time>2026-07-19T02:52:33.000Z</time></trkpt>
        <trkpt lat="28.227694" lon="105.729424"><ele>1095</ele><time>2026-07-19T02:52:33.000Z</time></trkpt>
        <trkpt lat="28.227683" lon="105.729474"><ele>1096</ele><time>2026-07-19T02:52:33.000Z</time></trkpt>
        <trkpt lat="28.227677" lon="105.729534"><ele>1097</ele><time>2026-07-19T02:52:33.000Z</time></trkpt>
        <trkpt lat="28.227668" lon="105.729584"><ele>1098</ele><time>2026-07-19T02:52:33.000Z</time></trkpt>
        <trkpt lat="28.227666" lon="105.729641"><ele>1099</ele><time>2026-07-19T02:52:33.000Z</time></trkpt>
        <trkpt lat="28.227682" lon="105.729694"><ele>1100</ele><time>2026-07-19T02:52:33.000Z</time></trkpt>
        <trkpt lat="28.227696" lon="105.729748"><ele>1100</ele><time>2026-07-19T02:52:33.000Z</time></trkpt>
        <trkpt lat="28.227722" lon="105.729773"><ele>1104</ele><time>2026-07-19T02:52:33.000Z</time></trkpt>
        <trkpt lat="28.227755" lon="105.729744"><ele>1106</ele><time>2026-07-19T02:52:33.000Z</time></trkpt>
        <trkpt lat="28.227801" lon="105.729722"><ele>1108</ele><time>2026-07-19T02:52:33.000Z</time></trkpt>
        <trkpt lat="28.227851" lon="105.729739"><ele>1108</ele><time>2026-07-19T02:52:33.000Z</time></trkpt>
        <trkpt lat="28.227905" lon="105.729745"><ele>1109</ele><time>2026-07-19T02:52:33.000Z</time></trkpt>
        <trkpt lat="28.227934" lon="105.729786"><ele>1110</ele><time>2026-07-19T02:52:33.000Z</time></trkpt>
        <trkpt lat="28.227977" lon="105.729781"><ele>1112</ele><time>2026-07-19T02:52:33.000Z</time></trkpt>
        <trkpt lat="28.228029" lon="105.729777"><ele>1112</ele><time>2026-07-19T02:52:33.000Z</time></trkpt>
        <trkpt lat="28.228074" lon="105.729746"><ele>1114</ele><time>2026-07-19T02:52:33.000Z</time></trkpt>
        <trkpt lat="28.228101" lon="105.72971"><ele>1116</ele><time>2026-07-19T02:52:33.000Z</time></trkpt>
        <trkpt lat="28.228133" lon="105.729667"><ele>1117</ele><time>2026-07-19T02:52:33.000Z</time></trkpt>
        <trkpt lat="28.228167" lon="105.729707"><ele>1117</ele><time>2026-07-19T02:52:33.000Z</time></trkpt>
        <trkpt lat="28.228189" lon="105.729759"><ele>1118</ele><time>2026-07-19T02:52:33.000Z</time></trkpt>
        <trkpt lat="28.228215" lon="105.72981"><ele>1120</ele><time>2026-07-19T02:52:33.000Z</time></trkpt>
        <trkpt lat="28.228246" lon="105.729793"><ele>1124</ele><time>2026-07-19T02:52:33.000Z</time></trkpt>
        <trkpt lat="28.228278" lon="105.72976"><ele>1126</ele><time>2026-07-19T02:52:33.000Z</time></trkpt>
        <trkpt lat="28.22831" lon="105.729723"><ele>1128</ele><time>2026-07-19T02:52:33.000Z</time></trkpt>
        <trkpt lat="28.228328" lon="105.729674"><ele>1129</ele><time>2026-07-19T02:52:33.000Z</time></trkpt>
        <trkpt lat="28.228346" lon="105.729629"><ele>1131</ele><time>2026-07-19T02:52:33.000Z</time></trkpt>
        <trkpt lat="28.228353" lon="105.729577"><ele>1134</ele><time>2026-07-19T02:52:33.000Z</time></trkpt>
        <trkpt lat="28.228356" lon="105.729513"><ele>1134</ele><time>2026-07-19T02:52:33.000Z</time></trkpt>
        <trkpt lat="28.228364" lon="105.729469"><ele>1137</ele><time>2026-07-19T02:52:33.000Z</time></trkpt>
        <trkpt lat="28.228381" lon="105.729418"><ele>1139</ele><time>2026-07-19T02:52:33.000Z</time></trkpt>
        <trkpt lat="28.228395" lon="105.729371"><ele>1141</ele><time>2026-07-19T02:52:33.000Z</time></trkpt>
        <trkpt lat="28.228415" lon="105.729413"><ele>1144</ele><time>2026-07-19T02:52:33.000Z</time></trkpt>
        <trkpt lat="28.228426" lon="105.729462"><ele>1146</ele><time>2026-07-19T02:52:33.000Z</time></trkpt>
        <trkpt lat="28.228471" lon="105.72945"><ele>1147</ele><time>2026-07-19T02:52:33.000Z</time></trkpt>
        <trkpt lat="28.228486" lon="105.729396"><ele>1150</ele><time>2026-07-19T02:52:33.000Z</time></trkpt>
        <trkpt lat="28.228506" lon="105.72935"><ele>1152</ele><time>2026-07-19T02:52:33.000Z</time></trkpt>
        <trkpt lat="28.228533" lon="105.729371"><ele>1156</ele><time>2026-07-19T02:52:33.000Z</time></trkpt>
        <trkpt lat="28.228536" lon="105.729421"><ele>1157</ele><time>2026-07-19T02:52:33.000Z</time></trkpt>
        <trkpt lat="28.228567" lon="105.729377"><ele>1158</ele><time>2026-07-19T02:52:33.000Z</time></trkpt>
        <trkpt lat="28.228616" lon="105.729375"><ele>1159</ele><time>2026-07-19T02:52:33.000Z</time></trkpt>
        <trkpt lat="28.228651" lon="105.729344"><ele>1161</ele><time>2026-07-19T02:52:33.000Z</time></trkpt>
        <trkpt lat="28.228657" lon="105.729393"><ele>1163</ele><time>2026-07-19T02:52:33.000Z</time></trkpt>
        <trkpt lat="28.228643" lon="105.729441"><ele>1166</ele><time>2026-07-19T02:52:33.000Z</time></trkpt>
        <trkpt lat="28.228634" lon="105.729489"><ele>1167</ele><time>2026-07-19T02:52:33.000Z</time></trkpt>
        <trkpt lat="28.228678" lon="105.729498"><ele>1169</ele><time>2026-07-19T02:52:33.000Z</time></trkpt>
        <trkpt lat="28.228725" lon="105.729472"><ele>1169</ele><time>2026-07-19T02:52:33.000Z</time></trkpt>
        <trkpt lat="28.228756" lon="105.729502"><ele>1172</ele><time>2026-07-19T02:52:33.000Z</time></trkpt>
        <trkpt lat="28.228777" lon="105.729509"><ele>1176</ele><time>2026-07-19T02:52:33.000Z</time></trkpt>
        <trkpt lat="28.228797" lon="105.729471"><ele>1179</ele><time>2026-07-19T02:52:33.000Z</time></trkpt>
        <trkpt lat="28.228828" lon="105.729439"><ele>1181</ele><time>2026-07-19T02:52:33.000Z</time></trkpt>
        <trkpt lat="28.228865" lon="105.729411"><ele>1183</ele><time>2026-07-19T02:52:33.000Z</time></trkpt>
        <trkpt lat="28.228824" lon="105.729413"><ele>1185</ele><time>2026-07-19T02:52:33.000Z</time></trkpt>
        <trkpt lat="28.228861" lon="105.729388"><ele>1187</ele><time>2026-07-19T02:52:33.000Z</time></trkpt>
        <trkpt lat="28.228895" lon="105.729427"><ele>1187</ele><time>2026-07-19T02:52:33.000Z</time></trkpt>
        <trkpt lat="28.228924" lon="105.729468"><ele>1187</ele><time>2026-07-19T02:52:33.000Z</time></trkpt>
        <trkpt lat="28.228959" lon="105.729511"><ele>1187</ele><time>2026-07-19T02:52:33.000Z</time></trkpt>
        <trkpt lat="28.228989" lon="105.729552"><ele>1187</ele><time>2026-07-19T02:52:33.000Z</time></trkpt>
        <trkpt lat="28.229012" lon="105.729601"><ele>1187</ele><time>2026-07-19T02:52:33.000Z</time></trkpt>
        <trkpt lat="28.229043" lon="105.729639"><ele>1187</ele><time>2026-07-19T02:52:33.000Z</time></trkpt>
        <trkpt lat="28.229089" lon="105.72966"><ele>1186</ele><time>2026-07-19T02:52:33.000Z</time></trkpt>
        <trkpt lat="28.22914" lon="105.729676"><ele>1187</ele><time>2026-07-19T02:52:33.000Z</time></trkpt>
        <trkpt lat="28.229185" lon="105.729679"><ele>1186</ele><time>2026-07-19T02:52:33.000Z</time></trkpt>
        <trkpt lat="28.229185" lon="105.729679"><ele>1186</ele><time>2026-07-19T02:52:33.000Z</time></trkpt>
        <trkpt lat="28.229224" lon="105.729653"><ele>1185</ele><time>2026-07-19T02:52:33.000Z</time></trkpt>
        <trkpt lat="28.229263" lon="105.729623"><ele>1185</ele><time>2026-07-19T02:52:33.000Z</time></trkpt>
        <trkpt lat="28.229302" lon="105.729596"><ele>1185</ele><time>2026-07-19T02:52:33.000Z</time></trkpt>
        <trkpt lat="28.229342" lon="105.72956"><ele>1186</ele><time>2026-07-19T02:52:33.000Z</time></trkpt>
        <trkpt lat="28.229384" lon="105.729533"><ele>1186</ele><time>2026-07-19T02:52:33.000Z</time></trkpt>
        <trkpt lat="28.229434" lon="105.729505"><ele>1185</ele><time>2026-07-19T02:52:33.000Z</time></trkpt>
        <trkpt lat="28.229475" lon="105.729465"><ele>1183</ele><time>2026-07-19T02:52:33.000Z</time></trkpt>
        <trkpt lat="28.229491" lon="105.729415"><ele>1182</ele><time>2026-07-19T02:52:33.000Z</time></trkpt>
        <trkpt lat="28.229492" lon="105.729354"><ele>1181</ele><time>2026-07-19T02:52:33.000Z</time></trkpt>
        <trkpt lat="28.229516" lon="105.729309"><ele>1179</ele><time>2026-07-19T02:52:33.000Z</time></trkpt>
        <trkpt lat="28.22956" lon="105.72932"><ele>1180</ele><time>2026-07-19T02:52:33.000Z</time></trkpt>
        <trkpt lat="28.229602" lon="105.729346"><ele>1180</ele><time>2026-07-19T02:52:33.000Z</time></trkpt>
        <trkpt lat="28.229645" lon="105.729369"><ele>1180</ele><time>2026-07-19T02:52:33.000Z</time></trkpt>
        <trkpt lat="28.229675" lon="105.729342"><ele>1177</ele><time>2026-07-19T02:52:33.000Z</time></trkpt>
        <trkpt lat="28.229721" lon="105.729318"><ele>1177</ele><time>2026-07-19T02:52:33.000Z</time></trkpt>
        <trkpt lat="28.229762" lon="105.729281"><ele>1178</ele><time>2026-07-19T02:52:33.000Z</time></trkpt>
        <trkpt lat="28.2298" lon="105.729244"><ele>1177</ele><time>2026-07-19T02:52:33.000Z</time></trkpt>
        <trkpt lat="28.229844" lon="105.729215"><ele>1176</ele><time>2026-07-19T02:52:33.000Z</time></trkpt>
        <trkpt lat="28.229891" lon="105.729194"><ele>1175</ele><time>2026-07-19T02:52:33.000Z</time></trkpt>
        <trkpt lat="28.229934" lon="105.729171"><ele>1174</ele><time>2026-07-19T02:52:33.000Z</time></trkpt>
        <trkpt lat="28.229977" lon="105.729149"><ele>1174</ele><time>2026-07-19T02:52:33.000Z</time></trkpt>
        <trkpt lat="28.230025" lon="105.729152"><ele>1171</ele><time>2026-07-19T02:52:33.000Z</time></trkpt>
        <trkpt lat="28.230067" lon="105.729175"><ele>1169</ele><time>2026-07-19T02:52:33.000Z</time></trkpt>
        <trkpt lat="28.230115" lon="105.729174"><ele>1168</ele><time>2026-07-19T02:52:33.000Z</time></trkpt>
        <trkpt lat="28.230159" lon="105.729164"><ele>1168</ele><time>2026-07-19T02:52:33.000Z</time></trkpt>
        <trkpt lat="28.230205" lon="105.729166"><ele>1167</ele><time>2026-07-19T02:52:33.000Z</time></trkpt>
        <trkpt lat="28.230251" lon="105.729176"><ele>1166</ele><time>2026-07-19T02:52:33.000Z</time></trkpt>
        <trkpt lat="28.230296" lon="105.729159"><ele>1165</ele><time>2026-07-19T02:52:33.000Z</time></trkpt>
        <trkpt lat="28.230342" lon="105.729153"><ele>1164</ele><time>2026-07-19T02:52:33.000Z</time></trkpt>
        <trkpt lat="28.230377" lon="105.729142"><ele>1160</ele><time>2026-07-19T02:52:33.000Z</time></trkpt>
        <trkpt lat="28.230405" lon="105.729128"><ele>1157</ele><time>2026-07-19T02:52:33.000Z</time></trkpt>
        <trkpt lat="28.230442" lon="105.729135"><ele>1154</ele><time>2026-07-19T02:52:33.000Z</time></trkpt>
        <trkpt lat="28.230474" lon="105.729153"><ele>1150</ele><time>2026-07-19T02:52:33.000Z</time></trkpt>
        <trkpt lat="28.23052" lon="105.729171"><ele>1148</ele><time>2026-07-19T02:52:33.000Z</time></trkpt>
        <trkpt lat="28.230562" lon="105.729156"><ele>1147</ele><time>2026-07-19T02:52:33.000Z</time></trkpt>
        <trkpt lat="28.230611" lon="105.729138"><ele>1145</ele><time>2026-07-19T02:52:33.000Z</time></trkpt>
        <trkpt lat="28.230662" lon="105.729133"><ele>1144</ele><time>2026-07-19T02:52:33.000Z</time></trkpt>
        <trkpt lat="28.230713" lon="105.729132"><ele>1143</ele><time>2026-07-19T02:52:33.000Z</time></trkpt>
        <trkpt lat="28.230754" lon="105.729122"><ele>1141</ele><time>2026-07-19T02:52:33.000Z</time></trkpt>
        <trkpt lat="28.230789" lon="105.729094"><ele>1139</ele><time>2026-07-19T02:52:33.000Z</time></trkpt>
        <trkpt lat="28.230835" lon="105.729074"><ele>1138</ele><time>2026-07-19T02:52:33.000Z</time></trkpt>
        <trkpt lat="28.23087" lon="105.729044"><ele>1137</ele><time>2026-07-19T02:52:33.000Z</time></trkpt>
        <trkpt lat="28.230913" lon="105.729069"><ele>1136</ele><time>2026-07-19T02:52:33.000Z</time></trkpt>
        <trkpt lat="28.230952" lon="105.729093"><ele>1135</ele><time>2026-07-19T02:52:33.000Z</time></trkpt>
        <trkpt lat="28.230997" lon="105.729109"><ele>1133</ele><time>2026-07-19T02:52:33.000Z</time></trkpt>
        <trkpt lat="28.231042" lon="105.72909"><ele>1131</ele><time>2026-07-19T02:52:33.000Z</time></trkpt>
        <trkpt lat="28.231092" lon="105.729085"><ele>1129</ele><time>2026-07-19T02:52:33.000Z</time></trkpt>
        <trkpt lat="28.231099" lon="105.729061"><ele>1125</ele><time>2026-07-19T02:52:33.000Z</time></trkpt>
        <trkpt lat="28.231144" lon="105.729041"><ele>1123</ele><time>2026-07-19T02:52:33.000Z</time></trkpt>
        <trkpt lat="28.231178" lon="105.729007"><ele>1122</ele><time>2026-07-19T02:52:33.000Z</time></trkpt>
        <trkpt lat="28.231221" lon="105.728992"><ele>1122</ele><time>2026-07-19T02:52:33.000Z</time></trkpt>
        <trkpt lat="28.231274" lon="105.728983"><ele>1121</ele><time>2026-07-19T02:52:33.000Z</time></trkpt>
        <trkpt lat="28.231325" lon="105.728966"><ele>1120</ele><time>2026-07-19T02:52:33.000Z</time></trkpt>
        <trkpt lat="28.231368" lon="105.728956"><ele>1119</ele><time>2026-07-19T02:52:33.000Z</time></trkpt>
        <trkpt lat="28.231394" lon="105.72891"><ele>1118</ele><time>2026-07-19T02:52:33.000Z</time></trkpt>
        <trkpt lat="28.231432" lon="105.72888"><ele>1117</ele><time>2026-07-19T02:52:33.000Z</time></trkpt>
        <trkpt lat="28.231476" lon="105.728857"><ele>1115</ele><time>2026-07-19T02:52:33.000Z</time></trkpt>
        <trkpt lat="28.231519" lon="105.728841"><ele>1115</ele><time>2026-07-19T02:52:33.000Z</time></trkpt>
        <trkpt lat="28.231566" lon="105.728816"><ele>1114</ele><time>2026-07-19T02:52:33.000Z</time></trkpt>
        <trkpt lat="28.231609" lon="105.728802"><ele>1113</ele><time>2026-07-19T02:52:33.000Z</time></trkpt>
        <trkpt lat="28.231612" lon="105.728762"><ele>1109</ele><time>2026-07-19T02:52:33.000Z</time></trkpt>
        <trkpt lat="28.231656" lon="105.728747"><ele>1108</ele><time>2026-07-19T02:52:33.000Z</time></trkpt>
        <trkpt lat="28.231698" lon="105.728725"><ele>1107</ele><time>2026-07-19T02:52:33.000Z</time></trkpt>
        <trkpt lat="28.231736" lon="105.72868"><ele>1106</ele><time>2026-07-19T02:52:33.000Z</time></trkpt>
        <trkpt lat="28.231746" lon="105.728622"><ele>1106</ele><time>2026-07-19T02:52:33.000Z</time></trkpt>
        <trkpt lat="28.231761" lon="105.728562"><ele>1105</ele><time>2026-07-19T02:52:33.000Z</time></trkpt>
        <trkpt lat="28.231796" lon="105.728532"><ele>1103</ele><time>2026-07-19T02:52:33.000Z</time></trkpt>
        <trkpt lat="28.231817" lon="105.728478"><ele>1103</ele><time>2026-07-19T02:52:33.000Z</time></trkpt>
        <trkpt lat="28.231866" lon="105.72845"><ele>1103</ele><time>2026-07-19T02:52:33.000Z</time></trkpt>
        <trkpt lat="28.231902" lon="105.728418"><ele>1103</ele><time>2026-07-19T02:52:33.000Z</time></trkpt>
        <trkpt lat="28.231946" lon="105.728395"><ele>1102</ele><time>2026-07-19T02:52:33.000Z</time></trkpt>
        <trkpt lat="28.231999" lon="105.72841"><ele>1104</ele><time>2026-07-19T02:52:33.000Z</time></trkpt>
        <trkpt lat="28.23204" lon="105.72838"><ele>1104</ele><time>2026-07-19T02:52:33.000Z</time></trkpt>
        <trkpt lat="28.232084" lon="105.728365"><ele>1103</ele><time>2026-07-19T02:52:33.000Z</time></trkpt>
        <trkpt lat="28.232139" lon="105.728366"><ele>1103</ele><time>2026-07-19T02:52:33.000Z</time></trkpt>
        <trkpt lat="28.232192" lon="105.728368"><ele>1103</ele><time>2026-07-19T02:52:33.000Z</time></trkpt>
        <trkpt lat="28.232243" lon="105.728382"><ele>1102</ele><time>2026-07-19T02:52:33.000Z</time></trkpt>
        <trkpt lat="28.232295" lon="105.728393"><ele>1101</ele><time>2026-07-19T02:52:33.000Z</time></trkpt>
        <trkpt lat="28.232352" lon="105.728404"><ele>1101</ele><time>2026-07-19T02:52:33.000Z</time></trkpt>
        <trkpt lat="28.232403" lon="105.728411"><ele>1100</ele><time>2026-07-19T02:52:33.000Z</time></trkpt>
        <trkpt lat="28.232448" lon="105.728423"><ele>1099</ele><time>2026-07-19T02:52:33.000Z</time></trkpt>
        <trkpt lat="28.232496" lon="105.728416"><ele>1099</ele><time>2026-07-19T02:52:33.000Z</time></trkpt>
        <trkpt lat="28.232541" lon="105.728413"><ele>1099</ele><time>2026-07-19T02:52:33.000Z</time></trkpt>
        <trkpt lat="28.232593" lon="105.728403"><ele>1099</ele><time>2026-07-19T02:52:33.000Z</time></trkpt>
        <trkpt lat="28.232642" lon="105.728385"><ele>1098</ele><time>2026-07-19T02:52:33.000Z</time></trkpt>
        <trkpt lat="28.232686" lon="105.728371"><ele>1098</ele><time>2026-07-19T02:52:33.000Z</time></trkpt>
        <trkpt lat="28.232734" lon="105.728351"><ele>1098</ele><time>2026-07-19T02:52:33.000Z</time></trkpt>
        <trkpt lat="28.232784" lon="105.728327"><ele>1097</ele><time>2026-07-19T02:52:33.000Z</time></trkpt>
        <trkpt lat="28.232833" lon="105.728311"><ele>1096</ele><time>2026-07-19T02:52:33.000Z</time></trkpt>
        <trkpt lat="28.232882" lon="105.728292"><ele>1096</ele><time>2026-07-19T02:52:33.000Z</time></trkpt>
        <trkpt lat="28.232924" lon="105.728272"><ele>1096</ele><time>2026-07-19T02:52:33.000Z</time></trkpt>
        <trkpt lat="28.23297" lon="105.728255"><ele>1097</ele><time>2026-07-19T02:52:33.000Z</time></trkpt>
        <trkpt lat="28.233021" lon="105.728232"><ele>1097</ele><time>2026-07-19T02:52:33.000Z</time></trkpt>
        <trkpt lat="28.23307" lon="105.728215"><ele>1097</ele><time>2026-07-19T02:52:33.000Z</time></trkpt>
        <trkpt lat="28.233123" lon="105.728205"><ele>1097</ele><time>2026-07-19T02:52:33.000Z</time></trkpt>
        <trkpt lat="28.233168" lon="105.728197"><ele>1097</ele><time>2026-07-19T02:52:33.000Z</time></trkpt>
        <trkpt lat="28.233215" lon="105.728192"><ele>1096</ele><time>2026-07-19T02:52:33.000Z</time></trkpt>
        <trkpt lat="28.233263" lon="105.728177"><ele>1095</ele><time>2026-07-19T02:52:33.000Z</time></trkpt>
        <trkpt lat="28.233311" lon="105.72816"><ele>1095</ele><time>2026-07-19T02:52:33.000Z</time></trkpt>
        <trkpt lat="28.233361" lon="105.728157"><ele>1094</ele><time>2026-07-19T02:52:33.000Z</time></trkpt>
        <trkpt lat="28.233418" lon="105.728147"><ele>1093</ele><time>2026-07-19T02:52:33.000Z</time></trkpt>
        <trkpt lat="28.233465" lon="105.728137"><ele>1094</ele><time>2026-07-19T02:52:33.000Z</time></trkpt>
        <trkpt lat="28.233516" lon="105.728118"><ele>1093</ele><time>2026-07-19T02:52:33.000Z</time></trkpt>
        <trkpt lat="28.23356" lon="105.7281"><ele>1093</ele><time>2026-07-19T02:52:33.000Z</time></trkpt>
        <trkpt lat="28.233608" lon="105.728074"><ele>1093</ele><time>2026-07-19T02:52:33.000Z</time></trkpt>
        <trkpt lat="28.23365" lon="105.728049"><ele>1094</ele><time>2026-07-19T02:52:33.000Z</time></trkpt>
        <trkpt lat="28.233694" lon="105.72803"><ele>1094</ele><time>2026-07-19T02:52:33.000Z</time></trkpt>
        <trkpt lat="28.233743" lon="105.728008"><ele>1094</ele><time>2026-07-19T02:52:33.000Z</time></trkpt>
        <trkpt lat="28.233798" lon="105.727988"><ele>1093</ele><time>2026-07-19T02:52:33.000Z</time></trkpt>
        <trkpt lat="28.233844" lon="105.727974"><ele>1092</ele><time>2026-07-19T02:52:33.000Z</time></trkpt>
        <trkpt lat="28.233902" lon="105.727959"><ele>1092</ele><time>2026-07-19T02:52:33.000Z</time></trkpt>
        <trkpt lat="28.233957" lon="105.72795"><ele>1092</ele><time>2026-07-19T02:52:33.000Z</time></trkpt>
        <trkpt lat="28.234009" lon="105.727927"><ele>1090</ele><time>2026-07-19T02:52:33.000Z</time></trkpt>
        <trkpt lat="28.234051" lon="105.727896"><ele>1089</ele><time>2026-07-19T02:52:33.000Z</time></trkpt>
        <trkpt lat="28.23409" lon="105.72786"><ele>1088</ele><time>2026-07-19T02:52:33.000Z</time></trkpt>
        <trkpt lat="28.234138" lon="105.727824"><ele>1089</ele><time>2026-07-19T02:52:33.000Z</time></trkpt>
        <trkpt lat="28.234186" lon="105.727818"><ele>1087</ele><time>2026-07-19T02:52:33.000Z</time></trkpt>
        <trkpt lat="28.23424" lon="105.727826"><ele>1088</ele><time>2026-07-19T02:52:33.000Z</time></trkpt>
        <trkpt lat="28.234293" lon="105.727822"><ele>1088</ele><time>2026-07-19T02:52:33.000Z</time></trkpt>
        <trkpt lat="28.234344" lon="105.727813"><ele>1087</ele><time>2026-07-19T02:52:33.000Z</time></trkpt>
        <trkpt lat="28.234394" lon="105.727782"><ele>1086</ele><time>2026-07-19T02:52:33.000Z</time></trkpt>
        <trkpt lat="28.234442" lon="105.727759"><ele>1085</ele><time>2026-07-19T02:52:33.000Z</time></trkpt>
        <trkpt lat="28.234486" lon="105.727746"><ele>1084</ele><time>2026-07-19T02:52:33.000Z</time></trkpt>
        <trkpt lat="28.234537" lon="105.727725"><ele>1084</ele><time>2026-07-19T02:52:33.000Z</time></trkpt>
        <trkpt lat="28.23459" lon="105.72771"><ele>1084</ele><time>2026-07-19T02:52:33.000Z</time></trkpt>
        <trkpt lat="28.234641" lon="105.727683"><ele>1084</ele><time>2026-07-19T02:52:33.000Z</time></trkpt>
        <trkpt lat="28.234682" lon="105.727649"><ele>1084</ele><time>2026-07-19T02:52:33.000Z</time></trkpt>
        <trkpt lat="28.23473" lon="105.727628"><ele>1084</ele><time>2026-07-19T02:52:33.000Z</time></trkpt>
        <trkpt lat="28.234785" lon="105.72761"><ele>1084</ele><time>2026-07-19T02:52:33.000Z</time></trkpt>
        <trkpt lat="28.234845" lon="105.727617"><ele>1083</ele><time>2026-07-19T02:52:33.000Z</time></trkpt>
        <trkpt lat="28.23489" lon="105.727621"><ele>1083</ele><time>2026-07-19T02:52:33.000Z</time></trkpt>
        <trkpt lat="28.234937" lon="105.727617"><ele>1083</ele><time>2026-07-19T02:52:33.000Z</time></trkpt>
        <trkpt lat="28.234984" lon="105.727622"><ele>1082</ele><time>2026-07-19T02:52:33.000Z</time></trkpt>
        <trkpt lat="28.23503" lon="105.727613"><ele>1081</ele><time>2026-07-19T02:52:33.000Z</time></trkpt>
        <trkpt lat="28.235071" lon="105.727582"><ele>1081</ele><time>2026-07-19T02:52:33.000Z</time></trkpt>
        <trkpt lat="28.235114" lon="105.727542"><ele>1080</ele><time>2026-07-19T02:52:33.000Z</time></trkpt>
        <trkpt lat="28.235152" lon="105.727506"><ele>1079</ele><time>2026-07-19T02:52:33.000Z</time></trkpt>
        <trkpt lat="28.235207" lon="105.727494"><ele>1079</ele><time>2026-07-19T02:52:33.000Z</time></trkpt>
        <trkpt lat="28.235254" lon="105.727482"><ele>1079</ele><time>2026-07-19T02:52:33.000Z</time></trkpt>
        <trkpt lat="28.23529" lon="105.72744"><ele>1078</ele><time>2026-07-19T02:52:33.000Z</time></trkpt>
        <trkpt lat="28.235315" lon="105.727379"><ele>1077</ele><time>2026-07-19T02:52:33.000Z</time></trkpt>
        <trkpt lat="28.235332" lon="105.727329"><ele>1077</ele><time>2026-07-19T02:52:33.000Z</time></trkpt>
        <trkpt lat="28.235359" lon="105.727275"><ele>1078</ele><time>2026-07-19T02:52:33.000Z</time></trkpt>
        <trkpt lat="28.235386" lon="105.727231"><ele>1078</ele><time>2026-07-19T02:52:33.000Z</time></trkpt>
        <trkpt lat="28.235428" lon="105.727189"><ele>1077</ele><time>2026-07-19T02:52:33.000Z</time></trkpt>
        <trkpt lat="28.235474" lon="105.727151"><ele>1076</ele><time>2026-07-19T02:52:33.000Z</time></trkpt>
        <trkpt lat="28.235509" lon="105.72712"><ele>1076</ele><time>2026-07-19T02:52:33.000Z</time></trkpt>
        <trkpt lat="28.235555" lon="105.727106"><ele>1075</ele><time>2026-07-19T02:52:33.000Z</time></trkpt>
        <trkpt lat="28.235601" lon="105.72708"><ele>1074</ele><time>2026-07-19T02:52:33.000Z</time></trkpt>
        <trkpt lat="28.235647" lon="105.727059"><ele>1074</ele><time>2026-07-19T02:52:33.000Z</time></trkpt>
        <trkpt lat="28.235705" lon="105.727049"><ele>1075</ele><time>2026-07-19T02:52:33.000Z</time></trkpt>
        <trkpt lat="28.23575" lon="105.727031"><ele>1075</ele><time>2026-07-19T02:52:33.000Z</time></trkpt>
        <trkpt lat="28.235794" lon="105.727011"><ele>1075</ele><time>2026-07-19T02:52:33.000Z</time></trkpt>
        <trkpt lat="28.235844" lon="105.726984"><ele>1075</ele><time>2026-07-19T02:52:33.000Z</time></trkpt>
        <trkpt lat="28.235882" lon="105.726958"><ele>1074</ele><time>2026-07-19T02:52:33.000Z</time></trkpt>
        <trkpt lat="28.235919" lon="105.726925"><ele>1073</ele><time>2026-07-19T02:52:33.000Z</time></trkpt>
        <trkpt lat="28.235967" lon="105.726891"><ele>1073</ele><time>2026-07-19T02:52:33.000Z</time></trkpt>
        <trkpt lat="28.236013" lon="105.726862"><ele>1072</ele><time>2026-07-19T02:52:33.000Z</time></trkpt>
        <trkpt lat="28.236051" lon="105.726831"><ele>1072</ele><time>2026-07-19T02:52:33.000Z</time></trkpt>
        <trkpt lat="28.236087" lon="105.726801"><ele>1072</ele><time>2026-07-19T02:52:33.000Z</time></trkpt>
        <trkpt lat="28.23613" lon="105.726768"><ele>1072</ele><time>2026-07-19T02:52:33.000Z</time></trkpt>
        <trkpt lat="28.236173" lon="105.726725"><ele>1072</ele><time>2026-07-19T02:52:33.000Z</time></trkpt>
        <trkpt lat="28.236224" lon="105.726704"><ele>1072</ele><time>2026-07-19T02:52:33.000Z</time></trkpt>
        <trkpt lat="28.236276" lon="105.726692"><ele>1072</ele><time>2026-07-19T02:52:33.000Z</time></trkpt>
        <trkpt lat="28.236325" lon="105.726693"><ele>1072</ele><time>2026-07-19T02:52:33.000Z</time></trkpt>
        <trkpt lat="28.236379" lon="105.7267"><ele>1072</ele><time>2026-07-19T02:52:33.000Z</time></trkpt>
        <trkpt lat="28.23643" lon="105.726683"><ele>1071</ele><time>2026-07-19T02:52:33.000Z</time></trkpt>
        <trkpt lat="28.236501" lon="105.726671"><ele>1071</ele><time>2026-07-19T02:52:33.000Z</time></trkpt>
        <trkpt lat="28.236551" lon="105.726652"><ele>1071</ele><time>2026-07-19T02:52:33.000Z</time></trkpt>
        <trkpt lat="28.236605" lon="105.726624"><ele>1069</ele><time>2026-07-19T02:52:33.000Z</time></trkpt>
        <trkpt lat="28.236652" lon="105.726606"><ele>1068</ele><time>2026-07-19T02:52:33.000Z</time></trkpt>
        <trkpt lat="28.236703" lon="105.726579"><ele>1068</ele><time>2026-07-19T02:52:33.000Z</time></trkpt>
        <trkpt lat="28.236742" lon="105.726542"><ele>1070</ele><time>2026-07-19T02:52:33.000Z</time></trkpt>
        <trkpt lat="28.236777" lon="105.726508"><ele>1071</ele><time>2026-07-19T02:52:33.000Z</time></trkpt>
        <trkpt lat="28.236805" lon="105.726468"><ele>1071</ele><time>2026-07-19T02:52:33.000Z</time></trkpt>
        <trkpt lat="28.236828" lon="105.726423"><ele>1070</ele><time>2026-07-19T02:52:33.000Z</time></trkpt>
        <trkpt lat="28.236827" lon="105.726359"><ele>1068</ele><time>2026-07-19T02:52:33.000Z</time></trkpt>
        <trkpt lat="28.236864" lon="105.72633"><ele>1069</ele><time>2026-07-19T02:52:33.000Z</time></trkpt>
        <trkpt lat="28.236887" lon="105.726267"><ele>1069</ele><time>2026-07-19T02:52:33.000Z</time></trkpt>
        <trkpt lat="28.236917" lon="105.726218"><ele>1070</ele><time>2026-07-19T02:52:33.000Z</time></trkpt>
        <trkpt lat="28.236937" lon="105.726166"><ele>1070</ele><time>2026-07-19T02:52:33.000Z</time></trkpt>
        <trkpt lat="28.236936" lon="105.726106"><ele>1070</ele><time>2026-07-19T02:52:33.000Z</time></trkpt>
        <trkpt lat="28.236971" lon="105.726064"><ele>1069</ele><time>2026-07-19T02:52:33.000Z</time></trkpt>
        <trkpt lat="28.236971" lon="105.726017"><ele>1072</ele><time>2026-07-19T02:52:33.000Z</time></trkpt>
        <trkpt lat="28.236978" lon="105.725967"><ele>1073</ele><time>2026-07-19T02:52:33.000Z</time></trkpt>
        <trkpt lat="28.236984" lon="105.725911"><ele>1072</ele><time>2026-07-19T02:52:33.000Z</time></trkpt>
        <trkpt lat="28.237003" lon="105.725865"><ele>1073</ele><time>2026-07-19T02:52:33.000Z</time></trkpt>
        <trkpt lat="28.237012" lon="105.725836"><ele>1071</ele><time>2026-07-19T02:52:33.000Z</time></trkpt>
        <trkpt lat="28.237038" lon="105.725792"><ele>1071</ele><time>2026-07-19T02:52:33.000Z</time></trkpt>
        <trkpt lat="28.237047" lon="105.72574"><ele>1071</ele><time>2026-07-19T02:52:33.000Z</time></trkpt>
        <trkpt lat="28.237087" lon="105.725689"><ele>1070</ele><time>2026-07-19T02:52:33.000Z</time></trkpt>
        <trkpt lat="28.237111" lon="105.725646"><ele>1069</ele><time>2026-07-19T02:52:33.000Z</time></trkpt>
        <trkpt lat="28.237141" lon="105.725604"><ele>1070</ele><time>2026-07-19T02:52:33.000Z</time></trkpt>
        <trkpt lat="28.237165" lon="105.725553"><ele>1069</ele><time>2026-07-19T02:52:33.000Z</time></trkpt>
        <trkpt lat="28.23719" lon="105.7255"><ele>1068</ele><time>2026-07-19T02:52:33.000Z</time></trkpt>
        <trkpt lat="28.237219" lon="105.725459"><ele>1068</ele><time>2026-07-19T02:52:33.000Z</time></trkpt>
        <trkpt lat="28.237247" lon="105.72541"><ele>1067</ele><time>2026-07-19T02:52:33.000Z</time></trkpt>
        <trkpt lat="28.237293" lon="105.725388"><ele>1065</ele><time>2026-07-19T02:52:33.000Z</time></trkpt>
        <trkpt lat="28.23734" lon="105.725358"><ele>1064</ele><time>2026-07-19T02:52:33.000Z</time></trkpt>
        <trkpt lat="28.237381" lon="105.725335"><ele>1063</ele><time>2026-07-19T02:52:33.000Z</time></trkpt>
        <trkpt lat="28.237432" lon="105.725307"><ele>1062</ele><time>2026-07-19T02:52:33.000Z</time></trkpt>
        <trkpt lat="28.237481" lon="105.725289"><ele>1062</ele><time>2026-07-19T02:52:33.000Z</time></trkpt>
        <trkpt lat="28.237535" lon="105.725259"><ele>1061</ele><time>2026-07-19T02:52:33.000Z</time></trkpt>
        <trkpt lat="28.237585" lon="105.725235"><ele>1061</ele><time>2026-07-19T02:52:33.000Z</time></trkpt>
        <trkpt lat="28.237626" lon="105.725214"><ele>1062</ele><time>2026-07-19T02:52:33.000Z</time></trkpt>
        <trkpt lat="28.237676" lon="105.725197"><ele>1062</ele><time>2026-07-19T02:52:33.000Z</time></trkpt>
        <trkpt lat="28.237715" lon="105.725172"><ele>1062</ele><time>2026-07-19T02:52:33.000Z</time></trkpt>
        <trkpt lat="28.23776" lon="105.725146"><ele>1062</ele><time>2026-07-19T02:52:33.000Z</time></trkpt>
        <trkpt lat="28.237801" lon="105.725112"><ele>1062</ele><time>2026-07-19T02:52:33.000Z</time></trkpt>
        <trkpt lat="28.237845" lon="105.725074"><ele>1061</ele><time>2026-07-19T02:52:33.000Z</time></trkpt>
        <trkpt lat="28.237892" lon="105.725039"><ele>1061</ele><time>2026-07-19T02:52:33.000Z</time></trkpt>
        <trkpt lat="28.237932" lon="105.725002"><ele>1061</ele><time>2026-07-19T02:52:33.000Z</time></trkpt>
        <trkpt lat="28.237979" lon="105.72499"><ele>1061</ele><time>2026-07-19T02:52:33.000Z</time></trkpt>
        <trkpt lat="28.238024" lon="105.724998"><ele>1061</ele><time>2026-07-19T02:52:33.000Z</time></trkpt>
        <trkpt lat="28.23808" lon="105.724988"><ele>1059</ele><time>2026-07-19T02:52:33.000Z</time></trkpt>
        <trkpt lat="28.238129" lon="105.724962"><ele>1059</ele><time>2026-07-19T02:52:33.000Z</time></trkpt>
        <trkpt lat="28.238166" lon="105.724913"><ele>1058</ele><time>2026-07-19T02:52:33.000Z</time></trkpt>
        <trkpt lat="28.238206" lon="105.724876"><ele>1057</ele><time>2026-07-19T02:52:33.000Z</time></trkpt>
        <trkpt lat="28.238233" lon="105.724816"><ele>1056</ele><time>2026-07-19T02:52:33.000Z</time></trkpt>
        <trkpt lat="28.238255" lon="105.72476"><ele>1056</ele><time>2026-07-19T02:52:33.000Z</time></trkpt>
        <trkpt lat="28.238284" lon="105.724712"><ele>1055</ele><time>2026-07-19T02:52:33.000Z</time></trkpt>
        <trkpt lat="28.238322" lon="105.724669"><ele>1053</ele><time>2026-07-19T02:52:33.000Z</time></trkpt>
        <trkpt lat="28.23837" lon="105.724645"><ele>1053</ele><time>2026-07-19T02:52:33.000Z</time></trkpt>
        <trkpt lat="28.23841" lon="105.724607"><ele>1053</ele><time>2026-07-19T02:52:33.000Z</time></trkpt>
        <trkpt lat="28.238451" lon="105.724585"><ele>1054</ele><time>2026-07-19T02:52:33.000Z</time></trkpt>
        <trkpt lat="28.238493" lon="105.724561"><ele>1055</ele><time>2026-07-19T02:52:33.000Z</time></trkpt>
        <trkpt lat="28.238533" lon="105.724529"><ele>1055</ele><time>2026-07-19T02:52:33.000Z</time></trkpt>
        <trkpt lat="28.238573" lon="105.724488"><ele>1056</ele><time>2026-07-19T02:52:33.000Z</time></trkpt>
        <trkpt lat="28.238614" lon="105.724451"><ele>1055</ele><time>2026-07-19T02:52:33.000Z</time></trkpt>
        <trkpt lat="28.238655" lon="105.724413"><ele>1055</ele><time>2026-07-19T02:52:33.000Z</time></trkpt>
        <trkpt lat="28.23869" lon="105.724373"><ele>1055</ele><time>2026-07-19T02:52:33.000Z</time></trkpt>
        <trkpt lat="28.238728" lon="105.724338"><ele>1055</ele><time>2026-07-19T02:52:33.000Z</time></trkpt>
        <trkpt lat="28.238765" lon="105.72431"><ele>1056</ele><time>2026-07-19T02:52:33.000Z</time></trkpt>
        <trkpt lat="28.238807" lon="105.724278"><ele>1056</ele><time>2026-07-19T02:52:33.000Z</time></trkpt>
        <trkpt lat="28.238849" lon="105.724246"><ele>1056</ele><time>2026-07-19T02:52:33.000Z</time></trkpt>
        <trkpt lat="28.238894" lon="105.724211"><ele>1056</ele><time>2026-07-19T02:52:33.000Z</time></trkpt>
        <trkpt lat="28.238925" lon="105.724171"><ele>1055</ele><time>2026-07-19T02:52:33.000Z</time></trkpt>
        <trkpt lat="28.238957" lon="105.724129"><ele>1055</ele><time>2026-07-19T02:52:33.000Z</time></trkpt>
        <trkpt lat="28.238988" lon="105.724087"><ele>1056</ele><time>2026-07-19T02:52:33.000Z</time></trkpt>
        <trkpt lat="28.239023" lon="105.724046"><ele>1058</ele><time>2026-07-19T02:52:33.000Z</time></trkpt>
        <trkpt lat="28.239072" lon="105.724001"><ele>1057</ele><time>2026-07-19T02:52:33.000Z</time></trkpt>
        <trkpt lat="28.239114" lon="105.723962"><ele>1057</ele><time>2026-07-19T02:52:33.000Z</time></trkpt>
        <trkpt lat="28.239147" lon="105.723926"><ele>1056</ele><time>2026-07-19T02:52:33.000Z</time></trkpt>
        <trkpt lat="28.239194" lon="105.723896"><ele>1056</ele><time>2026-07-19T02:52:33.000Z</time></trkpt>
        <trkpt lat="28.239236" lon="105.723852"><ele>1056</ele><time>2026-07-19T02:52:33.000Z</time></trkpt>
        <trkpt lat="28.239284" lon="105.723836"><ele>1055</ele><time>2026-07-19T02:52:33.000Z</time></trkpt>
        <trkpt lat="28.239312" lon="105.723778"><ele>1055</ele><time>2026-07-19T02:52:33.000Z</time></trkpt>
        <trkpt lat="28.239345" lon="105.723725"><ele>1055</ele><time>2026-07-19T02:52:33.000Z</time></trkpt>
        <trkpt lat="28.239369" lon="105.723681"><ele>1055</ele><time>2026-07-19T02:52:33.000Z</time></trkpt>
        <trkpt lat="28.239404" lon="105.723631"><ele>1054</ele><time>2026-07-19T02:52:33.000Z</time></trkpt>
        <trkpt lat="28.239427" lon="105.723585"><ele>1053</ele><time>2026-07-19T02:52:33.000Z</time></trkpt>
        <trkpt lat="28.239441" lon="105.723531"><ele>1053</ele><time>2026-07-19T02:52:33.000Z</time></trkpt>
        <trkpt lat="28.239461" lon="105.723483"><ele>1052</ele><time>2026-07-19T02:52:33.000Z</time></trkpt>
        <trkpt lat="28.239485" lon="105.723436"><ele>1051</ele><time>2026-07-19T02:52:33.000Z</time></trkpt>
        <trkpt lat="28.239514" lon="105.723392"><ele>1049</ele><time>2026-07-19T02:52:33.000Z</time></trkpt>
        <trkpt lat="28.239538" lon="105.723348"><ele>1048</ele><time>2026-07-19T02:52:33.000Z</time></trkpt>
        <trkpt lat="28.239561" lon="105.723295"><ele>1048</ele><time>2026-07-19T02:52:33.000Z</time></trkpt>
        <trkpt lat="28.239597" lon="105.723244"><ele>1049</ele><time>2026-07-19T02:52:33.000Z</time></trkpt>
        <trkpt lat="28.239636" lon="105.723193"><ele>1049</ele><time>2026-07-19T02:52:33.000Z</time></trkpt>
        <trkpt lat="28.23966" lon="105.723143"><ele>1049</ele><time>2026-07-19T02:52:33.000Z</time></trkpt>
        <trkpt lat="28.239684" lon="105.723098"><ele>1049</ele><time>2026-07-19T02:52:33.000Z</time></trkpt>
        <trkpt lat="28.239714" lon="105.72305"><ele>1048</ele><time>2026-07-19T02:52:33.000Z</time></trkpt>
        <trkpt lat="28.239747" lon="105.723003"><ele>1047</ele><time>2026-07-19T02:52:33.000Z</time></trkpt>
        <trkpt lat="28.239777" lon="105.722959"><ele>1047</ele><time>2026-07-19T02:52:33.000Z</time></trkpt>
        <trkpt lat="28.239806" lon="105.722915"><ele>1047</ele><time>2026-07-19T02:52:33.000Z</time></trkpt>
        <trkpt lat="28.239838" lon="105.722862"><ele>1047</ele><time>2026-07-19T02:52:33.000Z</time></trkpt>
        <trkpt lat="28.239868" lon="105.722809"><ele>1047</ele><time>2026-07-19T02:52:33.000Z</time></trkpt>
        <trkpt lat="28.239876" lon="105.722759"><ele>1047</ele><time>2026-07-19T02:52:33.000Z</time></trkpt>
        <trkpt lat="28.239879" lon="105.722701"><ele>1045</ele><time>2026-07-19T02:52:33.000Z</time></trkpt>
        <trkpt lat="28.239887" lon="105.722638"><ele>1045</ele><time>2026-07-19T02:52:33.000Z</time></trkpt>
        <trkpt lat="28.23989" lon="105.722581"><ele>1046</ele><time>2026-07-19T02:52:33.000Z</time></trkpt>
        <trkpt lat="28.239896" lon="105.722526"><ele>1046</ele><time>2026-07-19T02:52:33.000Z</time></trkpt>
        <trkpt lat="28.239908" lon="105.722476"><ele>1046</ele><time>2026-07-19T02:52:33.000Z</time></trkpt>
        <trkpt lat="28.239921" lon="105.722416"><ele>1047</ele><time>2026-07-19T02:52:33.000Z</time></trkpt>
        <trkpt lat="28.239948" lon="105.722362"><ele>1047</ele><time>2026-07-19T02:52:33.000Z</time></trkpt>
        <trkpt lat="28.239984" lon="105.722316"><ele>1047</ele><time>2026-07-19T02:52:33.000Z</time></trkpt>
        <trkpt lat="28.240009" lon="105.72227"><ele>1048</ele><time>2026-07-19T02:52:33.000Z</time></trkpt>
        <trkpt lat="28.240031" lon="105.722215"><ele>1048</ele><time>2026-07-19T02:52:33.000Z</time></trkpt>
        <trkpt lat="28.240058" lon="105.722166"><ele>1048</ele><time>2026-07-19T02:52:33.000Z</time></trkpt>
        <trkpt lat="28.240092" lon="105.722117"><ele>1048</ele><time>2026-07-19T02:52:33.000Z</time></trkpt>
        <trkpt lat="28.24011" lon="105.722056"><ele>1047</ele><time>2026-07-19T02:52:33.000Z</time></trkpt>
        <trkpt lat="28.240106" lon="105.722003"><ele>1045</ele><time>2026-07-19T02:52:33.000Z</time></trkpt>
        <trkpt lat="28.240132" lon="105.721959"><ele>1044</ele><time>2026-07-19T02:52:33.000Z</time></trkpt>
        <trkpt lat="28.24018" lon="105.721919"><ele>1043</ele><time>2026-07-19T02:52:33.000Z</time></trkpt>
        <trkpt lat="28.24021" lon="105.721871"><ele>1042</ele><time>2026-07-19T02:52:33.000Z</time></trkpt>
        <trkpt lat="28.240245" lon="105.721835"><ele>1042</ele><time>2026-07-19T02:52:33.000Z</time></trkpt>
        <trkpt lat="28.240291" lon="105.721801"><ele>1043</ele><time>2026-07-19T02:52:33.000Z</time></trkpt>
        <trkpt lat="28.240333" lon="105.72176"><ele>1043</ele><time>2026-07-19T02:52:33.000Z</time></trkpt>
        <trkpt lat="28.240362" lon="105.721712"><ele>1043</ele><time>2026-07-19T02:52:33.000Z</time></trkpt>
        <trkpt lat="28.240406" lon="105.721667"><ele>1043</ele><time>2026-07-19T02:52:33.000Z</time></trkpt>
        <trkpt lat="28.240437" lon="105.721628"><ele>1043</ele><time>2026-07-19T02:52:33.000Z</time></trkpt>
        <trkpt lat="28.240474" lon="105.721589"><ele>1043</ele><time>2026-07-19T02:52:33.000Z</time></trkpt>
        <trkpt lat="28.24052" lon="105.721559"><ele>1043</ele><time>2026-07-19T02:52:33.000Z</time></trkpt>
        <trkpt lat="28.240555" lon="105.721525"><ele>1043</ele><time>2026-07-19T02:52:33.000Z</time></trkpt>
        <trkpt lat="28.240609" lon="105.721484"><ele>1043</ele><time>2026-07-19T02:52:33.000Z</time></trkpt>
        <trkpt lat="28.24063" lon="105.721429"><ele>1042</ele><time>2026-07-19T02:52:33.000Z</time></trkpt>
        <trkpt lat="28.240657" lon="105.721375"><ele>1042</ele><time>2026-07-19T02:52:33.000Z</time></trkpt>
        <trkpt lat="28.240702" lon="105.721336"><ele>1042</ele><time>2026-07-19T02:52:33.000Z</time></trkpt>
        <trkpt lat="28.240738" lon="105.721297"><ele>1042</ele><time>2026-07-19T02:52:33.000Z</time></trkpt>
        <trkpt lat="28.240761" lon="105.72125"><ele>1042</ele><time>2026-07-19T02:52:33.000Z</time></trkpt>
        <trkpt lat="28.240805" lon="105.721221"><ele>1041</ele><time>2026-07-19T02:52:33.000Z</time></trkpt>
        <trkpt lat="28.240849" lon="105.721192"><ele>1040</ele><time>2026-07-19T02:52:33.000Z</time></trkpt>
        <trkpt lat="28.24088" lon="105.721153"><ele>1040</ele><time>2026-07-19T02:52:33.000Z</time></trkpt>
        <trkpt lat="28.240919" lon="105.721107"><ele>1040</ele><time>2026-07-19T02:52:33.000Z</time></trkpt>
        <trkpt lat="28.240963" lon="105.721082"><ele>1040</ele><time>2026-07-19T02:52:33.000Z</time></trkpt>
        <trkpt lat="28.241001" lon="105.721053"><ele>1040</ele><time>2026-07-19T02:52:33.000Z</time></trkpt>
        <trkpt lat="28.241027" lon="105.721007"><ele>1040</ele><time>2026-07-19T02:52:33.000Z</time></trkpt>
        <trkpt lat="28.241054" lon="105.72095"><ele>1040</ele><time>2026-07-19T02:52:33.000Z</time></trkpt>
        <trkpt lat="28.241082" lon="105.7209"><ele>1040</ele><time>2026-07-19T02:52:33.000Z</time></trkpt>
        <trkpt lat="28.241111" lon="105.720847"><ele>1040</ele><time>2026-07-19T02:52:33.000Z</time></trkpt>
        <trkpt lat="28.24113" lon="105.720799"><ele>1040</ele><time>2026-07-19T02:52:33.000Z</time></trkpt>
        <trkpt lat="28.241144" lon="105.720749"><ele>1041</ele><time>2026-07-19T02:52:33.000Z</time></trkpt>
        <trkpt lat="28.241159" lon="105.720693"><ele>1041</ele><time>2026-07-19T02:52:33.000Z</time></trkpt>
        <trkpt lat="28.241173" lon="105.720631"><ele>1042</ele><time>2026-07-19T02:52:33.000Z</time></trkpt>
        <trkpt lat="28.241195" lon="105.720576"><ele>1043</ele><time>2026-07-19T02:52:33.000Z</time></trkpt>
        <trkpt lat="28.241216" lon="105.720527"><ele>1043</ele><time>2026-07-19T02:52:33.000Z</time></trkpt>
        <trkpt lat="28.241243" lon="105.720481"><ele>1043</ele><time>2026-07-19T02:52:33.000Z</time></trkpt>
        <trkpt lat="28.241272" lon="105.72044"><ele>1044</ele><time>2026-07-19T02:52:33.000Z</time></trkpt>
        <trkpt lat="28.241307" lon="105.720403"><ele>1044</ele><time>2026-07-19T02:52:33.000Z</time></trkpt>
        <trkpt lat="28.241358" lon="105.720371"><ele>1044</ele><time>2026-07-19T02:52:33.000Z</time></trkpt>
        <trkpt lat="28.241409" lon="105.720355"><ele>1045</ele><time>2026-07-19T02:52:33.000Z</time></trkpt>
        <trkpt lat="28.241455" lon="105.720352"><ele>1045</ele><time>2026-07-19T02:52:33.000Z</time></trkpt>
        <trkpt lat="28.241502" lon="105.720336"><ele>1045</ele><time>2026-07-19T02:52:33.000Z</time></trkpt>
        <trkpt lat="28.241543" lon="105.720295"><ele>1044</ele><time>2026-07-19T02:52:33.000Z</time></trkpt>
        <trkpt lat="28.241571" lon="105.720238"><ele>1045</ele><time>2026-07-19T02:52:33.000Z</time></trkpt>
        <trkpt lat="28.241624" lon="105.720186"><ele>1045</ele><time>2026-07-19T02:52:33.000Z</time></trkpt>
        <trkpt lat="28.241661" lon="105.720147"><ele>1044</ele><time>2026-07-19T02:52:33.000Z</time></trkpt>
        <trkpt lat="28.241688" lon="105.720096"><ele>1043</ele><time>2026-07-19T02:52:33.000Z</time></trkpt>
        <trkpt lat="28.241717" lon="105.720045"><ele>1043</ele><time>2026-07-19T02:52:33.000Z</time></trkpt>
        <trkpt lat="28.241725" lon="105.719982"><ele>1043</ele><time>2026-07-19T02:52:33.000Z</time></trkpt>
        <trkpt lat="28.241735" lon="105.719927"><ele>1043</ele><time>2026-07-19T02:52:33.000Z</time></trkpt>
        <trkpt lat="28.241751" lon="105.719865"><ele>1043</ele><time>2026-07-19T02:52:33.000Z</time></trkpt>
        <trkpt lat="28.24177" lon="105.719812"><ele>1042</ele><time>2026-07-19T02:52:33.000Z</time></trkpt>
        <trkpt lat="28.241787" lon="105.719759"><ele>1041</ele><time>2026-07-19T02:52:33.000Z</time></trkpt>
        <trkpt lat="28.241811" lon="105.719701"><ele>1040</ele><time>2026-07-19T02:52:33.000Z</time></trkpt>
        <trkpt lat="28.24185" lon="105.719671"><ele>1037</ele><time>2026-07-19T02:52:33.000Z</time></trkpt>
        <trkpt lat="28.241901" lon="105.719653"><ele>1037</ele><time>2026-07-19T02:52:33.000Z</time></trkpt>
        <trkpt lat="28.241937" lon="105.719622"><ele>1036</ele><time>2026-07-19T02:52:33.000Z</time></trkpt>
        <trkpt lat="28.241977" lon="105.719591"><ele>1036</ele><time>2026-07-19T02:52:33.000Z</time></trkpt>
        <trkpt lat="28.242017" lon="105.719544"><ele>1035</ele><time>2026-07-19T02:52:33.000Z</time></trkpt>
        <trkpt lat="28.242047" lon="105.719498"><ele>1034</ele><time>2026-07-19T02:52:33.000Z</time></trkpt>
        <trkpt lat="28.242062" lon="105.719447"><ele>1033</ele><time>2026-07-19T02:52:33.000Z</time></trkpt>
        <trkpt lat="28.242073" lon="105.719397"><ele>1032</ele><time>2026-07-19T02:52:33.000Z</time></trkpt>
        <trkpt lat="28.242095" lon="105.719348"><ele>1032</ele><time>2026-07-19T02:52:33.000Z</time></trkpt>
        <trkpt lat="28.242118" lon="105.719298"><ele>1032</ele><time>2026-07-19T02:52:33.000Z</time></trkpt>
        <trkpt lat="28.242138" lon="105.719251"><ele>1032</ele><time>2026-07-19T02:52:33.000Z</time></trkpt>
        <trkpt lat="28.242172" lon="105.719201"><ele>1032</ele><time>2026-07-19T02:52:33.000Z</time></trkpt>
        <trkpt lat="28.242206" lon="105.71916"><ele>1032</ele><time>2026-07-19T02:52:33.000Z</time></trkpt>
        <trkpt lat="28.242242" lon="105.719122"><ele>1031</ele><time>2026-07-19T02:52:33.000Z</time></trkpt>
        <trkpt lat="28.242282" lon="105.719084"><ele>1031</ele><time>2026-07-19T02:52:33.000Z</time></trkpt>
        <trkpt lat="28.242332" lon="105.719053"><ele>1032</ele><time>2026-07-19T02:52:33.000Z</time></trkpt>
        <trkpt lat="28.242379" lon="105.719022"><ele>1031</ele><time>2026-07-19T02:52:33.000Z</time></trkpt>
        <trkpt lat="28.242431" lon="105.718992"><ele>1031</ele><time>2026-07-19T02:52:33.000Z</time></trkpt>
        <trkpt lat="28.242476" lon="105.718956"><ele>1031</ele><time>2026-07-19T02:52:33.000Z</time></trkpt>
        <trkpt lat="28.242518" lon="105.718925"><ele>1031</ele><time>2026-07-19T02:52:33.000Z</time></trkpt>
        <trkpt lat="28.242557" lon="105.718883"><ele>1031</ele><time>2026-07-19T02:52:33.000Z</time></trkpt>
        <trkpt lat="28.24258" lon="105.718836"><ele>1031</ele><time>2026-07-19T02:52:33.000Z</time></trkpt>
        <trkpt lat="28.242608" lon="105.718776"><ele>1029</ele><time>2026-07-19T02:52:33.000Z</time></trkpt>
        <trkpt lat="28.242632" lon="105.718728"><ele>1029</ele><time>2026-07-19T02:52:33.000Z</time></trkpt>
        <trkpt lat="28.242663" lon="105.718686"><ele>1029</ele><time>2026-07-19T02:52:33.000Z</time></trkpt>
        <trkpt lat="28.242693" lon="105.718648"><ele>1028</ele><time>2026-07-19T02:52:33.000Z</time></trkpt>
        <trkpt lat="28.242718" lon="105.718605"><ele>1028</ele><time>2026-07-19T02:52:33.000Z</time></trkpt>
        <trkpt lat="28.242747" lon="105.718564"><ele>1028</ele><time>2026-07-19T02:52:33.000Z</time></trkpt>
        <trkpt lat="28.242779" lon="105.718528"><ele>1027</ele><time>2026-07-19T02:52:33.000Z</time></trkpt>
        <trkpt lat="28.242815" lon="105.718476"><ele>1027</ele><time>2026-07-19T02:52:33.000Z</time></trkpt>
        <trkpt lat="28.242842" lon="105.718432"><ele>1027</ele><time>2026-07-19T02:52:33.000Z</time></trkpt>
        <trkpt lat="28.242862" lon="105.718377"><ele>1027</ele><time>2026-07-19T02:52:33.000Z</time></trkpt>
        <trkpt lat="28.242891" lon="105.718327"><ele>1027</ele><time>2026-07-19T02:52:33.000Z</time></trkpt>
        <trkpt lat="28.242927" lon="105.718285"><ele>1025</ele><time>2026-07-19T02:52:33.000Z</time></trkpt>
        <trkpt lat="28.24296" lon="105.71824"><ele>1025</ele><time>2026-07-19T02:52:33.000Z</time></trkpt>
        <trkpt lat="28.242994" lon="105.718205"><ele>1025</ele><time>2026-07-19T02:52:33.000Z</time></trkpt>
        <trkpt lat="28.24304" lon="105.718174"><ele>1025</ele><time>2026-07-19T02:52:33.000Z</time></trkpt>
        <trkpt lat="28.243081" lon="105.718151"><ele>1025</ele><time>2026-07-19T02:52:33.000Z</time></trkpt>
        <trkpt lat="28.243134" lon="105.718124"><ele>1025</ele><time>2026-07-19T02:52:33.000Z</time></trkpt>
        <trkpt lat="28.243184" lon="105.718107"><ele>1025</ele><time>2026-07-19T02:52:33.000Z</time></trkpt>
        <trkpt lat="28.243227" lon="105.718099"><ele>1026</ele><time>2026-07-19T02:52:33.000Z</time></trkpt>
        <trkpt lat="28.243275" lon="105.718064"><ele>1027</ele><time>2026-07-19T02:52:33.000Z</time></trkpt>
        <trkpt lat="28.243323" lon="105.718066"><ele>1026</ele><time>2026-07-19T02:52:33.000Z</time></trkpt>
        <trkpt lat="28.243379" lon="105.718066"><ele>1026</ele><time>2026-07-19T02:52:33.000Z</time></trkpt>
        <trkpt lat="28.243424" lon="105.718055"><ele>1026</ele><time>2026-07-19T02:52:33.000Z</time></trkpt>
        <trkpt lat="28.243468" lon="105.718039"><ele>1026</ele><time>2026-07-19T02:52:33.000Z</time></trkpt>
        <trkpt lat="28.24352" lon="105.718029"><ele>1027</ele><time>2026-07-19T02:52:33.000Z</time></trkpt>
        <trkpt lat="28.243566" lon="105.71801"><ele>1027</ele><time>2026-07-19T02:52:33.000Z</time></trkpt>
        <trkpt lat="28.243604" lon="105.717975"><ele>1027</ele><time>2026-07-19T02:52:33.000Z</time></trkpt>
        <trkpt lat="28.243655" lon="105.71795"><ele>1027</ele><time>2026-07-19T02:52:33.000Z</time></trkpt>
        <trkpt lat="28.243699" lon="105.71792"><ele>1027</ele><time>2026-07-19T02:52:33.000Z</time></trkpt>
        <trkpt lat="28.243743" lon="105.717883"><ele>1028</ele><time>2026-07-19T02:52:33.000Z</time></trkpt>
        <trkpt lat="28.243781" lon="105.717841"><ele>1027</ele><time>2026-07-19T02:52:33.000Z</time></trkpt>
        <trkpt lat="28.243812" lon="105.717797"><ele>1028</ele><time>2026-07-19T02:52:33.000Z</time></trkpt>
        <trkpt lat="28.243869" lon="105.717785"><ele>1028</ele><time>2026-07-19T02:52:33.000Z</time></trkpt>
        <trkpt lat="28.243916" lon="105.717793"><ele>1027</ele><time>2026-07-19T02:52:33.000Z</time></trkpt>
        <trkpt lat="28.243961" lon="105.717828"><ele>1028</ele><time>2026-07-19T02:52:33.000Z</time></trkpt>
        <trkpt lat="28.244011" lon="105.717852"><ele>1028</ele><time>2026-07-19T02:52:33.000Z</time></trkpt>
        <trkpt lat="28.244056" lon="105.717866"><ele>1028</ele><time>2026-07-19T02:52:33.000Z</time></trkpt>
        <trkpt lat="28.2441" lon="105.717896"><ele>1028</ele><time>2026-07-19T02:52:33.000Z</time></trkpt>
        <trkpt lat="28.244145" lon="105.717936"><ele>1028</ele><time>2026-07-19T02:52:33.000Z</time></trkpt>
        <trkpt lat="28.24419" lon="105.71795"><ele>1028</ele><time>2026-07-19T02:52:33.000Z</time></trkpt>
        <trkpt lat="28.244237" lon="105.717957"><ele>1028</ele><time>2026-07-19T02:52:33.000Z</time></trkpt>
        <trkpt lat="28.244294" lon="105.717961"><ele>1028</ele><time>2026-07-19T02:52:33.000Z</time></trkpt>
        <trkpt lat="28.244344" lon="105.717951"><ele>1027</ele><time>2026-07-19T02:52:33.000Z</time></trkpt>
        <trkpt lat="28.24439" lon="105.717934"><ele>1027</ele><time>2026-07-19T02:52:33.000Z</time></trkpt>
        <trkpt lat="28.244442" lon="105.717929"><ele>1027</ele><time>2026-07-19T02:52:33.000Z</time></trkpt>
        <trkpt lat="28.244488" lon="105.717949"><ele>1027</ele><time>2026-07-19T02:52:33.000Z</time></trkpt>
        <trkpt lat="28.244538" lon="105.717969"><ele>1027</ele><time>2026-07-19T02:52:33.000Z</time></trkpt>
        <trkpt lat="28.244573" lon="105.717935"><ele>1026</ele><time>2026-07-19T02:52:33.000Z</time></trkpt>
        <trkpt lat="28.244614" lon="105.71797"><ele>1026</ele><time>2026-07-19T02:52:33.000Z</time></trkpt>
        <trkpt lat="28.24466" lon="105.717968"><ele>1026</ele><time>2026-07-19T02:52:33.000Z</time></trkpt>
        <trkpt lat="28.244704" lon="105.717952"><ele>1026</ele><time>2026-07-19T02:52:33.000Z</time></trkpt>
        <trkpt lat="28.244751" lon="105.717935"><ele>1026</ele><time>2026-07-19T02:52:33.000Z</time></trkpt>
        <trkpt lat="28.244796" lon="105.717965"><ele>1027</ele><time>2026-07-19T02:52:33.000Z</time></trkpt>
        <trkpt lat="28.244808" lon="105.718025"><ele>1027</ele><time>2026-07-19T02:52:33.000Z</time></trkpt>
        <trkpt lat="28.244811" lon="105.718084"><ele>1026</ele><time>2026-07-19T02:52:33.000Z</time></trkpt>
        <trkpt lat="28.244814" lon="105.718152"><ele>1026</ele><time>2026-07-19T02:52:33.000Z</time></trkpt>
        <trkpt lat="28.244834" lon="105.718198"><ele>1026</ele><time>2026-07-19T02:52:33.000Z</time></trkpt>
        <trkpt lat="28.244882" lon="105.718208"><ele>1026</ele><time>2026-07-19T02:52:33.000Z</time></trkpt>
        <trkpt lat="28.244929" lon="105.718197"><ele>1026</ele><time>2026-07-19T02:52:33.000Z</time></trkpt>
        <trkpt lat="28.244978" lon="105.718191"><ele>1026</ele><time>2026-07-19T02:52:33.000Z</time></trkpt>
        <trkpt lat="28.245028" lon="105.71818"><ele>1026</ele><time>2026-07-19T02:52:33.000Z</time></trkpt>
        <trkpt lat="28.245089" lon="105.718155"><ele>1026</ele><time>2026-07-19T02:52:33.000Z</time></trkpt>
        <trkpt lat="28.245122" lon="105.718098"><ele>1026</ele><time>2026-07-19T02:52:33.000Z</time></trkpt>
        <trkpt lat="28.245148" lon="105.718039"><ele>1027</ele><time>2026-07-19T02:52:33.000Z</time></trkpt>
        <trkpt lat="28.245187" lon="105.718003"><ele>1027</ele><time>2026-07-19T02:52:33.000Z</time></trkpt>
        <trkpt lat="28.245233" lon="105.717975"><ele>1027</ele><time>2026-07-19T02:52:33.000Z</time></trkpt>
        <trkpt lat="28.245279" lon="105.717985"><ele>1026</ele><time>2026-07-19T02:52:33.000Z</time></trkpt>
        <trkpt lat="28.245326" lon="105.717977"><ele>1027</ele><time>2026-07-19T02:52:33.000Z</time></trkpt>
        <trkpt lat="28.245379" lon="105.717974"><ele>1027</ele><time>2026-07-19T02:52:33.000Z</time></trkpt>
        <trkpt lat="28.245427" lon="105.717979"><ele>1027</ele><time>2026-07-19T02:52:33.000Z</time></trkpt>
        <trkpt lat="28.245476" lon="105.717977"><ele>1027</ele><time>2026-07-19T02:52:33.000Z</time></trkpt>
        <trkpt lat="28.245527" lon="105.717959"><ele>1027</ele><time>2026-07-19T02:52:33.000Z</time></trkpt>
        <trkpt lat="28.245573" lon="105.717935"><ele>1027</ele><time>2026-07-19T02:52:33.000Z</time></trkpt>
        <trkpt lat="28.245617" lon="105.717901"><ele>1028</ele><time>2026-07-19T02:52:33.000Z</time></trkpt>
        <trkpt lat="28.245652" lon="105.717859"><ele>1027</ele><time>2026-07-19T02:52:33.000Z</time></trkpt>
        <trkpt lat="28.24568" lon="105.717819"><ele>1027</ele><time>2026-07-19T02:52:33.000Z</time></trkpt>
        <trkpt lat="28.245711" lon="105.717766"><ele>1026</ele><time>2026-07-19T02:52:33.000Z</time></trkpt>
        <trkpt lat="28.245738" lon="105.717707"><ele>1026</ele><time>2026-07-19T02:52:33.000Z</time></trkpt>
        <trkpt lat="28.245755" lon="105.717656"><ele>1026</ele><time>2026-07-19T02:52:33.000Z</time></trkpt>
        <trkpt lat="28.24577" lon="105.717607"><ele>1026</ele><time>2026-07-19T02:52:33.000Z</time></trkpt>
        <trkpt lat="28.245786" lon="105.717545"><ele>1025</ele><time>2026-07-19T02:52:33.000Z</time></trkpt>
        <trkpt lat="28.245799" lon="105.717485"><ele>1025</ele><time>2026-07-19T02:52:33.000Z</time></trkpt>
        <trkpt lat="28.24581" lon="105.717425"><ele>1024</ele><time>2026-07-19T02:52:33.000Z</time></trkpt>
        <trkpt lat="28.245827" lon="105.717364"><ele>1024</ele><time>2026-07-19T02:52:33.000Z</time></trkpt>
        <trkpt lat="28.245849" lon="105.717302"><ele>1024</ele><time>2026-07-19T02:52:33.000Z</time></trkpt>
        <trkpt lat="28.245879" lon="105.717249"><ele>1024</ele><time>2026-07-19T02:52:33.000Z</time></trkpt>
        <trkpt lat="28.245911" lon="105.717198"><ele>1024</ele><time>2026-07-19T02:52:33.000Z</time></trkpt>
        <trkpt lat="28.245941" lon="105.717145"><ele>1025</ele><time>2026-07-19T02:52:33.000Z</time></trkpt>
        <trkpt lat="28.245966" lon="105.717094"><ele>1025</ele><time>2026-07-19T02:52:33.000Z</time></trkpt>
        <trkpt lat="28.24599" lon="105.717046"><ele>1025</ele><time>2026-07-19T02:52:33.000Z</time></trkpt>
        <trkpt lat="28.246022" lon="105.716995"><ele>1024</ele><time>2026-07-19T02:52:33.000Z</time></trkpt>
        <trkpt lat="28.246054" lon="105.716951"><ele>1025</ele><time>2026-07-19T02:52:33.000Z</time></trkpt>
        <trkpt lat="28.246087" lon="105.716907"><ele>1026</ele><time>2026-07-19T02:52:33.000Z</time></trkpt>
        <trkpt lat="28.246118" lon="105.716856"><ele>1024</ele><time>2026-07-19T02:52:33.000Z</time></trkpt>
        <trkpt lat="28.2461519" lon="105.7167618"><ele>1033</ele><time>2026-07-19T02:52:33.000Z</time></trkpt>
        <trkpt lat="28.246238" lon="105.716597"><ele>1033</ele><time>2026-07-19T02:52:33.000Z</time></trkpt>
        <trkpt lat="28.246271" lon="105.716545"><ele>1033</ele><time>2026-07-19T02:52:33.000Z</time></trkpt>
        <trkpt lat="28.246301" lon="105.716503"><ele>1032</ele><time>2026-07-19T02:52:33.000Z</time></trkpt>
        <trkpt lat="28.24633" lon="105.716455"><ele>1032</ele><time>2026-07-19T02:52:33.000Z</time></trkpt>
        <trkpt lat="28.246357" lon="105.716407"><ele>1032</ele><time>2026-07-19T02:52:33.000Z</time></trkpt>
        <trkpt lat="28.246382" lon="105.716362"><ele>1031</ele><time>2026-07-19T02:52:33.000Z</time></trkpt>
        <trkpt lat="28.246414" lon="105.716311"><ele>1032</ele><time>2026-07-19T02:52:33.000Z</time></trkpt>
        <trkpt lat="28.246458" lon="105.71625"><ele>1031</ele><time>2026-07-19T02:52:33.000Z</time></trkpt>
        <trkpt lat="28.246496" lon="105.716205"><ele>1032</ele><time>2026-07-19T02:52:33.000Z</time></trkpt>
        <trkpt lat="28.246555" lon="105.716157"><ele>1033</ele><time>2026-07-19T02:52:33.000Z</time></trkpt>
        <trkpt lat="28.246604" lon="105.716112"><ele>1032</ele><time>2026-07-19T02:52:33.000Z</time></trkpt>
        <trkpt lat="28.246653" lon="105.716069"><ele>1032</ele><time>2026-07-19T02:52:33.000Z</time></trkpt>
        <trkpt lat="28.246706" lon="105.716025"><ele>1032</ele><time>2026-07-19T02:52:33.000Z</time></trkpt>
        <trkpt lat="28.246757" lon="105.715982"><ele>1032</ele><time>2026-07-19T02:52:33.000Z</time></trkpt>
        <trkpt lat="28.246815" lon="105.71594"><ele>1031</ele><time>2026-07-19T02:52:33.000Z</time></trkpt>
        <trkpt lat="28.246873" lon="105.7159"><ele>1031</ele><time>2026-07-19T02:52:33.000Z</time></trkpt>
        <trkpt lat="28.246948" lon="105.715859"><ele>1030</ele><time>2026-07-19T02:52:33.000Z</time></trkpt>
        <trkpt lat="28.24699" lon="105.715841"><ele>1030</ele><time>2026-07-19T02:52:33.000Z</time></trkpt>
        <trkpt lat="28.247033" lon="105.715822"><ele>1030</ele><time>2026-07-19T02:52:33.000Z</time></trkpt>
        <trkpt lat="28.247081" lon="105.715805"><ele>1030</ele><time>2026-07-19T02:52:33.000Z</time></trkpt>
        <trkpt lat="28.247134" lon="105.715786"><ele>1030</ele><time>2026-07-19T02:52:33.000Z</time></trkpt>
        <trkpt lat="28.247188" lon="105.715769"><ele>1030</ele><time>2026-07-19T02:52:33.000Z</time></trkpt>
        <trkpt lat="28.247243" lon="105.715751"><ele>1030</ele><time>2026-07-19T02:52:33.000Z</time></trkpt>
        <trkpt lat="28.247302" lon="105.715731"><ele>1030</ele><time>2026-07-19T02:52:33.000Z</time></trkpt>
        <trkpt lat="28.247362" lon="105.715713"><ele>1030</ele><time>2026-07-19T02:52:33.000Z</time></trkpt>
        <trkpt lat="28.2474314" lon="105.715705"><ele>1030</ele><time>2026-07-19T02:52:33.000Z</time></trkpt>
        <trkpt lat="28.2474881" lon="105.715709"><ele>1030</ele><time>2026-07-19T02:52:33.000Z</time></trkpt>
        <trkpt lat="28.2475814" lon="105.715697"><ele>1029</ele><time>2026-07-19T02:52:33.000Z</time></trkpt>
        <trkpt lat="28.24765" lon="105.7156916"><ele>1030</ele><time>2026-07-19T02:52:33.000Z</time></trkpt>
        <trkpt lat="28.2477268" lon="105.7156688"><ele>1030</ele><time>2026-07-19T02:52:33.000Z</time></trkpt>
        <trkpt lat="28.2478142" lon="105.7156648"><ele>1030</ele><time>2026-07-19T02:52:33.000Z</time></trkpt>
        <trkpt lat="28.2479571" lon="105.7156353"><ele>1030</ele><time>2026-07-19T02:52:33.000Z</time></trkpt>
        <trkpt lat="28.2480646" lon="105.7156138"><ele>1030</ele><time>2026-07-19T02:52:33.000Z</time></trkpt>
        <trkpt lat="28.2481308" lon="105.7156058"><ele>1030</ele><time>2026-07-19T02:52:33.000Z</time></trkpt>
        <trkpt lat="28.2482454" lon="105.7155883"><ele>1031</ele><time>2026-07-19T02:52:33.000Z</time></trkpt>
        <trkpt lat="28.2482938" lon="105.7156165"><ele>1031</ele><time>2026-07-19T02:52:33.000Z</time></trkpt>
        <trkpt lat="28.248347" lon="105.7156487"><ele>1032</ele><time>2026-07-19T02:52:33.000Z</time></trkpt>
        <trkpt lat="28.248399" lon="105.7156889"><ele>1032</ele><time>2026-07-19T02:52:33.000Z</time></trkpt>
        <trkpt lat="28.2484403" lon="105.7157198"><ele>1032</ele><time>2026-07-19T02:52:33.000Z</time></trkpt>
        <trkpt lat="28.248484" lon="105.7157533"><ele>1032</ele><time>2026-07-19T02:52:33.000Z</time></trkpt>
        <trkpt lat="28.2485124" lon="105.7157922"><ele>1032</ele><time>2026-07-19T02:52:33.000Z</time></trkpt>
        <trkpt lat="28.2485502" lon="105.7158592"><ele>1032</ele><time>2026-07-19T02:52:33.000Z</time></trkpt>
        <trkpt lat="28.248567" lon="105.715917"><ele>1031</ele><time>2026-07-19T02:52:33.000Z</time></trkpt>
        <trkpt lat="28.248606" lon="105.715985"><ele>1031</ele><time>2026-07-19T02:52:33.000Z</time></trkpt>
        <trkpt lat="28.248625" lon="105.716067"><ele>1031</ele><time>2026-07-19T02:52:33.000Z</time></trkpt>
        <trkpt lat="28.24865" lon="105.716145"><ele>1032</ele><time>2026-07-19T02:52:33.000Z</time></trkpt>
        <trkpt lat="28.248672" lon="105.716229"><ele>1031</ele><time>2026-07-19T02:52:33.000Z</time></trkpt>
        <trkpt lat="28.248688" lon="105.716307"><ele>1031</ele><time>2026-07-19T02:52:33.000Z</time></trkpt>
        <trkpt lat="28.248685" lon="105.716381"><ele>1031</ele><time>2026-07-19T02:52:33.000Z</time></trkpt>
        <trkpt lat="28.248674" lon="105.716455"><ele>1031</ele><time>2026-07-19T02:52:33.000Z</time></trkpt>
        <trkpt lat="28.248675" lon="105.716522"><ele>1031</ele><time>2026-07-19T02:52:33.000Z</time></trkpt>
        <trkpt lat="28.248673" lon="105.716586"><ele>1032</ele><time>2026-07-19T02:52:33.000Z</time></trkpt>
        <trkpt lat="28.248668" lon="105.716649"><ele>1031</ele><time>2026-07-19T02:52:33.000Z</time></trkpt>
        <trkpt lat="28.248666" lon="105.716714"><ele>1031</ele><time>2026-07-19T02:52:33.000Z</time></trkpt>
        <trkpt lat="28.248672" lon="105.716783"><ele>1032</ele><time>2026-07-19T02:52:33.000Z</time></trkpt>
        <trkpt lat="28.248678" lon="105.716853"><ele>1032</ele><time>2026-07-19T02:52:33.000Z</time></trkpt>
        <trkpt lat="28.248686" lon="105.716925"><ele>1032</ele><time>2026-07-19T02:52:33.000Z</time></trkpt>
        <trkpt lat="28.248694" lon="105.716998"><ele>1032</ele><time>2026-07-19T02:52:33.000Z</time></trkpt>
        <trkpt lat="28.248701" lon="105.717074"><ele>1032</ele><time>2026-07-19T02:52:33.000Z</time></trkpt>
        <trkpt lat="28.248706" lon="105.717148"><ele>1032</ele><time>2026-07-19T02:52:33.000Z</time></trkpt>
        <trkpt lat="28.248713" lon="105.717223"><ele>1032</ele><time>2026-07-19T02:52:33.000Z</time></trkpt>
        <trkpt lat="28.248723" lon="105.717296"><ele>1032</ele><time>2026-07-19T02:52:33.000Z</time></trkpt>
        <trkpt lat="28.248738" lon="105.717361"><ele>1031</ele><time>2026-07-19T02:52:33.000Z</time></trkpt>
        <trkpt lat="28.248748" lon="105.71743"><ele>1031</ele><time>2026-07-19T02:52:33.000Z</time></trkpt>
        <trkpt lat="28.248764" lon="105.717494"><ele>1031</ele><time>2026-07-19T02:52:33.000Z</time></trkpt>
        <trkpt lat="28.248779" lon="105.717562"><ele>1031</ele><time>2026-07-19T02:52:33.000Z</time></trkpt>
        <trkpt lat="28.248796" lon="105.717632"><ele>1030</ele><time>2026-07-19T02:52:33.000Z</time></trkpt>
        <trkpt lat="28.248815" lon="105.7177"><ele>1030</ele><time>2026-07-19T02:52:33.000Z</time></trkpt>
        <trkpt lat="28.248832" lon="105.717774"><ele>1030</ele><time>2026-07-19T02:52:33.000Z</time></trkpt>
        <trkpt lat="28.24885" lon="105.717846"><ele>1030</ele><time>2026-07-19T02:52:33.000Z</time></trkpt>
        <trkpt lat="28.248865" lon="105.717916"><ele>1030</ele><time>2026-07-19T02:52:33.000Z</time></trkpt>
        <trkpt lat="28.248881" lon="105.71799"><ele>1031</ele><time>2026-07-19T02:52:33.000Z</time></trkpt>
        <trkpt lat="28.248891" lon="105.718067"><ele>1031</ele><time>2026-07-19T02:52:33.000Z</time></trkpt>
        <trkpt lat="28.248896" lon="105.718141"><ele>1032</ele><time>2026-07-19T02:52:33.000Z</time></trkpt>
        <trkpt lat="28.248905" lon="105.718219"><ele>1034</ele><time>2026-07-19T02:52:33.000Z</time></trkpt>
        <trkpt lat="28.248911" lon="105.718298"><ele>1034</ele><time>2026-07-19T02:52:33.000Z</time></trkpt>
        <trkpt lat="28.24892" lon="105.718376"><ele>1035</ele><time>2026-07-19T02:52:33.000Z</time></trkpt>
        <trkpt lat="28.24893" lon="105.718452"><ele>1036</ele><time>2026-07-19T02:52:33.000Z</time></trkpt>
        <trkpt lat="28.248943" lon="105.718521"><ele>1036</ele><time>2026-07-19T02:52:33.000Z</time></trkpt>
        <trkpt lat="28.248955" lon="105.718585"><ele>1037</ele><time>2026-07-19T02:52:33.000Z</time></trkpt>
        <trkpt lat="28.248969" lon="105.718646"><ele>1039</ele><time>2026-07-19T02:52:33.000Z</time></trkpt>
        <trkpt lat="28.248991" lon="105.718703"><ele>1032</ele><time>2026-07-19T02:52:33.000Z</time></trkpt>
        <trkpt lat="28.249014" lon="105.718756"><ele>1038</ele><time>2026-07-19T02:52:33.000Z</time></trkpt>
        <trkpt lat="28.24904" lon="105.71881"><ele>1038</ele><time>2026-07-19T02:52:33.000Z</time></trkpt>
        <trkpt lat="28.249067" lon="105.718865"><ele>1037</ele><time>2026-07-19T02:52:33.000Z</time></trkpt>
        <trkpt lat="28.249097" lon="105.71892"><ele>1033</ele><time>2026-07-19T02:52:33.000Z</time></trkpt>
        <trkpt lat="28.249123" lon="105.718978"><ele>1033</ele><time>2026-07-19T02:52:33.000Z</time></trkpt>
        <trkpt lat="28.249149" lon="105.719038"><ele>1033</ele><time>2026-07-19T02:52:33.000Z</time></trkpt>
        <trkpt lat="28.249173" lon="105.719096"><ele>1033</ele><time>2026-07-19T02:52:33.000Z</time></trkpt>
        <trkpt lat="28.249196" lon="105.719156"><ele>1033</ele><time>2026-07-19T02:52:33.000Z</time></trkpt>
        <trkpt lat="28.249215" lon="105.719216"><ele>1033</ele><time>2026-07-19T02:52:33.000Z</time></trkpt>
        <trkpt lat="28.249235" lon="105.719279"><ele>1033</ele><time>2026-07-19T02:52:33.000Z</time></trkpt>
        <trkpt lat="28.249254" lon="105.719342"><ele>1033</ele><time>2026-07-19T02:52:33.000Z</time></trkpt>
        <trkpt lat="28.249268" lon="105.719401"><ele>1033</ele><time>2026-07-19T02:52:33.000Z</time></trkpt>
        <trkpt lat="28.249285" lon="105.719457"><ele>1033</ele><time>2026-07-19T02:52:33.000Z</time></trkpt>
        <trkpt lat="28.249302" lon="105.719515"><ele>1032</ele><time>2026-07-19T02:52:33.000Z</time></trkpt>
        <trkpt lat="28.249329" lon="105.719566"><ele>1032</ele><time>2026-07-19T02:52:33.000Z</time></trkpt>
        <trkpt lat="28.249364" lon="105.719608"><ele>1032</ele><time>2026-07-19T02:52:33.000Z</time></trkpt>
        <trkpt lat="28.249407" lon="105.719641"><ele>1032</ele><time>2026-07-19T02:52:33.000Z</time></trkpt>
        <trkpt lat="28.249456" lon="105.719658"><ele>1032</ele><time>2026-07-19T02:52:33.000Z</time></trkpt>
        <trkpt lat="28.24951" lon="105.719666"><ele>1032</ele><time>2026-07-19T02:52:33.000Z</time></trkpt>
        <trkpt lat="28.249566" lon="105.71966"><ele>1032</ele><time>2026-07-19T02:52:33.000Z</time></trkpt>
        <trkpt lat="28.249618" lon="105.719643"><ele>1032</ele><time>2026-07-19T02:52:33.000Z</time></trkpt>
        <trkpt lat="28.249667" lon="105.719629"><ele>1032</ele><time>2026-07-19T02:52:33.000Z</time></trkpt>
        <trkpt lat="28.249714" lon="105.719618"><ele>1028</ele><time>2026-07-19T02:52:33.000Z</time></trkpt>
        <trkpt lat="28.249766" lon="105.719634"><ele>1028</ele><time>2026-07-19T02:52:33.000Z</time></trkpt>
        <trkpt lat="28.249814" lon="105.719643"><ele>1028</ele><time>2026-07-19T02:52:33.000Z</time></trkpt>
        <trkpt lat="28.249877" lon="105.719652"><ele>1027</ele><time>2026-07-19T02:52:33.000Z</time></trkpt>
        <trkpt lat="28.249934" lon="105.719677"><ele>1026</ele><time>2026-07-19T02:52:33.000Z</time></trkpt>
        <trkpt lat="28.249975" lon="105.719716"><ele>1026</ele><time>2026-07-19T02:52:33.000Z</time></trkpt>
        <trkpt lat="28.249999" lon="105.719776"><ele>1026</ele><time>2026-07-19T02:52:33.000Z</time></trkpt>
        <trkpt lat="28.250021" lon="105.719825"><ele>1026</ele><time>2026-07-19T02:52:33.000Z</time></trkpt>
        <trkpt lat="28.250044" lon="105.719875"><ele>1026</ele><time>2026-07-19T02:52:33.000Z</time></trkpt>
        <trkpt lat="28.250072" lon="105.719916"><ele>1026</ele><time>2026-07-19T02:52:33.000Z</time></trkpt>
        <trkpt lat="28.250099" lon="105.719965"><ele>1025</ele><time>2026-07-19T02:52:33.000Z</time></trkpt>
        <trkpt lat="28.250144" lon="105.719979"><ele>1025</ele><time>2026-07-19T02:52:33.000Z</time></trkpt>
        <trkpt lat="28.250194" lon="105.719978"><ele>1024</ele><time>2026-07-19T02:52:33.000Z</time></trkpt>
        <trkpt lat="28.250243" lon="105.719972"><ele>1024</ele><time>2026-07-19T02:52:33.000Z</time></trkpt>
        <trkpt lat="28.250293" lon="105.719959"><ele>1024</ele><time>2026-07-19T02:52:33.000Z</time></trkpt>
        <trkpt lat="28.250343" lon="105.719943"><ele>1024</ele><time>2026-07-19T02:52:33.000Z</time></trkpt>
        <trkpt lat="28.250394" lon="105.719931"><ele>1024</ele><time>2026-07-19T02:52:33.000Z</time></trkpt>
        <trkpt lat="28.250443" lon="105.719933"><ele>1024</ele><time>2026-07-19T02:52:33.000Z</time></trkpt>
        <trkpt lat="28.250501" lon="105.719922"><ele>1024</ele><time>2026-07-19T02:52:33.000Z</time></trkpt>
        <trkpt lat="28.250551" lon="105.719926"><ele>1024</ele><time>2026-07-19T02:52:33.000Z</time></trkpt>
        <trkpt lat="28.250604" lon="105.719943"><ele>1024</ele><time>2026-07-19T02:52:33.000Z</time></trkpt>
        <trkpt lat="28.250655" lon="105.719966"><ele>1024</ele><time>2026-07-19T02:52:33.000Z</time></trkpt>
        <trkpt lat="28.250694" lon="105.719994"><ele>1024</ele><time>2026-07-19T02:52:33.000Z</time></trkpt>
        <trkpt lat="28.250735" lon="105.720032"><ele>1024</ele><time>2026-07-19T02:52:33.000Z</time></trkpt>
        <trkpt lat="28.250773" lon="105.720067"><ele>1024</ele><time>2026-07-19T02:52:33.000Z</time></trkpt>
        <trkpt lat="28.250814" lon="105.72011"><ele>1024</ele><time>2026-07-19T02:52:33.000Z</time></trkpt>
        <trkpt lat="28.25085" lon="105.720153"><ele>1024</ele><time>2026-07-19T02:52:33.000Z</time></trkpt>
        <trkpt lat="28.250885" lon="105.720193"><ele>1024</ele><time>2026-07-19T02:52:33.000Z</time></trkpt>
        <trkpt lat="28.250928" lon="105.720224"><ele>1024</ele><time>2026-07-19T02:52:33.000Z</time></trkpt>
        <trkpt lat="28.250975" lon="105.72024"><ele>1023</ele><time>2026-07-19T02:52:33.000Z</time></trkpt>
        <trkpt lat="28.251023" lon="105.720257"><ele>1024</ele><time>2026-07-19T02:52:33.000Z</time></trkpt>
        <trkpt lat="28.251078" lon="105.720279"><ele>1024</ele><time>2026-07-19T02:52:33.000Z</time></trkpt>
        <trkpt lat="28.25113" lon="105.72028"><ele>1025</ele><time>2026-07-19T02:52:33.000Z</time></trkpt>
        <trkpt lat="28.251178" lon="105.720283"><ele>1025</ele><time>2026-07-19T02:52:33.000Z</time></trkpt>
        <trkpt lat="28.251225" lon="105.720278"><ele>1025</ele><time>2026-07-19T02:52:33.000Z</time></trkpt>
        <trkpt lat="28.251282" lon="105.720279"><ele>1025</ele><time>2026-07-19T02:52:33.000Z</time></trkpt>
        <trkpt lat="28.251339" lon="105.720277"><ele>1025</ele><time>2026-07-19T02:52:33.000Z</time></trkpt>
        <trkpt lat="28.251385" lon="105.720275"><ele>1025</ele><time>2026-07-19T02:52:33.000Z</time></trkpt>
        <trkpt lat="28.251431" lon="105.72027"><ele>1025</ele><time>2026-07-19T02:52:33.000Z</time></trkpt>
        <trkpt lat="28.251482" lon="105.720265"><ele>1025</ele><time>2026-07-19T02:52:33.000Z</time></trkpt>
        <trkpt lat="28.251532" lon="105.72026"><ele>1026</ele><time>2026-07-19T02:52:33.000Z</time></trkpt>
        <trkpt lat="28.251579" lon="105.720254"><ele>1026</ele><time>2026-07-19T02:52:33.000Z</time></trkpt>
        <trkpt lat="28.251624" lon="105.720258"><ele>1027</ele><time>2026-07-19T02:52:33.000Z</time></trkpt>
        <trkpt lat="28.251679" lon="105.720268"><ele>1027</ele><time>2026-07-19T02:52:33.000Z</time></trkpt>
        <trkpt lat="28.251723" lon="105.720272"><ele>1027</ele><time>2026-07-19T02:52:33.000Z</time></trkpt>
        <trkpt lat="28.251774" lon="105.720278"><ele>1026</ele><time>2026-07-19T02:52:33.000Z</time></trkpt>
        <trkpt lat="28.251819" lon="105.720295"><ele>1026</ele><time>2026-07-19T02:52:33.000Z</time></trkpt>
        <trkpt lat="28.251867" lon="105.720317"><ele>1026</ele><time>2026-07-19T02:52:33.000Z</time></trkpt>
        <trkpt lat="28.251922" lon="105.720337"><ele>1026</ele><time>2026-07-19T02:52:33.000Z</time></trkpt>
        <trkpt lat="28.251966" lon="105.720356"><ele>1026</ele><time>2026-07-19T02:52:33.000Z</time></trkpt>
        <trkpt lat="28.252007" lon="105.720379"><ele>1025</ele><time>2026-07-19T02:52:33.000Z</time></trkpt>
        <trkpt lat="28.252048" lon="105.720407"><ele>1024</ele><time>2026-07-19T02:52:33.000Z</time></trkpt>
        <trkpt lat="28.25209" lon="105.720434"><ele>1024</ele><time>2026-07-19T02:52:33.000Z</time></trkpt>
        <trkpt lat="28.252142" lon="105.720458"><ele>1023</ele><time>2026-07-19T02:52:33.000Z</time></trkpt>
        <trkpt lat="28.252187" lon="105.720483"><ele>1023</ele><time>2026-07-19T02:52:33.000Z</time></trkpt>
        <trkpt lat="28.252231" lon="105.720514"><ele>1023</ele><time>2026-07-19T02:52:33.000Z</time></trkpt>
        <trkpt lat="28.252268" lon="105.720544"><ele>1023</ele><time>2026-07-19T02:52:33.000Z</time></trkpt>
        <trkpt lat="28.252308" lon="105.720581"><ele>1023</ele><time>2026-07-19T02:52:33.000Z</time></trkpt>
        <trkpt lat="28.252344" lon="105.72062"><ele>1023</ele><time>2026-07-19T02:52:33.000Z</time></trkpt>
        <trkpt lat="28.252373" lon="105.720664"><ele>1023</ele><time>2026-07-19T02:52:33.000Z</time></trkpt>
        <trkpt lat="28.252409" lon="105.720712"><ele>1022</ele><time>2026-07-19T02:52:33.000Z</time></trkpt>
        <trkpt lat="28.252438" lon="105.720756"><ele>1023</ele><time>2026-07-19T02:52:33.000Z</time></trkpt>
        <trkpt lat="28.252471" lon="105.720806"><ele>1023</ele><time>2026-07-19T02:52:33.000Z</time></trkpt>
        <trkpt lat="28.252507" lon="105.720843"><ele>1023</ele><time>2026-07-19T02:52:33.000Z</time></trkpt>
        <trkpt lat="28.252541" lon="105.72088"><ele>1023</ele><time>2026-07-19T02:52:33.000Z</time></trkpt>
        <trkpt lat="28.252589" lon="105.720902"><ele>1022</ele><time>2026-07-19T02:52:33.000Z</time></trkpt>
        <trkpt lat="28.25263" lon="105.720943"><ele>1022</ele><time>2026-07-19T02:52:33.000Z</time></trkpt>
        <trkpt lat="28.252657" lon="105.720985"><ele>1022</ele><time>2026-07-19T02:52:33.000Z</time></trkpt>
        <trkpt lat="28.252686" lon="105.72103"><ele>1021</ele><time>2026-07-19T02:52:33.000Z</time></trkpt>
        <trkpt lat="28.252718" lon="105.72107"><ele>1021</ele><time>2026-07-19T02:52:33.000Z</time></trkpt>
        <trkpt lat="28.252747" lon="105.72111"><ele>1021</ele><time>2026-07-19T02:52:33.000Z</time></trkpt>
        <trkpt lat="28.252783" lon="105.721146"><ele>1021</ele><time>2026-07-19T02:52:33.000Z</time></trkpt>
        <trkpt lat="28.252818" lon="105.721187"><ele>1020</ele><time>2026-07-19T02:52:33.000Z</time></trkpt>
        <trkpt lat="28.252856" lon="105.721235"><ele>1020</ele><time>2026-07-19T02:52:33.000Z</time></trkpt>
        <trkpt lat="28.252887" lon="105.721276"><ele>1020</ele><time>2026-07-19T02:52:33.000Z</time></trkpt>
        <trkpt lat="28.25291" lon="105.721323"><ele>1020</ele><time>2026-07-19T02:52:33.000Z</time></trkpt>
        <trkpt lat="28.252935" lon="105.721368"><ele>1020</ele><time>2026-07-19T02:52:33.000Z</time></trkpt>
        <trkpt lat="28.25296" lon="105.721422"><ele>1020</ele><time>2026-07-19T02:52:33.000Z</time></trkpt>
        <trkpt lat="28.25298" lon="105.721469"><ele>1020</ele><time>2026-07-19T02:52:33.000Z</time></trkpt>
        <trkpt lat="28.25301" lon="105.721519"><ele>1020</ele><time>2026-07-19T02:52:33.000Z</time></trkpt>
        <trkpt lat="28.25304" lon="105.721566"><ele>1020</ele><time>2026-07-19T02:52:33.000Z</time></trkpt>
        <trkpt lat="28.253067" lon="105.721609"><ele>1020</ele><time>2026-07-19T02:52:33.000Z</time></trkpt>
        <trkpt lat="28.253091" lon="105.72166"><ele>1020</ele><time>2026-07-19T02:52:33.000Z</time></trkpt>
        <trkpt lat="28.253118" lon="105.721711"><ele>1020</ele><time>2026-07-19T02:52:33.000Z</time></trkpt>
        <trkpt lat="28.253144" lon="105.721756"><ele>1020</ele><time>2026-07-19T02:52:33.000Z</time></trkpt>
        <trkpt lat="28.25317" lon="105.721803"><ele>1020</ele><time>2026-07-19T02:52:33.000Z</time></trkpt>
        <trkpt lat="28.253195" lon="105.721847"><ele>1020</ele><time>2026-07-19T02:52:33.000Z</time></trkpt>
        <trkpt lat="28.253225" lon="105.721903"><ele>1020</ele><time>2026-07-19T02:52:33.000Z</time></trkpt>
        <trkpt lat="28.253255" lon="105.721948"><ele>1021</ele><time>2026-07-19T02:52:33.000Z</time></trkpt>
        <trkpt lat="28.25328" lon="105.721992"><ele>1021</ele><time>2026-07-19T02:52:33.000Z</time></trkpt>
        <trkpt lat="28.2533" lon="105.722045"><ele>1022</ele><time>2026-07-19T02:52:33.000Z</time></trkpt>
        <trkpt lat="28.253324" lon="105.722097"><ele>1022</ele><time>2026-07-19T02:52:33.000Z</time></trkpt>
        <trkpt lat="28.253342" lon="105.722146"><ele>1022</ele><time>2026-07-19T02:52:33.000Z</time></trkpt>
        <trkpt lat="28.253361" lon="105.722196"><ele>1022</ele><time>2026-07-19T02:52:33.000Z</time></trkpt>
        <trkpt lat="28.253395" lon="105.722231"><ele>1022</ele><time>2026-07-19T02:52:33.000Z</time></trkpt>
        <trkpt lat="28.25344" lon="105.722246"><ele>1022</ele><time>2026-07-19T02:52:33.000Z</time></trkpt>
        <trkpt lat="28.253484" lon="105.722265"><ele>1024</ele><time>2026-07-19T02:52:33.000Z</time></trkpt>
        <trkpt lat="28.25353" lon="105.722287"><ele>1025</ele><time>2026-07-19T02:52:33.000Z</time></trkpt>
        <trkpt lat="28.253578" lon="105.722296"><ele>1025</ele><time>2026-07-19T02:52:33.000Z</time></trkpt>
        <trkpt lat="28.253634" lon="105.722292"><ele>1026</ele><time>2026-07-19T02:52:33.000Z</time></trkpt>
        <trkpt lat="28.253686" lon="105.722279"><ele>1026</ele><time>2026-07-19T02:52:33.000Z</time></trkpt>
        <trkpt lat="28.253739" lon="105.722264"><ele>1026</ele><time>2026-07-19T02:52:33.000Z</time></trkpt>
        <trkpt lat="28.253794" lon="105.72225"><ele>1027</ele><time>2026-07-19T02:52:33.000Z</time></trkpt>
        <trkpt lat="28.253849" lon="105.722239"><ele>1027</ele><time>2026-07-19T02:52:33.000Z</time></trkpt>
        <trkpt lat="28.253896" lon="105.722228"><ele>1027</ele><time>2026-07-19T02:52:33.000Z</time></trkpt>
        <trkpt lat="28.253945" lon="105.722217"><ele>1026</ele><time>2026-07-19T02:52:33.000Z</time></trkpt>
        <trkpt lat="28.253995" lon="105.722196"><ele>1026</ele><time>2026-07-19T02:52:33.000Z</time></trkpt>
        <trkpt lat="28.254044" lon="105.722178"><ele>1027</ele><time>2026-07-19T02:52:33.000Z</time></trkpt>
        <trkpt lat="28.254097" lon="105.72216"><ele>1026</ele><time>2026-07-19T02:52:33.000Z</time></trkpt>
        <trkpt lat="28.254146" lon="105.722145"><ele>1026</ele><time>2026-07-19T02:52:33.000Z</time></trkpt>
        <trkpt lat="28.254197" lon="105.722124"><ele>1026</ele><time>2026-07-19T02:52:33.000Z</time></trkpt>
        <trkpt lat="28.254237" lon="105.722096"><ele>1025</ele><time>2026-07-19T02:52:33.000Z</time></trkpt>
        <trkpt lat="28.254288" lon="105.722071"><ele>1025</ele><time>2026-07-19T02:52:33.000Z</time></trkpt>
        <trkpt lat="28.25433" lon="105.722053"><ele>1025</ele><time>2026-07-19T02:52:33.000Z</time></trkpt>
        <trkpt lat="28.25438" lon="105.72202"><ele>1025</ele><time>2026-07-19T02:52:33.000Z</time></trkpt>
        <trkpt lat="28.254426" lon="105.721988"><ele>1025</ele><time>2026-07-19T02:52:33.000Z</time></trkpt>
        <trkpt lat="28.254477" lon="105.721964"><ele>1025</ele><time>2026-07-19T02:52:33.000Z</time></trkpt>
        <trkpt lat="28.254527" lon="105.721931"><ele>1025</ele><time>2026-07-19T02:52:33.000Z</time></trkpt>
        <trkpt lat="28.254566" lon="105.721898"><ele>1026</ele><time>2026-07-19T02:52:33.000Z</time></trkpt>
        <trkpt lat="28.254614" lon="105.721861"><ele>1026</ele><time>2026-07-19T02:52:33.000Z</time></trkpt>
        <trkpt lat="28.254651" lon="105.721831"><ele>1027</ele><time>2026-07-19T02:52:33.000Z</time></trkpt>
        <trkpt lat="28.254695" lon="105.721799"><ele>1027</ele><time>2026-07-19T02:52:33.000Z</time></trkpt>
        <trkpt lat="28.254739" lon="105.721763"><ele>1027</ele><time>2026-07-19T02:52:33.000Z</time></trkpt>
        <trkpt lat="28.254777" lon="105.721727"><ele>1027</ele><time>2026-07-19T02:52:33.000Z</time></trkpt>
        <trkpt lat="28.254823" lon="105.721687"><ele>1027</ele><time>2026-07-19T02:52:33.000Z</time></trkpt>
        <trkpt lat="28.254862" lon="105.721649"><ele>1028</ele><time>2026-07-19T02:52:33.000Z</time></trkpt>
        <trkpt lat="28.254898" lon="105.721598"><ele>1028</ele><time>2026-07-19T02:52:33.000Z</time></trkpt>
        <trkpt lat="28.254931" lon="105.721552"><ele>1028</ele><time>2026-07-19T02:52:33.000Z</time></trkpt>
        <trkpt lat="28.254961" lon="105.721509"><ele>1028</ele><time>2026-07-19T02:52:33.000Z</time></trkpt>
        <trkpt lat="28.254992" lon="105.721468"><ele>1028</ele><time>2026-07-19T02:52:33.000Z</time></trkpt>
        <trkpt lat="28.255028" lon="105.72142"><ele>1028</ele><time>2026-07-19T02:52:33.000Z</time></trkpt>
        <trkpt lat="28.255063" lon="105.721378"><ele>1028</ele><time>2026-07-19T02:52:33.000Z</time></trkpt>
        <trkpt lat="28.255109" lon="105.721346"><ele>1028</ele><time>2026-07-19T02:52:33.000Z</time></trkpt>
        <trkpt lat="28.25516" lon="105.721323"><ele>1028</ele><time>2026-07-19T02:52:33.000Z</time></trkpt>
        <trkpt lat="28.255205" lon="105.721291"><ele>1027</ele><time>2026-07-19T02:52:33.000Z</time></trkpt>
        <trkpt lat="28.255244" lon="105.721256"><ele>1027</ele><time>2026-07-19T02:52:33.000Z</time></trkpt>
        <trkpt lat="28.255282" lon="105.721221"><ele>1027</ele><time>2026-07-19T02:52:33.000Z</time></trkpt>
        <trkpt lat="28.255335" lon="105.721191"><ele>1027</ele><time>2026-07-19T02:52:33.000Z</time></trkpt>
        <trkpt lat="28.255401" lon="105.721165"><ele>1026</ele><time>2026-07-19T02:52:33.000Z</time></trkpt>
        <trkpt lat="28.255454" lon="105.721136"><ele>1026</ele><time>2026-07-19T02:52:33.000Z</time></trkpt>
        <trkpt lat="28.255499" lon="105.721114"><ele>1025</ele><time>2026-07-19T02:52:33.000Z</time></trkpt>
        <trkpt lat="28.255551" lon="105.721091"><ele>1025</ele><time>2026-07-19T02:52:33.000Z</time></trkpt>
        <trkpt lat="28.255604" lon="105.721062"><ele>1024</ele><time>2026-07-19T02:52:33.000Z</time></trkpt>
        <trkpt lat="28.255651" lon="105.721032"><ele>1023</ele><time>2026-07-19T02:52:33.000Z</time></trkpt>
        <trkpt lat="28.255696" lon="105.720995"><ele>1024</ele><time>2026-07-19T02:52:33.000Z</time></trkpt>
        <trkpt lat="28.255732" lon="105.720962"><ele>1023</ele><time>2026-07-19T02:52:33.000Z</time></trkpt>
        <trkpt lat="28.25577" lon="105.720932"><ele>1023</ele><time>2026-07-19T02:52:33.000Z</time></trkpt>
        <trkpt lat="28.255806" lon="105.720897"><ele>1023</ele><time>2026-07-19T02:52:33.000Z</time></trkpt>
        <trkpt lat="28.255842" lon="105.720858"><ele>1023</ele><time>2026-07-19T02:52:33.000Z</time></trkpt>
        <trkpt lat="28.25588" lon="105.720822"><ele>1023</ele><time>2026-07-19T02:52:33.000Z</time></trkpt>
        <trkpt lat="28.255913" lon="105.720782"><ele>1023</ele><time>2026-07-19T02:52:33.000Z</time></trkpt>
        <trkpt lat="28.255951" lon="105.720755"><ele>1022</ele><time>2026-07-19T02:52:33.000Z</time></trkpt>
        <trkpt lat="28.255991" lon="105.72073"><ele>1021</ele><time>2026-07-19T02:52:33.000Z</time></trkpt>
        <trkpt lat="28.256034" lon="105.720709"><ele>1021</ele><time>2026-07-19T02:52:33.000Z</time></trkpt>
        <trkpt lat="28.256081" lon="105.720691"><ele>1021</ele><time>2026-07-19T02:52:33.000Z</time></trkpt>
        <trkpt lat="28.256126" lon="105.720687"><ele>1021</ele><time>2026-07-19T02:52:33.000Z</time></trkpt>
        <trkpt lat="28.256177" lon="105.72068"><ele>1020</ele><time>2026-07-19T02:52:33.000Z</time></trkpt>
        <trkpt lat="28.25623" lon="105.720668"><ele>1020</ele><time>2026-07-19T02:52:33.000Z</time></trkpt>
        <trkpt lat="28.256277" lon="105.720657"><ele>1021</ele><time>2026-07-19T02:52:33.000Z</time></trkpt>
        <trkpt lat="28.256324" lon="105.720643"><ele>1021</ele><time>2026-07-19T02:52:33.000Z</time></trkpt>
        <trkpt lat="28.256371" lon="105.720623"><ele>1021</ele><time>2026-07-19T02:52:33.000Z</time></trkpt>
        <trkpt lat="28.25642" lon="105.720598"><ele>1021</ele><time>2026-07-19T02:52:33.000Z</time></trkpt>
        <trkpt lat="28.256467" lon="105.720587"><ele>1021</ele><time>2026-07-19T02:52:33.000Z</time></trkpt>
        <trkpt lat="28.256515" lon="105.720582"><ele>1021</ele><time>2026-07-19T02:52:33.000Z</time></trkpt>
        <trkpt lat="28.256568" lon="105.720578"><ele>1021</ele><time>2026-07-19T02:52:33.000Z</time></trkpt>
        <trkpt lat="28.256618" lon="105.720588"><ele>1021</ele><time>2026-07-19T02:52:33.000Z</time></trkpt>
        <trkpt lat="28.256662" lon="105.720587"><ele>1020</ele><time>2026-07-19T02:52:33.000Z</time></trkpt>
        <trkpt lat="28.256716" lon="105.720607"><ele>1020</ele><time>2026-07-19T02:52:33.000Z</time></trkpt>
        <trkpt lat="28.25676" lon="105.720624"><ele>1020</ele><time>2026-07-19T02:52:33.000Z</time></trkpt>
        <trkpt lat="28.256809" lon="105.72063"><ele>1020</ele><time>2026-07-19T02:52:33.000Z</time></trkpt>
        <trkpt lat="28.256856" lon="105.720622"><ele>1020</ele><time>2026-07-19T02:52:33.000Z</time></trkpt>
        <trkpt lat="28.256904" lon="105.720616"><ele>1020</ele><time>2026-07-19T02:52:33.000Z</time></trkpt>
        <trkpt lat="28.256959" lon="105.720601"><ele>1021</ele><time>2026-07-19T02:52:33.000Z</time></trkpt>
        <trkpt lat="28.257011" lon="105.720585"><ele>1020</ele><time>2026-07-19T02:52:33.000Z</time></trkpt>
        <trkpt lat="28.257048" lon="105.720585"><ele>1023</ele><time>2026-07-19T02:52:33.000Z</time></trkpt>
        <trkpt lat="28.257105" lon="105.720592"><ele>1023</ele><time>2026-07-19T02:52:33.000Z</time></trkpt>
        <trkpt lat="28.257151" lon="105.720604"><ele>1023</ele><time>2026-07-19T02:52:33.000Z</time></trkpt>
        <trkpt lat="28.257197" lon="105.720599"><ele>1023</ele><time>2026-07-19T02:52:33.000Z</time></trkpt>
        <trkpt lat="28.257233" lon="105.720641"><ele>1023</ele><time>2026-07-19T02:52:33.000Z</time></trkpt>
        <trkpt lat="28.257243" lon="105.720695"><ele>1023</ele><time>2026-07-19T02:52:33.000Z</time></trkpt>
        <trkpt lat="28.257264" lon="105.72074"><ele>1023</ele><time>2026-07-19T02:52:33.000Z</time></trkpt>
        <trkpt lat="28.257285" lon="105.720788"><ele>1023</ele><time>2026-07-19T02:52:33.000Z</time></trkpt>
        <trkpt lat="28.257321" lon="105.720821"><ele>1023</ele><time>2026-07-19T02:52:33.000Z</time></trkpt>
        <trkpt lat="28.257368" lon="105.720839"><ele>1023</ele><time>2026-07-19T02:52:33.000Z</time></trkpt>
        <trkpt lat="28.257411" lon="105.720864"><ele>1024</ele><time>2026-07-19T02:52:33.000Z</time></trkpt>
        <trkpt lat="28.257438" lon="105.720919"><ele>1024</ele><time>2026-07-19T02:52:33.000Z</time></trkpt>
        <trkpt lat="28.257465" lon="105.720966"><ele>1024</ele><time>2026-07-19T02:52:33.000Z</time></trkpt>
        <trkpt lat="28.25751" lon="105.721001"><ele>1024</ele><time>2026-07-19T02:52:33.000Z</time></trkpt>
        <trkpt lat="28.257546" lon="105.721032"><ele>1024</ele><time>2026-07-19T02:52:33.000Z</time></trkpt>
        <trkpt lat="28.257589" lon="105.721061"><ele>1025</ele><time>2026-07-19T02:52:33.000Z</time></trkpt>
        <trkpt lat="28.257637" lon="105.721054"><ele>1025</ele><time>2026-07-19T02:52:33.000Z</time></trkpt>
        <trkpt lat="28.257685" lon="105.72108"><ele>1025</ele><time>2026-07-19T02:52:33.000Z</time></trkpt>
        <trkpt lat="28.257733" lon="105.721102"><ele>1026</ele><time>2026-07-19T02:52:33.000Z</time></trkpt>
        <trkpt lat="28.257773" lon="105.721134"><ele>1023</ele><time>2026-07-19T02:52:33.000Z</time></trkpt>
        <trkpt lat="28.257817" lon="105.721154"><ele>1023</ele><time>2026-07-19T02:52:33.000Z</time></trkpt>
        <trkpt lat="28.257858" lon="105.721178"><ele>1024</ele><time>2026-07-19T02:52:33.000Z</time></trkpt>
        <trkpt lat="28.25791" lon="105.721193"><ele>1025</ele><time>2026-07-19T02:52:33.000Z</time></trkpt>
        <trkpt lat="28.257953" lon="105.721216"><ele>1025</ele><time>2026-07-19T02:52:33.000Z</time></trkpt>
        <trkpt lat="28.257999" lon="105.721255"><ele>1025</ele><time>2026-07-19T02:52:33.000Z</time></trkpt>
        <trkpt lat="28.258044" lon="105.721282"><ele>1026</ele><time>2026-07-19T02:52:33.000Z</time></trkpt>
        <trkpt lat="28.258089" lon="105.721294"><ele>1025</ele><time>2026-07-19T02:52:33.000Z</time></trkpt>
        <trkpt lat="28.258131" lon="105.721331"><ele>1025</ele><time>2026-07-19T02:52:33.000Z</time></trkpt>
        <trkpt lat="28.258164" lon="105.72138"><ele>1024</ele><time>2026-07-19T02:52:33.000Z</time></trkpt>
        <trkpt lat="28.258189" lon="105.721428"><ele>1024</ele><time>2026-07-19T02:52:33.000Z</time></trkpt>
        <trkpt lat="28.258238" lon="105.721457"><ele>1025</ele><time>2026-07-19T02:52:33.000Z</time></trkpt>
        <trkpt lat="28.258274" lon="105.72149"><ele>1026</ele><time>2026-07-19T02:52:33.000Z</time></trkpt>
        <trkpt lat="28.258303" lon="105.721531"><ele>1025</ele><time>2026-07-19T02:52:33.000Z</time></trkpt>
        <trkpt lat="28.258352" lon="105.721564"><ele>1025</ele><time>2026-07-19T02:52:33.000Z</time></trkpt>
        <trkpt lat="28.258392" lon="105.72159"><ele>1025</ele><time>2026-07-19T02:52:33.000Z</time></trkpt>
        <trkpt lat="28.25844" lon="105.721622"><ele>1025</ele><time>2026-07-19T02:52:33.000Z</time></trkpt>
        <trkpt lat="28.258477" lon="105.721663"><ele>1024</ele><time>2026-07-19T02:52:33.000Z</time></trkpt>
        <trkpt lat="28.258555" lon="105.721694"><ele>1024</ele><time>2026-07-19T02:52:33.000Z</time></trkpt>
        <trkpt lat="28.258614" lon="105.7217"><ele>1025</ele><time>2026-07-19T02:52:33.000Z</time></trkpt>
        <trkpt lat="28.258669" lon="105.721697"><ele>1024</ele><time>2026-07-19T02:52:33.000Z</time></trkpt>
        <trkpt lat="28.258715" lon="105.72173"><ele>1024</ele><time>2026-07-19T02:52:33.000Z</time></trkpt>
        <trkpt lat="28.258766" lon="105.72176"><ele>1024</ele><time>2026-07-19T02:52:33.000Z</time></trkpt>
        <trkpt lat="28.258803" lon="105.721799"><ele>1023</ele><time>2026-07-19T02:52:33.000Z</time></trkpt>
        <trkpt lat="28.25883" lon="105.721844"><ele>1023</ele><time>2026-07-19T02:52:33.000Z</time></trkpt>
        <trkpt lat="28.258859" lon="105.721888"><ele>1024</ele><time>2026-07-19T02:52:33.000Z</time></trkpt>
        <trkpt lat="28.258903" lon="105.721922"><ele>1024</ele><time>2026-07-19T02:52:33.000Z</time></trkpt>
        <trkpt lat="28.258944" lon="105.721955"><ele>1024</ele><time>2026-07-19T02:52:33.000Z</time></trkpt>
        <trkpt lat="28.25899" lon="105.721959"><ele>1022</ele><time>2026-07-19T02:52:33.000Z</time></trkpt>
        <trkpt lat="28.259038" lon="105.721987"><ele>1021</ele><time>2026-07-19T02:52:33.000Z</time></trkpt>
        <trkpt lat="28.259085" lon="105.722023"><ele>1021</ele><time>2026-07-19T02:52:33.000Z</time></trkpt>
        <trkpt lat="28.259121" lon="105.722055"><ele>1021</ele><time>2026-07-19T02:52:33.000Z</time></trkpt>
        <trkpt lat="28.25916" lon="105.722091"><ele>1020</ele><time>2026-07-19T02:52:33.000Z</time></trkpt>
        <trkpt lat="28.259196" lon="105.722129"><ele>1020</ele><time>2026-07-19T02:52:33.000Z</time></trkpt>
        <trkpt lat="28.259244" lon="105.722169"><ele>1020</ele><time>2026-07-19T02:52:33.000Z</time></trkpt>
        <trkpt lat="28.259277" lon="105.722204"><ele>1020</ele><time>2026-07-19T02:52:33.000Z</time></trkpt>
        <trkpt lat="28.259333" lon="105.722238"><ele>1020</ele><time>2026-07-19T02:52:33.000Z</time></trkpt>
        <trkpt lat="28.2593749" lon="105.7222829"><ele>1020</ele><time>2026-07-19T02:52:33.000Z</time></trkpt>
        <trkpt lat="28.2593749" lon="105.7222829"><ele>1070</ele><time>2026-07-19T02:52:33.000Z</time></trkpt>
        <trkpt lat="28.2598153" lon="105.7226756"><ele>1070</ele><time>2026-07-19T02:52:33.000Z</time></trkpt>
        <trkpt lat="28.2601142" lon="105.7228404"><ele>1070</ele><time>2026-07-19T02:52:33.000Z</time></trkpt>
        <trkpt lat="28.2602381" lon="105.7229502"><ele>1070</ele><time>2026-07-19T02:52:33.000Z</time></trkpt>
        <trkpt lat="28.260384" lon="105.7230101"><ele>1070</ele><time>2026-07-19T02:52:33.000Z</time></trkpt>
        <trkpt lat="28.2605309" lon="105.7231409"><ele>1070</ele><time>2026-07-19T02:52:33.000Z</time></trkpt>
        <trkpt lat="28.2606148" lon="105.7232778"><ele>1070</ele><time>2026-07-19T02:52:33.000Z</time></trkpt>
        <trkpt lat="28.2606396" lon="105.7234685"><ele>1070</ele><time>2026-07-19T02:52:33.000Z</time></trkpt>
        <trkpt lat="28.260724" lon="105.723701"><ele>1070</ele><time>2026-07-19T02:52:33.000Z</time></trkpt>
        <trkpt lat="28.260724" lon="105.723701"><ele>1021</ele><time>2026-07-19T02:52:33.000Z</time></trkpt>
        <trkpt lat="28.260737" lon="105.723753"><ele>1021</ele><time>2026-07-19T02:52:33.000Z</time></trkpt>
        <trkpt lat="28.260747" lon="105.723803"><ele>1021</ele><time>2026-07-19T02:52:33.000Z</time></trkpt>
        <trkpt lat="28.260743" lon="105.723855"><ele>1021</ele><time>2026-07-19T02:52:33.000Z</time></trkpt>
        <trkpt lat="28.260756" lon="105.723905"><ele>1021</ele><time>2026-07-19T02:52:33.000Z</time></trkpt>
        <trkpt lat="28.260769" lon="105.723961"><ele>1020</ele><time>2026-07-19T02:52:33.000Z</time></trkpt>
        <trkpt lat="28.260768" lon="105.724016"><ele>1020</ele><time>2026-07-19T02:52:33.000Z</time></trkpt>
        <trkpt lat="28.260774" lon="105.724068"><ele>1020</ele><time>2026-07-19T02:52:33.000Z</time></trkpt>
        <trkpt lat="28.260786" lon="105.724125"><ele>1020</ele><time>2026-07-19T02:52:33.000Z</time></trkpt>
        <trkpt lat="28.260787" lon="105.724179"><ele>1020</ele><time>2026-07-19T02:52:33.000Z</time></trkpt>
        <trkpt lat="28.260785" lon="105.724231"><ele>1020</ele><time>2026-07-19T02:52:33.000Z</time></trkpt>
        <trkpt lat="28.260784" lon="105.724285"><ele>1020</ele><time>2026-07-19T02:52:33.000Z</time></trkpt>
        <trkpt lat="28.260789" lon="105.724339"><ele>1020</ele><time>2026-07-19T02:52:33.000Z</time></trkpt>
        <trkpt lat="28.260783" lon="105.724406"><ele>1019</ele><time>2026-07-19T02:52:33.000Z</time></trkpt>
        <trkpt lat="28.260783" lon="105.724406"><ele>1017</ele><time>2026-07-19T02:52:33.000Z</time></trkpt>
        <trkpt lat="28.260812" lon="105.72438"><ele>1017</ele><time>2026-07-19T02:52:33.000Z</time></trkpt>
        <trkpt lat="28.260871" lon="105.724371"><ele>1017</ele><time>2026-07-19T02:52:33.000Z</time></trkpt>
        <trkpt lat="28.26091" lon="105.724408"><ele>1016</ele><time>2026-07-19T02:52:33.000Z</time></trkpt>
        <trkpt lat="28.26096" lon="105.724393"><ele>1016</ele><time>2026-07-19T02:52:33.000Z</time></trkpt>
        <trkpt lat="28.261002" lon="105.724416"><ele>1016</ele><time>2026-07-19T02:52:33.000Z</time></trkpt>
        <trkpt lat="28.261047" lon="105.724437"><ele>1015</ele><time>2026-07-19T02:52:33.000Z</time></trkpt>
        <trkpt lat="28.261077" lon="105.724388"><ele>1015</ele><time>2026-07-19T02:52:33.000Z</time></trkpt>
        <trkpt lat="28.261099" lon="105.724447"><ele>1016</ele><time>2026-07-19T02:52:33.000Z</time></trkpt>
        <trkpt lat="28.261093" lon="105.724497"><ele>1017</ele><time>2026-07-19T02:52:33.000Z</time></trkpt>
        <trkpt lat="28.261101" lon="105.724552"><ele>1019</ele><time>2026-07-19T02:52:33.000Z</time></trkpt>
        <trkpt lat="28.261118" lon="105.724608"><ele>1020</ele><time>2026-07-19T02:52:33.000Z</time></trkpt>
        <trkpt lat="28.261154" lon="105.724644"><ele>1020</ele><time>2026-07-19T02:52:33.000Z</time></trkpt>
        <trkpt lat="28.261192" lon="105.724683"><ele>1021</ele><time>2026-07-19T02:52:33.000Z</time></trkpt>
        <trkpt lat="28.261197" lon="105.724737"><ele>1022</ele><time>2026-07-19T02:52:33.000Z</time></trkpt>
        <trkpt lat="28.261209" lon="105.724794"><ele>1023</ele><time>2026-07-19T02:52:33.000Z</time></trkpt>
        <trkpt lat="28.261209" lon="105.724849"><ele>1023</ele><time>2026-07-19T02:52:33.000Z</time></trkpt>
        <trkpt lat="28.26124" lon="105.724896"><ele>1023</ele><time>2026-07-19T02:52:33.000Z</time></trkpt>
        <trkpt lat="28.261279" lon="105.724927"><ele>1023</ele><time>2026-07-19T02:52:33.000Z</time></trkpt>
        <trkpt lat="28.261326" lon="105.724949"><ele>1024</ele><time>2026-07-19T02:52:33.000Z</time></trkpt>
        <trkpt lat="28.261365" lon="105.724988"><ele>1024</ele><time>2026-07-19T02:52:33.000Z</time></trkpt>
        <trkpt lat="28.261402" lon="105.725031"><ele>1024</ele><time>2026-07-19T02:52:33.000Z</time></trkpt>
        <trkpt lat="28.261428" lon="105.725076"><ele>1024</ele><time>2026-07-19T02:52:33.000Z</time></trkpt>
        <trkpt lat="28.261446" lon="105.72513"><ele>1024</ele><time>2026-07-19T02:52:33.000Z</time></trkpt>
        <trkpt lat="28.261437" lon="105.725188"><ele>1025</ele><time>2026-07-19T02:52:33.000Z</time></trkpt>
        <trkpt lat="28.261429" lon="105.725245"><ele>1025</ele><time>2026-07-19T02:52:33.000Z</time></trkpt>
        <trkpt lat="28.261418" lon="105.725299"><ele>1025</ele><time>2026-07-19T02:52:33.000Z</time></trkpt>
        <trkpt lat="28.261409" lon="105.72535"><ele>1024</ele><time>2026-07-19T02:52:33.000Z</time></trkpt>
        <trkpt lat="28.261397" lon="105.725403"><ele>1023</ele><time>2026-07-19T02:52:33.000Z</time></trkpt>
        <trkpt lat="28.261369" lon="105.725462"><ele>1022</ele><time>2026-07-19T02:52:33.000Z</time></trkpt>
        <trkpt lat="28.261343" lon="105.725523"><ele>1022</ele><time>2026-07-19T02:52:33.000Z</time></trkpt>
        <trkpt lat="28.261316" lon="105.725568"><ele>1023</ele><time>2026-07-19T02:52:33.000Z</time></trkpt>
        <trkpt lat="28.261293" lon="105.725619"><ele>1023</ele><time>2026-07-19T02:52:33.000Z</time></trkpt>
        <trkpt lat="28.261263" lon="105.725664"><ele>1023</ele><time>2026-07-19T02:52:33.000Z</time></trkpt>
        <trkpt lat="28.261229" lon="105.725699"><ele>1022</ele><time>2026-07-19T02:52:33.000Z</time></trkpt>
        <trkpt lat="28.261218" lon="105.725735"><ele>1019</ele><time>2026-07-19T02:52:33.000Z</time></trkpt>
        <trkpt lat="28.261218" lon="105.725735"><ele>1005</ele><time>2026-07-19T02:52:33.000Z</time></trkpt>
        <trkpt lat="28.261187" lon="105.725816"><ele>1006</ele><time>2026-07-19T02:52:33.000Z</time></trkpt>
        <trkpt lat="28.261214" lon="105.725863"><ele>1007</ele><time>2026-07-19T02:52:33.000Z</time></trkpt>
        <trkpt lat="28.261247" lon="105.725908"><ele>1007</ele><time>2026-07-19T02:52:33.000Z</time></trkpt>
        <trkpt lat="28.26129" lon="105.725932"><ele>1006</ele><time>2026-07-19T02:52:33.000Z</time></trkpt>
        <trkpt lat="28.261337" lon="105.725937"><ele>1006</ele><time>2026-07-19T02:52:33.000Z</time></trkpt>
        <trkpt lat="28.261386" lon="105.72591"><ele>1004</ele><time>2026-07-19T02:52:33.000Z</time></trkpt>
        <trkpt lat="28.261417" lon="105.725874"><ele>1003</ele><time>2026-07-19T02:52:33.000Z</time></trkpt>
        <trkpt lat="28.261449" lon="105.725831"><ele>1002</ele><time>2026-07-19T02:52:33.000Z</time></trkpt>
        <trkpt lat="28.261493" lon="105.725798"><ele>1002</ele><time>2026-07-19T02:52:33.000Z</time></trkpt>
        <trkpt lat="28.261536" lon="105.725775"><ele>1003</ele><time>2026-07-19T02:52:33.000Z</time></trkpt>
        <trkpt lat="28.261572" lon="105.725737"><ele>1003</ele><time>2026-07-19T02:52:33.000Z</time></trkpt>
        <trkpt lat="28.261605" lon="105.725701"><ele>1003</ele><time>2026-07-19T02:52:33.000Z</time></trkpt>
        <trkpt lat="28.261621" lon="105.72565"><ele>1001</ele><time>2026-07-19T02:52:33.000Z</time></trkpt>
        <trkpt lat="28.261652" lon="105.7256"><ele>1001</ele><time>2026-07-19T02:52:33.000Z</time></trkpt>
        <trkpt lat="28.26168" lon="105.72556"><ele>1000</ele><time>2026-07-19T02:52:33.000Z</time></trkpt>
        <trkpt lat="28.261731" lon="105.725533"><ele>999</ele><time>2026-07-19T02:52:33.000Z</time></trkpt>
        <trkpt lat="28.261777" lon="105.725526"><ele>998</ele><time>2026-07-19T02:52:33.000Z</time></trkpt>
        <trkpt lat="28.261816" lon="105.725501"><ele>998</ele><time>2026-07-19T02:52:33.000Z</time></trkpt>
        <trkpt lat="28.261861" lon="105.725498"><ele>997</ele><time>2026-07-19T02:52:33.000Z</time></trkpt>
        <trkpt lat="28.261907" lon="105.725494"><ele>996</ele><time>2026-07-19T02:52:33.000Z</time></trkpt>
        <trkpt lat="28.261954" lon="105.725481"><ele>994</ele><time>2026-07-19T02:52:33.000Z</time></trkpt>
        <trkpt lat="28.261998" lon="105.725467"><ele>993</ele><time>2026-07-19T02:52:33.000Z</time></trkpt>
        <trkpt lat="28.262047" lon="105.725471"><ele>992</ele><time>2026-07-19T02:52:33.000Z</time></trkpt>
        <trkpt lat="28.262091" lon="105.725488"><ele>992</ele><time>2026-07-19T02:52:33.000Z</time></trkpt>
        <trkpt lat="28.262146" lon="105.725499"><ele>992</ele><time>2026-07-19T02:52:33.000Z</time></trkpt>
        <trkpt lat="28.262201" lon="105.725504"><ele>991</ele><time>2026-07-19T02:52:33.000Z</time></trkpt>
        <trkpt lat="28.262249" lon="105.7255"><ele>989</ele><time>2026-07-19T02:52:33.000Z</time></trkpt>
        <trkpt lat="28.262295" lon="105.725486"><ele>988</ele><time>2026-07-19T02:52:33.000Z</time></trkpt>
        <trkpt lat="28.262345" lon="105.72549"><ele>986</ele><time>2026-07-19T02:52:33.000Z</time></trkpt>
        <trkpt lat="28.262391" lon="105.725492"><ele>986</ele><time>2026-07-19T02:52:33.000Z</time></trkpt>
        <trkpt lat="28.262433" lon="105.7255"><ele>984</ele><time>2026-07-19T02:52:33.000Z</time></trkpt>
        <trkpt lat="28.2624937" lon="105.7254964"><ele>980</ele><time>2026-07-19T02:52:33.000Z</time></trkpt>
        <trkpt lat="28.2624937" lon="105.7254964"><ele>979</ele><time>2026-07-19T02:52:33.000Z</time></trkpt>
        <trkpt lat="28.262544" lon="105.725482"><ele>980</ele><time>2026-07-19T02:52:33.000Z</time></trkpt>
        <trkpt lat="28.262583" lon="105.725457"><ele>980</ele><time>2026-07-19T02:52:33.000Z</time></trkpt>
        <trkpt lat="28.26263" lon="105.725445"><ele>980</ele><time>2026-07-19T02:52:33.000Z</time></trkpt>
        <trkpt lat="28.262675" lon="105.725432"><ele>980</ele><time>2026-07-19T02:52:33.000Z</time></trkpt>
        <trkpt lat="28.26272" lon="105.725416"><ele>979</ele><time>2026-07-19T02:52:33.000Z</time></trkpt>
        <trkpt lat="28.262766" lon="105.725398"><ele>979</ele><time>2026-07-19T02:52:33.000Z</time></trkpt>
        <trkpt lat="28.262816" lon="105.725373"><ele>979</ele><time>2026-07-19T02:52:33.000Z</time></trkpt>
        <trkpt lat="28.262867" lon="105.725348"><ele>979</ele><time>2026-07-19T02:52:33.000Z</time></trkpt>
        <trkpt lat="28.262908" lon="105.725319"><ele>979</ele><time>2026-07-19T02:52:33.000Z</time></trkpt>
        <trkpt lat="28.262961" lon="105.725292"><ele>978</ele><time>2026-07-19T02:52:33.000Z</time></trkpt>
        <trkpt lat="28.263016" lon="105.725266"><ele>978</ele><time>2026-07-19T02:52:33.000Z</time></trkpt>
        <trkpt lat="28.263057" lon="105.725234"><ele>978</ele><time>2026-07-19T02:52:33.000Z</time></trkpt>
        <trkpt lat="28.263107" lon="105.72522"><ele>977</ele><time>2026-07-19T02:52:33.000Z</time></trkpt>
        <trkpt lat="28.26316" lon="105.72521"><ele>977</ele><time>2026-07-19T02:52:33.000Z</time></trkpt>
        <trkpt lat="28.263211" lon="105.725208"><ele>977</ele><time>2026-07-19T02:52:33.000Z</time></trkpt>
        <trkpt lat="28.263259" lon="105.72518"><ele>977</ele><time>2026-07-19T02:52:33.000Z</time></trkpt>
        <trkpt lat="28.263306" lon="105.725169"><ele>976</ele><time>2026-07-19T02:52:33.000Z</time></trkpt>
        <trkpt lat="28.263357" lon="105.725159"><ele>976</ele><time>2026-07-19T02:52:33.000Z</time></trkpt>
        <trkpt lat="28.263409" lon="105.725148"><ele>977</ele><time>2026-07-19T02:52:33.000Z</time></trkpt>
        <trkpt lat="28.263454" lon="105.725123"><ele>976</ele><time>2026-07-19T02:52:33.000Z</time></trkpt>
        <trkpt lat="28.263493" lon="105.72509"><ele>976</ele><time>2026-07-19T02:52:33.000Z</time></trkpt>
        <trkpt lat="28.263543" lon="105.725069"><ele>975</ele><time>2026-07-19T02:52:33.000Z</time></trkpt>
        <trkpt lat="28.263589" lon="105.725043"><ele>974</ele><time>2026-07-19T02:52:33.000Z</time></trkpt>
        <trkpt lat="28.263633" lon="105.725036"><ele>974</ele><time>2026-07-19T02:52:33.000Z</time></trkpt>
        <trkpt lat="28.263684" lon="105.725034"><ele>973</ele><time>2026-07-19T02:52:33.000Z</time></trkpt>
        <trkpt lat="28.263727" lon="105.725014"><ele>972</ele><time>2026-07-19T02:52:33.000Z</time></trkpt>
        <trkpt lat="28.263784" lon="105.724998"><ele>972</ele><time>2026-07-19T02:52:33.000Z</time></trkpt>
        <trkpt lat="28.263833" lon="105.724993"><ele>972</ele><time>2026-07-19T02:52:33.000Z</time></trkpt>
        <trkpt lat="28.263883" lon="105.724982"><ele>972</ele><time>2026-07-19T02:52:33.000Z</time></trkpt>
        <trkpt lat="28.263932" lon="105.724983"><ele>972</ele><time>2026-07-19T02:52:33.000Z</time></trkpt>
        <trkpt lat="28.263973" lon="105.72496"><ele>971</ele><time>2026-07-19T02:52:33.000Z</time></trkpt>
        <trkpt lat="28.264027" lon="105.724946"><ele>971</ele><time>2026-07-19T02:52:33.000Z</time></trkpt>
        <trkpt lat="28.264077" lon="105.724936"><ele>971</ele><time>2026-07-19T02:52:33.000Z</time></trkpt>
        <trkpt lat="28.264127" lon="105.724949"><ele>970</ele><time>2026-07-19T02:52:33.000Z</time></trkpt>
        <trkpt lat="28.264176" lon="105.724954"><ele>970</ele><time>2026-07-19T02:52:33.000Z</time></trkpt>
        <trkpt lat="28.264221" lon="105.724957"><ele>970</ele><time>2026-07-19T02:52:33.000Z</time></trkpt>
        <trkpt lat="28.264276" lon="105.724968"><ele>970</ele><time>2026-07-19T02:52:33.000Z</time></trkpt>
        <trkpt lat="28.264325" lon="105.724964"><ele>970</ele><time>2026-07-19T02:52:33.000Z</time></trkpt>
        <trkpt lat="28.264375" lon="105.724953"><ele>971</ele><time>2026-07-19T02:52:33.000Z</time></trkpt>
        <trkpt lat="28.264422" lon="105.724946"><ele>971</ele><time>2026-07-19T02:52:33.000Z</time></trkpt>
        <trkpt lat="28.264476" lon="105.724952"><ele>972</ele><time>2026-07-19T02:52:33.000Z</time></trkpt>
        <trkpt lat="28.264527" lon="105.724963"><ele>972</ele><time>2026-07-19T02:52:33.000Z</time></trkpt>
        <trkpt lat="28.264575" lon="105.724985"><ele>972</ele><time>2026-07-19T02:52:33.000Z</time></trkpt>
        <trkpt lat="28.264615" lon="105.72501"><ele>971</ele><time>2026-07-19T02:52:33.000Z</time></trkpt>
        <trkpt lat="28.264656" lon="105.725031"><ele>972</ele><time>2026-07-19T02:52:33.000Z</time></trkpt>
        <trkpt lat="28.264702" lon="105.725044"><ele>972</ele><time>2026-07-19T02:52:33.000Z</time></trkpt>
        <trkpt lat="28.26475" lon="105.725058"><ele>973</ele><time>2026-07-19T02:52:33.000Z</time></trkpt>
        <trkpt lat="28.26479" lon="105.725082"><ele>973</ele><time>2026-07-19T02:52:33.000Z</time></trkpt>
        <trkpt lat="28.264839" lon="105.72511"><ele>974</ele><time>2026-07-19T02:52:33.000Z</time></trkpt>
        <trkpt lat="28.264879" lon="105.725142"><ele>974</ele><time>2026-07-19T02:52:33.000Z</time></trkpt>
        <trkpt lat="28.264919" lon="105.725169"><ele>974</ele><time>2026-07-19T02:52:33.000Z</time></trkpt>
        <trkpt lat="28.264955" lon="105.725208"><ele>974</ele><time>2026-07-19T02:52:33.000Z</time></trkpt>
        <trkpt lat="28.265001" lon="105.725224"><ele>975</ele><time>2026-07-19T02:52:33.000Z</time></trkpt>
        <trkpt lat="28.265038" lon="105.725257"><ele>975</ele><time>2026-07-19T02:52:33.000Z</time></trkpt>
        <trkpt lat="28.26508" lon="105.72528"><ele>975</ele><time>2026-07-19T02:52:33.000Z</time></trkpt>
        <trkpt lat="28.265126" lon="105.725311"><ele>974</ele><time>2026-07-19T02:52:33.000Z</time></trkpt>
        <trkpt lat="28.265167" lon="105.725339"><ele>974</ele><time>2026-07-19T02:52:33.000Z</time></trkpt>
        <trkpt lat="28.265188" lon="105.725382"><ele>975</ele><time>2026-07-19T02:52:33.000Z</time></trkpt>
        <trkpt lat="28.265197" lon="105.725448"><ele>975</ele><time>2026-07-19T02:52:33.000Z</time></trkpt>
        <trkpt lat="28.265219" lon="105.7255"><ele>975</ele><time>2026-07-19T02:52:33.000Z</time></trkpt>
        <trkpt lat="28.265263" lon="105.725501"><ele>977</ele><time>2026-07-19T02:52:33.000Z</time></trkpt>
        <trkpt lat="28.265306" lon="105.725526"><ele>978</ele><time>2026-07-19T02:52:33.000Z</time></trkpt>
        <trkpt lat="28.265356" lon="105.725536"><ele>977</ele><time>2026-07-19T02:52:33.000Z</time></trkpt>
        <trkpt lat="28.265389" lon="105.725582"><ele>977</ele><time>2026-07-19T02:52:33.000Z</time></trkpt>
        <trkpt lat="28.265417" lon="105.725625"><ele>977</ele><time>2026-07-19T02:52:33.000Z</time></trkpt>
        <trkpt lat="28.265439" lon="105.725671"><ele>977</ele><time>2026-07-19T02:52:33.000Z</time></trkpt>
        <trkpt lat="28.265449" lon="105.725721"><ele>978</ele><time>2026-07-19T02:52:33.000Z</time></trkpt>
        <trkpt lat="28.265464" lon="105.725774"><ele>976</ele><time>2026-07-19T02:52:33.000Z</time></trkpt>
        <trkpt lat="28.265502" lon="105.725819"><ele>975</ele><time>2026-07-19T02:52:33.000Z</time></trkpt>
        <trkpt lat="28.265526" lon="105.725867"><ele>975</ele><time>2026-07-19T02:52:33.000Z</time></trkpt>
        <trkpt lat="28.26551" lon="105.725917"><ele>975</ele><time>2026-07-19T02:52:33.000Z</time></trkpt>
        <trkpt lat="28.265487" lon="105.725966"><ele>976</ele><time>2026-07-19T02:52:33.000Z</time></trkpt>
        <trkpt lat="28.265484" lon="105.726026"><ele>976</ele><time>2026-07-19T02:52:33.000Z</time></trkpt>
        <trkpt lat="28.265485" lon="105.726081"><ele>977</ele><time>2026-07-19T02:52:33.000Z</time></trkpt>
        <trkpt lat="28.265473" lon="105.726136"><ele>976</ele><time>2026-07-19T02:52:33.000Z</time></trkpt>
        <trkpt lat="28.265462" lon="105.72619"><ele>975</ele><time>2026-07-19T02:52:33.000Z</time></trkpt>
        <trkpt lat="28.26548" lon="105.726241"><ele>976</ele><time>2026-07-19T02:52:33.000Z</time></trkpt>
        <trkpt lat="28.265507" lon="105.726281"><ele>976</ele><time>2026-07-19T02:52:33.000Z</time></trkpt>
        <trkpt lat="28.265517" lon="105.726325"><ele>975</ele><time>2026-07-19T02:52:33.000Z</time></trkpt>
        <trkpt lat="28.265501" lon="105.726386"><ele>974</ele><time>2026-07-19T02:52:33.000Z</time></trkpt>
        <trkpt lat="28.265504" lon="105.726445"><ele>972</ele><time>2026-07-19T02:52:33.000Z</time></trkpt>
        <trkpt lat="28.265522" lon="105.726492"><ele>973</ele><time>2026-07-19T02:52:33.000Z</time></trkpt>
        <trkpt lat="28.265545" lon="105.726542"><ele>972</ele><time>2026-07-19T02:52:33.000Z</time></trkpt>
        <trkpt lat="28.265549" lon="105.726599"><ele>971</ele><time>2026-07-19T02:52:33.000Z</time></trkpt>
        <trkpt lat="28.2655466" lon="105.7266478"><ele>972</ele><time>2026-07-19T02:52:33.000Z</time></trkpt>
        <trkpt lat="28.265577" lon="105.726683"><ele>972</ele><time>2026-07-19T02:52:33.000Z</time></trkpt>
        <trkpt lat="28.265597" lon="105.72673"><ele>973</ele><time>2026-07-19T02:52:33.000Z</time></trkpt>
        <trkpt lat="28.2656" lon="105.726781"><ele>973</ele><time>2026-07-19T02:52:33.000Z</time></trkpt>
        <trkpt lat="28.265609" lon="105.726837"><ele>973</ele><time>2026-07-19T02:52:33.000Z</time></trkpt>
        <trkpt lat="28.265627" lon="105.726888"><ele>972</ele><time>2026-07-19T02:52:33.000Z</time></trkpt>
        <trkpt lat="28.26566" lon="105.72693"><ele>972</ele><time>2026-07-19T02:52:33.000Z</time></trkpt>
        <trkpt lat="28.2657" lon="105.726965"><ele>972</ele><time>2026-07-19T02:52:33.000Z</time></trkpt>
        <trkpt lat="28.265732" lon="105.727012"><ele>971</ele><time>2026-07-19T02:52:33.000Z</time></trkpt>
        <trkpt lat="28.265752" lon="105.727064"><ele>970</ele><time>2026-07-19T02:52:33.000Z</time></trkpt>
        <trkpt lat="28.265779" lon="105.727109"><ele>970</ele><time>2026-07-19T02:52:33.000Z</time></trkpt>
        <trkpt lat="28.265813" lon="105.727151"><ele>971</ele><time>2026-07-19T02:52:33.000Z</time></trkpt>
        <trkpt lat="28.26585" lon="105.727188"><ele>971</ele><time>2026-07-19T02:52:33.000Z</time></trkpt>
        <trkpt lat="28.265886" lon="105.727228"><ele>970</ele><time>2026-07-19T02:52:33.000Z</time></trkpt>
        <trkpt lat="28.265913" lon="105.727271"><ele>971</ele><time>2026-07-19T02:52:33.000Z</time></trkpt>
        <trkpt lat="28.265932" lon="105.72732"><ele>972</ele><time>2026-07-19T02:52:33.000Z</time></trkpt>
        <trkpt lat="28.265952" lon="105.727369"><ele>972</ele><time>2026-07-19T02:52:33.000Z</time></trkpt>
        <trkpt lat="28.265982" lon="105.727416"><ele>972</ele><time>2026-07-19T02:52:33.000Z</time></trkpt>
        <trkpt lat="28.266005" lon="105.727461"><ele>971</ele><time>2026-07-19T02:52:33.000Z</time></trkpt>
        <trkpt lat="28.266032" lon="105.727506"><ele>972</ele><time>2026-07-19T02:52:33.000Z</time></trkpt>
        <trkpt lat="28.266093" lon="105.727549"><ele>971</ele><time>2026-07-19T02:52:33.000Z</time></trkpt>
        <trkpt lat="28.266114" lon="105.727608"><ele>970</ele><time>2026-07-19T02:52:33.000Z</time></trkpt>
        <trkpt lat="28.266128" lon="105.727673"><ele>970</ele><time>2026-07-19T02:52:33.000Z</time></trkpt>
        <trkpt lat="28.266157" lon="105.727716"><ele>970</ele><time>2026-07-19T02:52:33.000Z</time></trkpt>
        <trkpt lat="28.266188" lon="105.727755"><ele>969</ele><time>2026-07-19T02:52:33.000Z</time></trkpt>
        <trkpt lat="28.266219" lon="105.727796"><ele>969</ele><time>2026-07-19T02:52:33.000Z</time></trkpt>
        <trkpt lat="28.266248" lon="105.727846"><ele>968</ele><time>2026-07-19T02:52:33.000Z</time></trkpt>
        <trkpt lat="28.266278" lon="105.727887"><ele>967</ele><time>2026-07-19T02:52:33.000Z</time></trkpt>
        <trkpt lat="28.266315" lon="105.727928"><ele>965</ele><time>2026-07-19T02:52:33.000Z</time></trkpt>
        <trkpt lat="28.266355" lon="105.727961"><ele>965</ele><time>2026-07-19T02:52:33.000Z</time></trkpt>
        <trkpt lat="28.266389" lon="105.727994"><ele>964</ele><time>2026-07-19T02:52:33.000Z</time></trkpt>
        <trkpt lat="28.26642" lon="105.728032"><ele>964</ele><time>2026-07-19T02:52:33.000Z</time></trkpt>
        <trkpt lat="28.266458" lon="105.728062"><ele>964</ele><time>2026-07-19T02:52:33.000Z</time></trkpt>
        <trkpt lat="28.266504" lon="105.728075"><ele>963</ele><time>2026-07-19T02:52:33.000Z</time></trkpt>
        <trkpt lat="28.266549" lon="105.728077"><ele>963</ele><time>2026-07-19T02:52:33.000Z</time></trkpt>
        <trkpt lat="28.266602" lon="105.728091"><ele>963</ele><time>2026-07-19T02:52:33.000Z</time></trkpt>
        <trkpt lat="28.266644" lon="105.728118"><ele>963</ele><time>2026-07-19T02:52:33.000Z</time></trkpt>
        <trkpt lat="28.266698" lon="105.728138"><ele>963</ele><time>2026-07-19T02:52:33.000Z</time></trkpt>
        <trkpt lat="28.266749" lon="105.72816"><ele>963</ele><time>2026-07-19T02:52:33.000Z</time></trkpt>
        <trkpt lat="28.266782" lon="105.7282"><ele>964</ele><time>2026-07-19T02:52:33.000Z</time></trkpt>
        <trkpt lat="28.266801" lon="105.728257"><ele>963</ele><time>2026-07-19T02:52:33.000Z</time></trkpt>
        <trkpt lat="28.266812" lon="105.728305"><ele>962</ele><time>2026-07-19T02:52:33.000Z</time></trkpt>
        <trkpt lat="28.266852" lon="105.728338"><ele>961</ele><time>2026-07-19T02:52:33.000Z</time></trkpt>
        <trkpt lat="28.266893" lon="105.728372"><ele>962</ele><time>2026-07-19T02:52:33.000Z</time></trkpt>
        <trkpt lat="28.266944" lon="105.728393"><ele>962</ele><time>2026-07-19T02:52:33.000Z</time></trkpt>
        <trkpt lat="28.266988" lon="105.728408"><ele>962</ele><time>2026-07-19T02:52:33.000Z</time></trkpt>
        <trkpt lat="28.267035" lon="105.72842"><ele>962</ele><time>2026-07-19T02:52:33.000Z</time></trkpt>
        <trkpt lat="28.267083" lon="105.728453"><ele>961</ele><time>2026-07-19T02:52:33.000Z</time></trkpt>
        <trkpt lat="28.267132" lon="105.728434"><ele>961</ele><time>2026-07-19T02:52:33.000Z</time></trkpt>
        <trkpt lat="28.26716" lon="105.72839"><ele>961</ele><time>2026-07-19T02:52:33.000Z</time></trkpt>
        <trkpt lat="28.267183" lon="105.728344"><ele>959</ele><time>2026-07-19T02:52:33.000Z</time></trkpt>
        <trkpt lat="28.267232" lon="105.728354"><ele>959</ele><time>2026-07-19T02:52:33.000Z</time></trkpt>
        <trkpt lat="28.267255" lon="105.728315"><ele>957</ele><time>2026-07-19T02:52:33.000Z</time></trkpt>
        <trkpt lat="28.267313" lon="105.728305"><ele>957</ele><time>2026-07-19T02:52:33.000Z</time></trkpt>
        <trkpt lat="28.267352" lon="105.728271"><ele>956</ele><time>2026-07-19T02:52:33.000Z</time></trkpt>
        <trkpt lat="28.267408" lon="105.728245"><ele>955</ele><time>2026-07-19T02:52:33.000Z</time></trkpt>
        <trkpt lat="28.267457" lon="105.72824"><ele>955</ele><time>2026-07-19T02:52:33.000Z</time></trkpt>
        <trkpt lat="28.267502" lon="105.728245"><ele>955</ele><time>2026-07-19T02:52:33.000Z</time></trkpt>
        <trkpt lat="28.267552" lon="105.72825"><ele>955</ele><time>2026-07-19T02:52:33.000Z</time></trkpt>
        <trkpt lat="28.26761" lon="105.728267"><ele>956</ele><time>2026-07-19T02:52:33.000Z</time></trkpt>
        <trkpt lat="28.267655" lon="105.728225"><ele>955</ele><time>2026-07-19T02:52:33.000Z</time></trkpt>
        <trkpt lat="28.267689" lon="105.728189"><ele>954</ele><time>2026-07-19T02:52:33.000Z</time></trkpt>
        <trkpt lat="28.267704" lon="105.728141"><ele>953</ele><time>2026-07-19T02:52:33.000Z</time></trkpt>
        <trkpt lat="28.267718" lon="105.728097"><ele>951</ele><time>2026-07-19T02:52:33.000Z</time></trkpt>
        <trkpt lat="28.267745" lon="105.728074"><ele>947</ele><time>2026-07-19T02:52:33.000Z</time></trkpt>
        <trkpt lat="28.267782" lon="105.728044"><ele>945</ele><time>2026-07-19T02:52:33.000Z</time></trkpt>
        <trkpt lat="28.267823" lon="105.728"><ele>942</ele><time>2026-07-19T02:52:33.000Z</time></trkpt>
        <trkpt lat="28.267857" lon="105.727967"><ele>941</ele><time>2026-07-19T02:52:33.000Z</time></trkpt>
        <trkpt lat="28.267907" lon="105.72794"><ele>940</ele><time>2026-07-19T02:52:33.000Z</time></trkpt>
        <trkpt lat="28.26794" lon="105.727905"><ele>938</ele><time>2026-07-19T02:52:33.000Z</time></trkpt>
        <trkpt lat="28.267968" lon="105.727867"><ele>937</ele><time>2026-07-19T02:52:33.000Z</time></trkpt>
        <trkpt lat="28.268023" lon="105.727845"><ele>937</ele><time>2026-07-19T02:52:33.000Z</time></trkpt>
        <trkpt lat="28.268075" lon="105.727851"><ele>937</ele><time>2026-07-19T02:52:33.000Z</time></trkpt>
        <trkpt lat="28.268118" lon="105.727841"><ele>936</ele><time>2026-07-19T02:52:33.000Z</time></trkpt>
        <trkpt lat="28.268155" lon="105.727876"><ele>937</ele><time>2026-07-19T02:52:33.000Z</time></trkpt>
        <trkpt lat="28.268203" lon="105.727882"><ele>935</ele><time>2026-07-19T02:52:33.000Z</time></trkpt>
        <trkpt lat="28.268239" lon="105.727916"><ele>934</ele><time>2026-07-19T02:52:33.000Z</time></trkpt>
        <trkpt lat="28.268262" lon="105.727962"><ele>934</ele><time>2026-07-19T02:52:33.000Z</time></trkpt>
        <trkpt lat="28.268296" lon="105.727996"><ele>932</ele><time>2026-07-19T02:52:33.000Z</time></trkpt>
        <trkpt lat="28.268315" lon="105.727981"><ele>928</ele><time>2026-07-19T02:52:33.000Z</time></trkpt>
        <trkpt lat="28.268363" lon="105.727961"><ele>927</ele><time>2026-07-19T02:52:33.000Z</time></trkpt>
        <trkpt lat="28.268416" lon="105.727972"><ele>925</ele><time>2026-07-19T02:52:33.000Z</time></trkpt>
        <trkpt lat="28.268466" lon="105.727976"><ele>924</ele><time>2026-07-19T02:52:33.000Z</time></trkpt>
        <trkpt lat="28.268516" lon="105.727979"><ele>924</ele><time>2026-07-19T02:52:33.000Z</time></trkpt>
        <trkpt lat="28.268563" lon="105.727998"><ele>924</ele><time>2026-07-19T02:52:33.000Z</time></trkpt>
        <trkpt lat="28.268592" lon="105.728041"><ele>927</ele><time>2026-07-19T02:52:33.000Z</time></trkpt>
        <trkpt lat="28.268599" lon="105.728091"><ele>927</ele><time>2026-07-19T02:52:33.000Z</time></trkpt>
        <trkpt lat="28.268605" lon="105.728149"><ele>927</ele><time>2026-07-19T02:52:33.000Z</time></trkpt>
        <trkpt lat="28.268619" lon="105.728205"><ele>926</ele><time>2026-07-19T02:52:33.000Z</time></trkpt>
        <trkpt lat="28.268642" lon="105.728253"><ele>925</ele><time>2026-07-19T02:52:33.000Z</time></trkpt>
        <trkpt lat="28.268696" lon="105.728257"><ele>925</ele><time>2026-07-19T02:52:33.000Z</time></trkpt>
        <trkpt lat="28.268743" lon="105.728235"><ele>924</ele><time>2026-07-19T02:52:33.000Z</time></trkpt>
        <trkpt lat="28.268798" lon="105.728185"><ele>921</ele><time>2026-07-19T02:52:33.000Z</time></trkpt>
        <trkpt lat="28.26885" lon="105.72819"><ele>921</ele><time>2026-07-19T02:52:33.000Z</time></trkpt>
        <trkpt lat="28.268902" lon="105.728196"><ele>922</ele><time>2026-07-19T02:52:33.000Z</time></trkpt>
        <trkpt lat="28.268953" lon="105.728204"><ele>923</ele><time>2026-07-19T02:52:33.000Z</time></trkpt>
        <trkpt lat="28.26899" lon="105.728233"><ele>924</ele><time>2026-07-19T02:52:33.000Z</time></trkpt>
        <trkpt lat="28.269031" lon="105.72827"><ele>924</ele><time>2026-07-19T02:52:33.000Z</time></trkpt>
        <trkpt lat="28.269072" lon="105.72829"><ele>926</ele><time>2026-07-19T02:52:33.000Z</time></trkpt>
        <trkpt lat="28.269112" lon="105.728313"><ele>927</ele><time>2026-07-19T02:52:33.000Z</time></trkpt>
        <trkpt lat="28.269156" lon="105.728347"><ele>927</ele><time>2026-07-19T02:52:33.000Z</time></trkpt>
        <trkpt lat="28.269199" lon="105.728379"><ele>925</ele><time>2026-07-19T02:52:33.000Z</time></trkpt>
        <trkpt lat="28.269242" lon="105.728404"><ele>926</ele><time>2026-07-19T02:52:33.000Z</time></trkpt>
        <trkpt lat="28.269278" lon="105.728438"><ele>926</ele><time>2026-07-19T02:52:33.000Z</time></trkpt>
        <trkpt lat="28.269321" lon="105.728468"><ele>926</ele><time>2026-07-19T02:52:33.000Z</time></trkpt>
        <trkpt lat="28.269366" lon="105.728506"><ele>926</ele><time>2026-07-19T02:52:33.000Z</time></trkpt>
        <trkpt lat="28.269392" lon="105.728556"><ele>926</ele><time>2026-07-19T02:52:33.000Z</time></trkpt>
        <trkpt lat="28.269409" lon="105.728608"><ele>926</ele><time>2026-07-19T02:52:33.000Z</time></trkpt>
        <trkpt lat="28.26943" lon="105.728661"><ele>925</ele><time>2026-07-19T02:52:33.000Z</time></trkpt>
        <trkpt lat="28.269471" lon="105.728684"><ele>925</ele><time>2026-07-19T02:52:33.000Z</time></trkpt>
        <trkpt lat="28.269521" lon="105.728707"><ele>925</ele><time>2026-07-19T02:52:33.000Z</time></trkpt>
        <trkpt lat="28.269557" lon="105.728749"><ele>924</ele><time>2026-07-19T02:52:33.000Z</time></trkpt>
        <trkpt lat="28.269589" lon="105.728801"><ele>924</ele><time>2026-07-19T02:52:33.000Z</time></trkpt>
        <trkpt lat="28.269626" lon="105.728837"><ele>924</ele><time>2026-07-19T02:52:33.000Z</time></trkpt>
        <trkpt lat="28.269664" lon="105.728871"><ele>924</ele><time>2026-07-19T02:52:33.000Z</time></trkpt>
        <trkpt lat="28.269689" lon="105.728915"><ele>923</ele><time>2026-07-19T02:52:33.000Z</time></trkpt>
        <trkpt lat="28.269717" lon="105.728962"><ele>924</ele><time>2026-07-19T02:52:33.000Z</time></trkpt>
        <trkpt lat="28.269755" lon="105.728992"><ele>925</ele><time>2026-07-19T02:52:33.000Z</time></trkpt>
        <trkpt lat="28.269785" lon="105.72903"><ele>923</ele><time>2026-07-19T02:52:33.000Z</time></trkpt>
        <trkpt lat="28.269816" lon="105.729063"><ele>922</ele><time>2026-07-19T02:52:33.000Z</time></trkpt>
        <trkpt lat="28.269844" lon="105.729086"><ele>918</ele><time>2026-07-19T02:52:33.000Z</time></trkpt>
        <trkpt lat="28.269884" lon="105.729109"><ele>916</ele><time>2026-07-19T02:52:33.000Z</time></trkpt>
        <trkpt lat="28.269908" lon="105.729158"><ele>914</ele><time>2026-07-19T02:52:33.000Z</time></trkpt>
        <trkpt lat="28.269903" lon="105.729208"><ele>912</ele><time>2026-07-19T02:52:33.000Z</time></trkpt>
        <trkpt lat="28.269902" lon="105.729265"><ele>910</ele><time>2026-07-19T02:52:33.000Z</time></trkpt>
        <trkpt lat="28.26991" lon="105.729317"><ele>909</ele><time>2026-07-19T02:52:33.000Z</time></trkpt>
        <trkpt lat="28.269928" lon="105.729373"><ele>910</ele><time>2026-07-19T02:52:33.000Z</time></trkpt>
        <trkpt lat="28.269926" lon="105.729431"><ele>909</ele><time>2026-07-19T02:52:33.000Z</time></trkpt>
        <trkpt lat="28.26992" lon="105.729489"><ele>907</ele><time>2026-07-19T02:52:33.000Z</time></trkpt>
        <trkpt lat="28.26991" lon="105.729543"><ele>906</ele><time>2026-07-19T02:52:33.000Z</time></trkpt>
        <trkpt lat="28.269892" lon="105.729596"><ele>905</ele><time>2026-07-19T02:52:33.000Z</time></trkpt>
        <trkpt lat="28.269885" lon="105.729654"><ele>904</ele><time>2026-07-19T02:52:33.000Z</time></trkpt>
        <trkpt lat="28.269894" lon="105.729705"><ele>904</ele><time>2026-07-19T02:52:33.000Z</time></trkpt>
        <trkpt lat="28.269894" lon="105.729761"><ele>905</ele><time>2026-07-19T02:52:33.000Z</time></trkpt>
        <trkpt lat="28.269873" lon="105.72981"><ele>903</ele><time>2026-07-19T02:52:33.000Z</time></trkpt>
        <trkpt lat="28.269857" lon="105.729869"><ele>903</ele><time>2026-07-19T02:52:33.000Z</time></trkpt>
        <trkpt lat="28.26986" lon="105.729924"><ele>902</ele><time>2026-07-19T02:52:33.000Z</time></trkpt>
        <trkpt lat="28.269854" lon="105.729978"><ele>902</ele><time>2026-07-19T02:52:33.000Z</time></trkpt>
        <trkpt lat="28.269847" lon="105.730034"><ele>901</ele><time>2026-07-19T02:52:33.000Z</time></trkpt>
        <trkpt lat="28.269851" lon="105.730092"><ele>901</ele><time>2026-07-19T02:52:33.000Z</time></trkpt>
        <trkpt lat="28.269851" lon="105.73015"><ele>900</ele><time>2026-07-19T02:52:33.000Z</time></trkpt>
        <trkpt lat="28.269841" lon="105.730203"><ele>898</ele><time>2026-07-19T02:52:33.000Z</time></trkpt>
        <trkpt lat="28.269838" lon="105.730256"><ele>898</ele><time>2026-07-19T02:52:33.000Z</time></trkpt>
        <trkpt lat="28.269833" lon="105.73031"><ele>898</ele><time>2026-07-19T02:52:33.000Z</time></trkpt>
        <trkpt lat="28.269826" lon="105.73036"><ele>897</ele><time>2026-07-19T02:52:33.000Z</time></trkpt>
        <trkpt lat="28.269803" lon="105.730389"><ele>893</ele><time>2026-07-19T02:52:33.000Z</time></trkpt>
        <trkpt lat="28.269782" lon="105.730437"><ele>891</ele><time>2026-07-19T02:52:33.000Z</time></trkpt>
        <trkpt lat="28.269741" lon="105.730459"><ele>891</ele><time>2026-07-19T02:52:33.000Z</time></trkpt>
        <trkpt lat="28.269702" lon="105.730486"><ele>891</ele><time>2026-07-19T02:52:33.000Z</time></trkpt>
        <trkpt lat="28.269676" lon="105.730537"><ele>891</ele><time>2026-07-19T02:52:33.000Z</time></trkpt>
        <trkpt lat="28.269652" lon="105.73059"><ele>892</ele><time>2026-07-19T02:52:33.000Z</time></trkpt>
        <trkpt lat="28.2696391" lon="105.7306802"><ele>892</ele><time>2026-07-19T02:52:33.000Z</time></trkpt>
        <trkpt lat="28.2696391" lon="105.7306802"><ele>950</ele><time>2026-07-19T02:52:33.000Z</time></trkpt>
        <trkpt lat="28.2696391" lon="105.7306802"><ele>890</ele><time>2026-07-19T02:52:33.000Z</time></trkpt>
        <trkpt lat="28.26959" lon="105.730706"><ele>890</ele><time>2026-07-19T02:52:35.000Z</time></trkpt>
        <trkpt lat="28.269545" lon="105.730705"><ele>890</ele><time>2026-07-19T02:52:42.000Z</time></trkpt>
        <trkpt lat="28.269486" lon="105.730702"><ele>890</ele><time>2026-07-19T02:52:46.000Z</time></trkpt>
        <trkpt lat="28.269436" lon="105.730706"><ele>888</ele><time>2026-07-19T02:52:49.000Z</time></trkpt>
        <trkpt lat="28.269393" lon="105.730711"><ele>887</ele><time>2026-07-19T02:52:51.000Z</time></trkpt>
        <trkpt lat="28.269345" lon="105.730719"><ele>885</ele><time>2026-07-19T02:52:53.000Z</time></trkpt>
        <trkpt lat="28.269294" lon="105.730726"><ele>885</ele><time>2026-07-19T02:52:55.000Z</time></trkpt>
        <trkpt lat="28.269239" lon="105.730739"><ele>884</ele><time>2026-07-19T02:52:57.000Z</time></trkpt>
        <trkpt lat="28.269185" lon="105.730753"><ele>883</ele><time>2026-07-19T02:52:59.000Z</time></trkpt>
        <trkpt lat="28.269134" lon="105.73077"><ele>883</ele><time>2026-07-19T02:53:01.000Z</time></trkpt>
        <trkpt lat="28.269089" lon="105.730792"><ele>882</ele><time>2026-07-19T02:53:03.000Z</time></trkpt>
        <trkpt lat="28.269024" lon="105.730807"><ele>881</ele><time>2026-07-19T02:53:06.000Z</time></trkpt>
        <trkpt lat="28.268959" lon="105.730803"><ele>881</ele><time>2026-07-19T02:53:08.000Z</time></trkpt>
        <trkpt lat="28.268899" lon="105.7308"><ele>880</ele><time>2026-07-19T02:53:10.000Z</time></trkpt>
        <trkpt lat="28.268827" lon="105.730802"><ele>880</ele><time>2026-07-19T02:53:12.000Z</time></trkpt>
        <trkpt lat="28.268739" lon="105.730809"><ele>879</ele><time>2026-07-19T02:53:14.000Z</time></trkpt>
        <trkpt lat="28.26869" lon="105.730814"><ele>879</ele><time>2026-07-19T02:53:15.000Z</time></trkpt>
        <trkpt lat="28.268639" lon="105.730822"><ele>879</ele><time>2026-07-19T02:53:16.000Z</time></trkpt>
        <trkpt lat="28.268588" lon="105.73083"><ele>879</ele><time>2026-07-19T02:53:17.000Z</time></trkpt>
        <trkpt lat="28.268536" lon="105.730835"><ele>880</ele><time>2026-07-19T02:53:18.000Z</time></trkpt>
        <trkpt lat="28.268483" lon="105.73084"><ele>880</ele><time>2026-07-19T02:53:19.000Z</time></trkpt>
        <trkpt lat="28.268433" lon="105.730845"><ele>881</ele><time>2026-07-19T02:53:20.000Z</time></trkpt>
        <trkpt lat="28.268381" lon="105.73085"><ele>882</ele><time>2026-07-19T02:53:21.000Z</time></trkpt>
        <trkpt lat="28.268329" lon="105.730853"><ele>883</ele><time>2026-07-19T02:53:22.000Z</time></trkpt>
        <trkpt lat="28.268279" lon="105.730861"><ele>884</ele><time>2026-07-19T02:53:23.000Z</time></trkpt>
        <trkpt lat="28.268226" lon="105.730863"><ele>885</ele><time>2026-07-19T02:53:24.000Z</time></trkpt>
        <trkpt lat="28.268182" lon="105.730872"><ele>886</ele><time>2026-07-19T02:53:25.000Z</time></trkpt>
        <trkpt lat="28.268111" lon="105.730879"><ele>888</ele><time>2026-07-19T02:53:27.000Z</time></trkpt>
        <trkpt lat="28.268063" lon="105.730885"><ele>889</ele><time>2026-07-19T02:53:29.000Z</time></trkpt>
        <trkpt lat="28.268008" lon="105.730893"><ele>891</ele><time>2026-07-19T02:53:33.000Z</time></trkpt>
        <trkpt lat="28.267959" lon="105.730906"><ele>890</ele><time>2026-07-19T02:53:37.000Z</time></trkpt>
        <trkpt lat="28.267888" lon="105.730902"><ele>892</ele><time>2026-07-19T02:53:40.000Z</time></trkpt>
        <trkpt lat="28.267832" lon="105.730915"><ele>892</ele><time>2026-07-19T02:53:42.000Z</time></trkpt>
        <trkpt lat="28.267766" lon="105.730934"><ele>893</ele><time>2026-07-19T02:53:44.000Z</time></trkpt>
        <trkpt lat="28.267693" lon="105.730949"><ele>893</ele><time>2026-07-19T02:53:46.000Z</time></trkpt>
        <trkpt lat="28.267617" lon="105.730966"><ele>893</ele><time>2026-07-19T02:53:48.000Z</time></trkpt>
        <trkpt lat="28.267538" lon="105.730993"><ele>894</ele><time>2026-07-19T02:53:50.000Z</time></trkpt>
        <trkpt lat="28.267463" lon="105.731041"><ele>894</ele><time>2026-07-19T02:53:52.000Z</time></trkpt>
        <trkpt lat="28.267424" lon="105.731069"><ele>894</ele><time>2026-07-19T02:53:53.000Z</time></trkpt>
        <trkpt lat="28.267381" lon="105.731099"><ele>894</ele><time>2026-07-19T02:53:54.000Z</time></trkpt>
        <trkpt lat="28.267341" lon="105.731133"><ele>894</ele><time>2026-07-19T02:53:55.000Z</time></trkpt>
        <trkpt lat="28.267301" lon="105.731168"><ele>894</ele><time>2026-07-19T02:53:56.000Z</time></trkpt>
        <trkpt lat="28.267261" lon="105.731199"><ele>893</ele><time>2026-07-19T02:53:57.000Z</time></trkpt>
        <trkpt lat="28.267222" lon="105.731233"><ele>894</ele><time>2026-07-19T02:53:58.000Z</time></trkpt>
        <trkpt lat="28.267188" lon="105.731269"><ele>893</ele><time>2026-07-19T02:53:59.000Z</time></trkpt>
        <trkpt lat="28.267122" lon="105.731334"><ele>893</ele><time>2026-07-19T02:54:01.000Z</time></trkpt>
        <trkpt lat="28.267054" lon="105.7314"><ele>893</ele><time>2026-07-19T02:54:03.000Z</time></trkpt>
        <trkpt lat="28.26702" lon="105.731436"><ele>893</ele><time>2026-07-19T02:54:04.000Z</time></trkpt>
        <trkpt lat="28.26699" lon="105.731474"><ele>893</ele><time>2026-07-19T02:54:05.000Z</time></trkpt>
        <trkpt lat="28.266963" lon="105.731518"><ele>893</ele><time>2026-07-19T02:54:06.000Z</time></trkpt>
        <trkpt lat="28.266942" lon="105.731567"><ele>894</ele><time>2026-07-19T02:54:07.000Z</time></trkpt>
        <trkpt lat="28.266928" lon="105.731622"><ele>894</ele><time>2026-07-19T02:54:08.000Z</time></trkpt>
        <trkpt lat="28.266924" lon="105.731682"><ele>894</ele><time>2026-07-19T02:54:09.000Z</time></trkpt>
        <trkpt lat="28.266926" lon="105.731743"><ele>894</ele><time>2026-07-19T02:54:10.000Z</time></trkpt>
        <trkpt lat="28.266929" lon="105.731804"><ele>894</ele><time>2026-07-19T02:54:11.000Z</time></trkpt>
        <trkpt lat="28.266931" lon="105.731868"><ele>894</ele><time>2026-07-19T02:54:12.000Z</time></trkpt>
        <trkpt lat="28.266932" lon="105.731931"><ele>894</ele><time>2026-07-19T02:54:13.000Z</time></trkpt>
        <trkpt lat="28.266931" lon="105.731997"><ele>894</ele><time>2026-07-19T02:54:14.000Z</time></trkpt>
        <trkpt lat="28.266928" lon="105.732062"><ele>894</ele><time>2026-07-19T02:54:15.000Z</time></trkpt>
        <trkpt lat="28.266924" lon="105.732128"><ele>895</ele><time>2026-07-19T02:54:16.000Z</time></trkpt>
        <trkpt lat="28.266919" lon="105.732194"><ele>895</ele><time>2026-07-19T02:54:17.000Z</time></trkpt>
        <trkpt lat="28.266914" lon="105.732264"><ele>897</ele><time>2026-07-19T02:54:18.000Z</time></trkpt>
        <trkpt lat="28.26691" lon="105.732327"><ele>897</ele><time>2026-07-19T02:54:19.000Z</time></trkpt>
        <trkpt lat="28.266905" lon="105.732389"><ele>897</ele><time>2026-07-19T02:54:20.000Z</time></trkpt>
        <trkpt lat="28.266894" lon="105.732452"><ele>898</ele><time>2026-07-19T02:54:21.000Z</time></trkpt>
        <trkpt lat="28.266874" lon="105.732511"><ele>898</ele><time>2026-07-19T02:54:22.000Z</time></trkpt>
        <trkpt lat="28.266851" lon="105.732569"><ele>898</ele><time>2026-07-19T02:54:23.000Z</time></trkpt>
        <trkpt lat="28.266824" lon="105.732625"><ele>898</ele><time>2026-07-19T02:54:24.000Z</time></trkpt>
        <trkpt lat="28.266797" lon="105.732681"><ele>899</ele><time>2026-07-19T02:54:25.000Z</time></trkpt>
        <trkpt lat="28.266768" lon="105.732735"><ele>899</ele><time>2026-07-19T02:54:26.000Z</time></trkpt>
        <trkpt lat="28.266739" lon="105.732791"><ele>899</ele><time>2026-07-19T02:54:27.000Z</time></trkpt>
        <trkpt lat="28.266713" lon="105.73285"><ele>899</ele><time>2026-07-19T02:54:28.000Z</time></trkpt>
        <trkpt lat="28.266691" lon="105.732908"><ele>899</ele><time>2026-07-19T02:54:29.000Z</time></trkpt>
        <trkpt lat="28.266671" lon="105.732967"><ele>899</ele><time>2026-07-19T02:54:30.000Z</time></trkpt>
        <trkpt lat="28.266654" lon="105.733023"><ele>899</ele><time>2026-07-19T02:54:31.000Z</time></trkpt>
        <trkpt lat="28.26664" lon="105.733079"><ele>899</ele><time>2026-07-19T02:54:32.000Z</time></trkpt>
        <trkpt lat="28.26663" lon="105.733131"><ele>899</ele><time>2026-07-19T02:54:33.000Z</time></trkpt>
        <trkpt lat="28.266615" lon="105.733219"><ele>899</ele><time>2026-07-19T02:54:35.000Z</time></trkpt>
        <trkpt lat="28.266602" lon="105.733289"><ele>899</ele><time>2026-07-19T02:54:37.000Z</time></trkpt>
        <trkpt lat="28.266576" lon="105.733345"><ele>899</ele><time>2026-07-19T02:54:39.000Z</time></trkpt>
        <trkpt lat="28.266533" lon="105.733389"><ele>900</ele><time>2026-07-19T02:54:41.000Z</time></trkpt>
        <trkpt lat="28.266468" lon="105.733421"><ele>900</ele><time>2026-07-19T02:54:43.000Z</time></trkpt>
        <trkpt lat="28.266372" lon="105.733428"><ele>899</ele><time>2026-07-19T02:54:45.000Z</time></trkpt>
        <trkpt lat="28.26632" lon="105.733425"><ele>899</ele><time>2026-07-19T02:54:46.000Z</time></trkpt>
        <trkpt lat="28.266272" lon="105.733407"><ele>899</ele><time>2026-07-19T02:54:47.000Z</time></trkpt>
        <trkpt lat="28.26622" lon="105.733386"><ele>898</ele><time>2026-07-19T02:54:48.000Z</time></trkpt>
        <trkpt lat="28.266165" lon="105.733362"><ele>899</ele><time>2026-07-19T02:54:49.000Z</time></trkpt>
        <trkpt lat="28.266112" lon="105.73334"><ele>898</ele><time>2026-07-19T02:54:50.000Z</time></trkpt>
        <trkpt lat="28.266058" lon="105.733318"><ele>898</ele><time>2026-07-19T02:54:51.000Z</time></trkpt>
        <trkpt lat="28.266004" lon="105.733294"><ele>898</ele><time>2026-07-19T02:54:52.000Z</time></trkpt>
        <trkpt lat="28.26595" lon="105.733271"><ele>898</ele><time>2026-07-19T02:54:53.000Z</time></trkpt>
        <trkpt lat="28.265905" lon="105.733245"><ele>899</ele><time>2026-07-19T02:54:54.000Z</time></trkpt>
        <trkpt lat="28.265852" lon="105.733227"><ele>899</ele><time>2026-07-19T02:54:55.000Z</time></trkpt>
        <trkpt lat="28.265805" lon="105.733204"><ele>899</ele><time>2026-07-19T02:54:56.000Z</time></trkpt>
        <trkpt lat="28.265753" lon="105.733186"><ele>899</ele><time>2026-07-19T02:54:57.000Z</time></trkpt>
        <trkpt lat="28.265703" lon="105.733165"><ele>899</ele><time>2026-07-19T02:54:58.000Z</time></trkpt>
        <trkpt lat="28.265648" lon="105.733145"><ele>899</ele><time>2026-07-19T02:54:59.000Z</time></trkpt>
        <trkpt lat="28.265593" lon="105.733125"><ele>899</ele><time>2026-07-19T02:55:00.000Z</time></trkpt>
        <trkpt lat="28.265536" lon="105.733107"><ele>899</ele><time>2026-07-19T02:55:01.000Z</time></trkpt>
        <trkpt lat="28.265478" lon="105.733096"><ele>898</ele><time>2026-07-19T02:55:02.000Z</time></trkpt>
        <trkpt lat="28.265414" lon="105.733085"><ele>898</ele><time>2026-07-19T02:55:03.000Z</time></trkpt>
        <trkpt lat="28.265352" lon="105.733081"><ele>898</ele><time>2026-07-19T02:55:04.000Z</time></trkpt>
        <trkpt lat="28.265288" lon="105.733078"><ele>898</ele><time>2026-07-19T02:55:05.000Z</time></trkpt>
        <trkpt lat="28.265224" lon="105.733083"><ele>898</ele><time>2026-07-19T02:55:06.000Z</time></trkpt>
        <trkpt lat="28.265094" lon="105.733101"><ele>898</ele><time>2026-07-19T02:55:08.000Z</time></trkpt>
        <trkpt lat="28.265023" lon="105.733116"><ele>898</ele><time>2026-07-19T02:55:09.000Z</time></trkpt>
        <trkpt lat="28.264952" lon="105.733132"><ele>898</ele><time>2026-07-19T02:55:10.000Z</time></trkpt>
        <trkpt lat="28.264878" lon="105.733145"><ele>898</ele><time>2026-07-19T02:55:11.000Z</time></trkpt>
        <trkpt lat="28.264801" lon="105.733156"><ele>898</ele><time>2026-07-19T02:55:12.000Z</time></trkpt>
        <trkpt lat="28.264729" lon="105.733175"><ele>898</ele><time>2026-07-19T02:55:13.000Z</time></trkpt>
        <trkpt lat="28.264654" lon="105.733201"><ele>898</ele><time>2026-07-19T02:55:14.000Z</time></trkpt>
        <trkpt lat="28.264582" lon="105.733235"><ele>898</ele><time>2026-07-19T02:55:15.000Z</time></trkpt>
        <trkpt lat="28.264506" lon="105.733265"><ele>898</ele><time>2026-07-19T02:55:16.000Z</time></trkpt>
        <trkpt lat="28.264431" lon="105.733294"><ele>898</ele><time>2026-07-19T02:55:17.000Z</time></trkpt>
        <trkpt lat="28.264355" lon="105.733322"><ele>899</ele><time>2026-07-19T02:55:18.000Z</time></trkpt>
        <trkpt lat="28.264283" lon="105.733361"><ele>899</ele><time>2026-07-19T02:55:19.000Z</time></trkpt>
        <trkpt lat="28.26421" lon="105.733393"><ele>899</ele><time>2026-07-19T02:55:20.000Z</time></trkpt>
        <trkpt lat="28.26414" lon="105.733433"><ele>899</ele><time>2026-07-19T02:55:21.000Z</time></trkpt>
        <trkpt lat="28.264076" lon="105.733475"><ele>899</ele><time>2026-07-19T02:55:22.000Z</time></trkpt>
        <trkpt lat="28.264013" lon="105.733511"><ele>899</ele><time>2026-07-19T02:55:23.000Z</time></trkpt>
        <trkpt lat="28.263949" lon="105.733554"><ele>899</ele><time>2026-07-19T02:55:24.000Z</time></trkpt>
        <trkpt lat="28.263882" lon="105.733594"><ele>899</ele><time>2026-07-19T02:55:25.000Z</time></trkpt>
        <trkpt lat="28.263816" lon="105.733636"><ele>899</ele><time>2026-07-19T02:55:26.000Z</time></trkpt>
        <trkpt lat="28.263748" lon="105.733678"><ele>899</ele><time>2026-07-19T02:55:27.000Z</time></trkpt>
        <trkpt lat="28.263679" lon="105.733711"><ele>899</ele><time>2026-07-19T02:55:28.000Z</time></trkpt>
        <trkpt lat="28.263611" lon="105.733754"><ele>899</ele><time>2026-07-19T02:55:29.000Z</time></trkpt>
        <trkpt lat="28.263541" lon="105.733784"><ele>899</ele><time>2026-07-19T02:55:30.000Z</time></trkpt>
        <trkpt lat="28.263479" lon="105.733816"><ele>899</ele><time>2026-07-19T02:55:31.000Z</time></trkpt>
        <trkpt lat="28.263408" lon="105.733856"><ele>899</ele><time>2026-07-19T02:55:32.000Z</time></trkpt>
        <trkpt lat="28.263336" lon="105.733894"><ele>899</ele><time>2026-07-19T02:55:33.000Z</time></trkpt>
        <trkpt lat="28.263263" lon="105.733938"><ele>899</ele><time>2026-07-19T02:55:34.000Z</time></trkpt>
        <trkpt lat="28.263185" lon="105.733967"><ele>899</ele><time>2026-07-19T02:55:35.000Z</time></trkpt>
        <trkpt lat="28.263112" lon="105.733998"><ele>899</ele><time>2026-07-19T02:55:36.000Z</time></trkpt>
        <trkpt lat="28.263042" lon="105.734028"><ele>900</ele><time>2026-07-19T02:55:37.000Z</time></trkpt>
        <trkpt lat="28.262974" lon="105.734063"><ele>901</ele><time>2026-07-19T02:55:38.000Z</time></trkpt>
        <trkpt lat="28.26291" lon="105.734098"><ele>901</ele><time>2026-07-19T02:55:39.000Z</time></trkpt>
        <trkpt lat="28.262847" lon="105.734136"><ele>902</ele><time>2026-07-19T02:55:40.000Z</time></trkpt>
        <trkpt lat="28.262784" lon="105.73417"><ele>902</ele><time>2026-07-19T02:55:41.000Z</time></trkpt>
        <trkpt lat="28.26272" lon="105.734202"><ele>903</ele><time>2026-07-19T02:55:42.000Z</time></trkpt>
        <trkpt lat="28.262657" lon="105.734227"><ele>903</ele><time>2026-07-19T02:55:43.000Z</time></trkpt>
        <trkpt lat="28.262591" lon="105.734249"><ele>904</ele><time>2026-07-19T02:55:44.000Z</time></trkpt>
        <trkpt lat="28.262525" lon="105.734268"><ele>904</ele><time>2026-07-19T02:55:45.000Z</time></trkpt>
        <trkpt lat="28.262457" lon="105.73428"><ele>904</ele><time>2026-07-19T02:55:46.000Z</time></trkpt>
        <trkpt lat="28.262388" lon="105.734287"><ele>904</ele><time>2026-07-19T02:55:47.000Z</time></trkpt>
        <trkpt lat="28.26232" lon="105.73429"><ele>905</ele><time>2026-07-19T02:55:48.000Z</time></trkpt>
        <trkpt lat="28.262253" lon="105.734281"><ele>905</ele><time>2026-07-19T02:55:49.000Z</time></trkpt>
        <trkpt lat="28.26219" lon="105.734268"><ele>905</ele><time>2026-07-19T02:55:50.000Z</time></trkpt>
        <trkpt lat="28.262137" lon="105.734259"><ele>906</ele><time>2026-07-19T02:55:51.000Z</time></trkpt>
        <trkpt lat="28.262059" lon="105.734258"><ele>906</ele><time>2026-07-19T02:55:53.000Z</time></trkpt>
        <trkpt lat="28.261971" lon="105.734254"><ele>907</ele><time>2026-07-19T02:55:55.000Z</time></trkpt>
        <trkpt lat="28.261922" lon="105.734258"><ele>907</ele><time>2026-07-19T02:55:56.000Z</time></trkpt>
        <trkpt lat="28.261873" lon="105.734272"><ele>907</ele><time>2026-07-19T02:55:57.000Z</time></trkpt>
        <trkpt lat="28.261822" lon="105.734295"><ele>907</ele><time>2026-07-19T02:55:58.000Z</time></trkpt>
        <trkpt lat="28.261774" lon="105.734329"><ele>907</ele><time>2026-07-19T02:55:59.000Z</time></trkpt>
        <trkpt lat="28.26173" lon="105.734362"><ele>907</ele><time>2026-07-19T02:56:00.000Z</time></trkpt>
        <trkpt lat="28.261689" lon="105.73439"><ele>907</ele><time>2026-07-19T02:56:01.000Z</time></trkpt>
        <trkpt lat="28.261646" lon="105.734411"><ele>907</ele><time>2026-07-19T02:56:02.000Z</time></trkpt>
        <trkpt lat="28.261601" lon="105.734424"><ele>907</ele><time>2026-07-19T02:56:03.000Z</time></trkpt>
        <trkpt lat="28.261555" lon="105.734425"><ele>907</ele><time>2026-07-19T02:56:04.000Z</time></trkpt>
        <trkpt lat="28.261508" lon="105.734415"><ele>907</ele><time>2026-07-19T02:56:05.000Z</time></trkpt>
        <trkpt lat="28.261462" lon="105.734386"><ele>907</ele><time>2026-07-19T02:56:06.000Z</time></trkpt>
        <trkpt lat="28.261416" lon="105.734353"><ele>906</ele><time>2026-07-19T02:56:07.000Z</time></trkpt>
        <trkpt lat="28.261367" lon="105.734319"><ele>906</ele><time>2026-07-19T02:56:08.000Z</time></trkpt>
        <trkpt lat="28.261315" lon="105.734283"><ele>906</ele><time>2026-07-19T02:56:09.000Z</time></trkpt>
        <trkpt lat="28.26126" lon="105.734241"><ele>907</ele><time>2026-07-19T02:56:10.000Z</time></trkpt>
        <trkpt lat="28.261203" lon="105.734203"><ele>907</ele><time>2026-07-19T02:56:11.000Z</time></trkpt>
        <trkpt lat="28.261146" lon="105.734164"><ele>907</ele><time>2026-07-19T02:56:12.000Z</time></trkpt>
        <trkpt lat="28.261087" lon="105.734074"><ele>906</ele><time>2026-07-19T02:56:13.000Z</time></trkpt>
        <trkpt lat="28.261027" lon="105.734043"><ele>907</ele><time>2026-07-19T02:56:14.000Z</time></trkpt>
        <trkpt lat="28.260965" lon="105.734013"><ele>907</ele><time>2026-07-19T02:56:15.000Z</time></trkpt>
        <trkpt lat="28.260904" lon="105.733989"><ele>907</ele><time>2026-07-19T02:56:16.000Z</time></trkpt>
        <trkpt lat="28.260844" lon="105.73397"><ele>907</ele><time>2026-07-19T02:56:17.000Z</time></trkpt>
        <trkpt lat="28.260786" lon="105.733954"><ele>907</ele><time>2026-07-19T02:56:18.000Z</time></trkpt>
        <trkpt lat="28.260728" lon="105.73394"><ele>907</ele><time>2026-07-19T02:56:19.000Z</time></trkpt>
        <trkpt lat="28.26067" lon="105.733929"><ele>907</ele><time>2026-07-19T02:56:20.000Z</time></trkpt>
        <trkpt lat="28.26061" lon="105.733922"><ele>908</ele><time>2026-07-19T02:56:21.000Z</time></trkpt>
        <trkpt lat="28.260548" lon="105.73392"><ele>908</ele><time>2026-07-19T02:56:22.000Z</time></trkpt>
        <trkpt lat="28.260484" lon="105.733923"><ele>908</ele><time>2026-07-19T02:56:23.000Z</time></trkpt>
        <trkpt lat="28.260418" lon="105.733929"><ele>908</ele><time>2026-07-19T02:56:24.000Z</time></trkpt>
        <trkpt lat="28.26035" lon="105.733935"><ele>908</ele><time>2026-07-19T02:56:25.000Z</time></trkpt>
        <trkpt lat="28.260282" lon="105.73394"><ele>908</ele><time>2026-07-19T02:56:26.000Z</time></trkpt>
        <trkpt lat="28.260213" lon="105.733945"><ele>908</ele><time>2026-07-19T02:56:27.000Z</time></trkpt>
        <trkpt lat="28.260145" lon="105.73395"><ele>908</ele><time>2026-07-19T02:56:28.000Z</time></trkpt>
        <trkpt lat="28.260075" lon="105.733957"><ele>909</ele><time>2026-07-19T02:56:29.000Z</time></trkpt>
        <trkpt lat="28.260007" lon="105.733964"><ele>909</ele><time>2026-07-19T02:56:30.000Z</time></trkpt>
        <trkpt lat="28.259938" lon="105.733971"><ele>909</ele><time>2026-07-19T02:56:31.000Z</time></trkpt>
        <trkpt lat="28.259871" lon="105.73398"><ele>909</ele><time>2026-07-19T02:56:32.000Z</time></trkpt>
        <trkpt lat="28.259805" lon="105.733994"><ele>909</ele><time>2026-07-19T02:56:33.000Z</time></trkpt>
        <trkpt lat="28.259743" lon="105.734014"><ele>909</ele><time>2026-07-19T02:56:34.000Z</time></trkpt>
        <trkpt lat="28.259682" lon="105.73404"><ele>909</ele><time>2026-07-19T02:56:35.000Z</time></trkpt>
        <trkpt lat="28.259629" lon="105.734083"><ele>909</ele><time>2026-07-19T02:56:36.000Z</time></trkpt>
        <trkpt lat="28.259577" lon="105.734128"><ele>909</ele><time>2026-07-19T02:56:37.000Z</time></trkpt>
        <trkpt lat="28.259536" lon="105.734182"><ele>910</ele><time>2026-07-19T02:56:38.000Z</time></trkpt>
        <trkpt lat="28.259503" lon="105.734242"><ele>910</ele><time>2026-07-19T02:56:39.000Z</time></trkpt>
        <trkpt lat="28.259478" lon="105.734309"><ele>910</ele><time>2026-07-19T02:56:40.000Z</time></trkpt>
        <trkpt lat="28.259457" lon="105.734379"><ele>910</ele><time>2026-07-19T02:56:41.000Z</time></trkpt>
        <trkpt lat="28.25944" lon="105.734454"><ele>910</ele><time>2026-07-19T02:56:42.000Z</time></trkpt>
        <trkpt lat="28.259428" lon="105.734535"><ele>910</ele><time>2026-07-19T02:56:43.000Z</time></trkpt>
        <trkpt lat="28.25942" lon="105.73462"><ele>910</ele><time>2026-07-19T02:56:44.000Z</time></trkpt>
        <trkpt lat="28.259416" lon="105.734708"><ele>910</ele><time>2026-07-19T02:56:45.000Z</time></trkpt>
        <trkpt lat="28.259413" lon="105.734796"><ele>910</ele><time>2026-07-19T02:56:46.000Z</time></trkpt>
        <trkpt lat="28.25941" lon="105.734887"><ele>910</ele><time>2026-07-19T02:56:47.000Z</time></trkpt>
        <trkpt lat="28.259406" lon="105.734975"><ele>910</ele><time>2026-07-19T02:56:48.000Z</time></trkpt>
        <trkpt lat="28.259402" lon="105.735061"><ele>910</ele><time>2026-07-19T02:56:49.000Z</time></trkpt>
        <trkpt lat="28.259397" lon="105.735147"><ele>911</ele><time>2026-07-19T02:56:50.000Z</time></trkpt>
        <trkpt lat="28.259391" lon="105.735231"><ele>911</ele><time>2026-07-19T02:56:51.000Z</time></trkpt>
        <trkpt lat="28.259388" lon="105.735317"><ele>911</ele><time>2026-07-19T02:56:52.000Z</time></trkpt>
        <trkpt lat="28.259385" lon="105.735402"><ele>911</ele><time>2026-07-19T02:56:53.000Z</time></trkpt>
        <trkpt lat="28.259384" lon="105.735491"><ele>912</ele><time>2026-07-19T02:56:54.000Z</time></trkpt>
        <trkpt lat="28.259381" lon="105.735577"><ele>912</ele><time>2026-07-19T02:56:55.000Z</time></trkpt>
        <trkpt lat="28.259374" lon="105.735661"><ele>913</ele><time>2026-07-19T02:56:56.000Z</time></trkpt>
        <trkpt lat="28.259364" lon="105.735748"><ele>913</ele><time>2026-07-19T02:56:57.000Z</time></trkpt>
        <trkpt lat="28.259352" lon="105.735834"><ele>913</ele><time>2026-07-19T02:56:58.000Z</time></trkpt>
        <trkpt lat="28.259337" lon="105.735917"><ele>913</ele><time>2026-07-19T02:56:59.000Z</time></trkpt>
        <trkpt lat="28.2593" lon="105.735985"><ele>912</ele><time>2026-07-19T02:57:00.000Z</time></trkpt>
        <trkpt lat="28.259284" lon="105.736063"><ele>913</ele><time>2026-07-19T02:57:01.000Z</time></trkpt>
        <trkpt lat="28.25928" lon="105.736121"><ele>912</ele><time>2026-07-19T02:57:02.000Z</time></trkpt>
        <trkpt lat="28.259292" lon="105.736175"><ele>913</ele><time>2026-07-19T02:57:03.000Z</time></trkpt>
        <trkpt lat="28.259295" lon="105.736256"><ele>914</ele><time>2026-07-19T02:57:04.000Z</time></trkpt>
        <trkpt lat="28.2593" lon="105.736326"><ele>912</ele><time>2026-07-19T02:57:05.000Z</time></trkpt>
        <trkpt lat="28.259294" lon="105.736387"><ele>913</ele><time>2026-07-19T02:57:06.000Z</time></trkpt>
        <trkpt lat="28.259292" lon="105.736445"><ele>912</ele><time>2026-07-19T02:57:07.000Z</time></trkpt>
        <trkpt lat="28.259279" lon="105.736517"><ele>912</ele><time>2026-07-19T02:57:08.000Z</time></trkpt>
        <trkpt lat="28.259257" lon="105.736589"><ele>912</ele><time>2026-07-19T02:57:09.000Z</time></trkpt>
        <trkpt lat="28.259226" lon="105.736663"><ele>912</ele><time>2026-07-19T02:57:10.000Z</time></trkpt>
        <trkpt lat="28.259189" lon="105.736732"><ele>913</ele><time>2026-07-19T02:57:11.000Z</time></trkpt>
        <trkpt lat="28.259143" lon="105.736798"><ele>913</ele><time>2026-07-19T02:57:12.000Z</time></trkpt>
        <trkpt lat="28.259084" lon="105.736869"><ele>913</ele><time>2026-07-19T02:57:13.000Z</time></trkpt>
        <trkpt lat="28.25904" lon="105.736923"><ele>914</ele><time>2026-07-19T02:57:14.000Z</time></trkpt>
        <trkpt lat="28.25899" lon="105.736983"><ele>914</ele><time>2026-07-19T02:57:15.000Z</time></trkpt>
        <trkpt lat="28.258944" lon="105.737039"><ele>914</ele><time>2026-07-19T02:57:16.000Z</time></trkpt>
        <trkpt lat="28.258892" lon="105.737101"><ele>914</ele><time>2026-07-19T02:57:17.000Z</time></trkpt>
        <trkpt lat="28.258838" lon="105.737164"><ele>915</ele><time>2026-07-19T02:57:18.000Z</time></trkpt>
        <trkpt lat="28.25878" lon="105.737228"><ele>916</ele><time>2026-07-19T02:57:19.000Z</time></trkpt>
        <trkpt lat="28.258726" lon="105.737291"><ele>916</ele><time>2026-07-19T02:57:20.000Z</time></trkpt>
        <trkpt lat="28.258669" lon="105.737355"><ele>916</ele><time>2026-07-19T02:57:21.000Z</time></trkpt>
        <trkpt lat="28.258612" lon="105.737416"><ele>916</ele><time>2026-07-19T02:57:22.000Z</time></trkpt>
        <trkpt lat="28.25855" lon="105.737479"><ele>916</ele><time>2026-07-19T02:57:23.000Z</time></trkpt>
        <trkpt lat="28.258488" lon="105.737538"><ele>916</ele><time>2026-07-19T02:57:24.000Z</time></trkpt>
        <trkpt lat="28.25843" lon="105.737591"><ele>916</ele><time>2026-07-19T02:57:25.000Z</time></trkpt>
        <trkpt lat="28.258365" lon="105.737645"><ele>916</ele><time>2026-07-19T02:57:26.000Z</time></trkpt>
        <trkpt lat="28.258301" lon="105.737694"><ele>916</ele><time>2026-07-19T02:57:27.000Z</time></trkpt>
        <trkpt lat="28.258239" lon="105.737745"><ele>917</ele><time>2026-07-19T02:57:28.000Z</time></trkpt>
        <trkpt lat="28.258179" lon="105.737797"><ele>918</ele><time>2026-07-19T02:57:29.000Z</time></trkpt>
        <trkpt lat="28.25812" lon="105.737852"><ele>919</ele><time>2026-07-19T02:57:30.000Z</time></trkpt>
        <trkpt lat="28.258065" lon="105.737909"><ele>919</ele><time>2026-07-19T02:57:31.000Z</time></trkpt>
        <trkpt lat="28.25801" lon="105.737966"><ele>919</ele><time>2026-07-19T02:57:32.000Z</time></trkpt>
        <trkpt lat="28.257958" lon="105.738026"><ele>919</ele><time>2026-07-19T02:57:33.000Z</time></trkpt>
        <trkpt lat="28.257912" lon="105.73809"><ele>919</ele><time>2026-07-19T02:57:34.000Z</time></trkpt>
        <trkpt lat="28.257866" lon="105.738155"><ele>920</ele><time>2026-07-19T02:57:35.000Z</time></trkpt>
        <trkpt lat="28.257821" lon="105.738222"><ele>920</ele><time>2026-07-19T02:57:36.000Z</time></trkpt>
        <trkpt lat="28.257777" lon="105.738289"><ele>920</ele><time>2026-07-19T02:57:37.000Z</time></trkpt>
        <trkpt lat="28.257736" lon="105.738359"><ele>919</ele><time>2026-07-19T02:57:38.000Z</time></trkpt>
        <trkpt lat="28.257697" lon="105.738433"><ele>919</ele><time>2026-07-19T02:57:39.000Z</time></trkpt>
        <trkpt lat="28.257659" lon="105.738509"><ele>919</ele><time>2026-07-19T02:57:40.000Z</time></trkpt>
        <trkpt lat="28.257621" lon="105.738584"><ele>918</ele><time>2026-07-19T02:57:41.000Z</time></trkpt>
        <trkpt lat="28.257583" lon="105.738658"><ele>918</ele><time>2026-07-19T02:57:42.000Z</time></trkpt>
        <trkpt lat="28.257549" lon="105.738732"><ele>918</ele><time>2026-07-19T02:57:43.000Z</time></trkpt>
        <trkpt lat="28.257511" lon="105.738806"><ele>918</ele><time>2026-07-19T02:57:44.000Z</time></trkpt>
        <trkpt lat="28.257472" lon="105.738877"><ele>918</ele><time>2026-07-19T02:57:45.000Z</time></trkpt>
        <trkpt lat="28.25743" lon="105.73895"><ele>918</ele><time>2026-07-19T02:57:46.000Z</time></trkpt>
        <trkpt lat="28.257388" lon="105.739017"><ele>918</ele><time>2026-07-19T02:57:47.000Z</time></trkpt>
        <trkpt lat="28.257341" lon="105.739087"><ele>918</ele><time>2026-07-19T02:57:48.000Z</time></trkpt>
        <trkpt lat="28.257291" lon="105.739155"><ele>918</ele><time>2026-07-19T02:57:49.000Z</time></trkpt>
        <trkpt lat="28.257242" lon="105.739218"><ele>918</ele><time>2026-07-19T02:57:50.000Z</time></trkpt>
        <trkpt lat="28.257188" lon="105.73928"><ele>918</ele><time>2026-07-19T02:57:51.000Z</time></trkpt>
        <trkpt lat="28.257132" lon="105.739338"><ele>919</ele><time>2026-07-19T02:57:52.000Z</time></trkpt>
        <trkpt lat="28.257075" lon="105.739392"><ele>919</ele><time>2026-07-19T02:57:53.000Z</time></trkpt>
        <trkpt lat="28.257018" lon="105.739444"><ele>919</ele><time>2026-07-19T02:57:54.000Z</time></trkpt>
        <trkpt lat="28.25696" lon="105.739492"><ele>919</ele><time>2026-07-19T02:57:55.000Z</time></trkpt>
        <trkpt lat="28.256895" lon="105.73953"><ele>919</ele><time>2026-07-19T02:57:56.000Z</time></trkpt>
        <trkpt lat="28.256829" lon="105.73956"><ele>919</ele><time>2026-07-19T02:57:57.000Z</time></trkpt>
        <trkpt lat="28.256759" lon="105.739584"><ele>919</ele><time>2026-07-19T02:57:58.000Z</time></trkpt>
        <trkpt lat="28.25669" lon="105.739602"><ele>919</ele><time>2026-07-19T02:57:59.000Z</time></trkpt>
        <trkpt lat="28.25662" lon="105.739615"><ele>919</ele><time>2026-07-19T02:58:00.000Z</time></trkpt>
        <trkpt lat="28.256548" lon="105.739621"><ele>919</ele><time>2026-07-19T02:58:01.000Z</time></trkpt>
        <trkpt lat="28.256479" lon="105.739627"><ele>919</ele><time>2026-07-19T02:58:02.000Z</time></trkpt>
        <trkpt lat="28.256413" lon="105.739631"><ele>918</ele><time>2026-07-19T02:58:03.000Z</time></trkpt>
        <trkpt lat="28.256345" lon="105.739623"><ele>917</ele><time>2026-07-19T02:58:04.000Z</time></trkpt>
        <trkpt lat="28.256282" lon="105.739615"><ele>914</ele><time>2026-07-19T02:58:05.000Z</time></trkpt>
        <trkpt lat="28.256212" lon="105.739601"><ele>913</ele><time>2026-07-19T02:58:06.000Z</time></trkpt>
        <trkpt lat="28.256149" lon="105.739573"><ele>912</ele><time>2026-07-19T02:58:07.000Z</time></trkpt>
        <trkpt lat="28.256087" lon="105.739542"><ele>912</ele><time>2026-07-19T02:58:08.000Z</time></trkpt>
        <trkpt lat="28.256028" lon="105.739508"><ele>911</ele><time>2026-07-19T02:58:09.000Z</time></trkpt>
        <trkpt lat="28.255967" lon="105.739473"><ele>910</ele><time>2026-07-19T02:58:10.000Z</time></trkpt>
        <trkpt lat="28.255903" lon="105.73944"><ele>910</ele><time>2026-07-19T02:58:11.000Z</time></trkpt>
        <trkpt lat="28.25584" lon="105.739408"><ele>910</ele><time>2026-07-19T02:58:12.000Z</time></trkpt>
        <trkpt lat="28.255776" lon="105.739376"><ele>910</ele><time>2026-07-19T02:58:13.000Z</time></trkpt>
        <trkpt lat="28.255708" lon="105.739347"><ele>909</ele><time>2026-07-19T02:58:14.000Z</time></trkpt>
        <trkpt lat="28.255639" lon="105.739315"><ele>909</ele><time>2026-07-19T02:58:15.000Z</time></trkpt>
        <trkpt lat="28.255565" lon="105.739283"><ele>909</ele><time>2026-07-19T02:58:16.000Z</time></trkpt>
        <trkpt lat="28.255493" lon="105.739253"><ele>908</ele><time>2026-07-19T02:58:17.000Z</time></trkpt>
        <trkpt lat="28.255425" lon="105.739221"><ele>908</ele><time>2026-07-19T02:58:18.000Z</time></trkpt>
        <trkpt lat="28.25536" lon="105.739188"><ele>908</ele><time>2026-07-19T02:58:19.000Z</time></trkpt>
        <trkpt lat="28.255299" lon="105.739154"><ele>907</ele><time>2026-07-19T02:58:20.000Z</time></trkpt>
        <trkpt lat="28.255236" lon="105.739126"><ele>907</ele><time>2026-07-19T02:58:21.000Z</time></trkpt>
        <trkpt lat="28.255175" lon="105.739102"><ele>907</ele><time>2026-07-19T02:58:22.000Z</time></trkpt>
        <trkpt lat="28.255111" lon="105.739076"><ele>907</ele><time>2026-07-19T02:58:23.000Z</time></trkpt>
        <trkpt lat="28.255039" lon="105.73906"><ele>907</ele><time>2026-07-19T02:58:24.000Z</time></trkpt>
        <trkpt lat="28.254972" lon="105.739045"><ele>907</ele><time>2026-07-19T02:58:25.000Z</time></trkpt>
        <trkpt lat="28.254906" lon="105.739045"><ele>907</ele><time>2026-07-19T02:58:26.000Z</time></trkpt>
        <trkpt lat="28.254843" lon="105.739047"><ele>906</ele><time>2026-07-19T02:58:27.000Z</time></trkpt>
        <trkpt lat="28.254779" lon="105.739046"><ele>906</ele><time>2026-07-19T02:58:28.000Z</time></trkpt>
        <trkpt lat="28.254717" lon="105.739042"><ele>906</ele><time>2026-07-19T02:58:29.000Z</time></trkpt>
        <trkpt lat="28.254656" lon="105.739036"><ele>906</ele><time>2026-07-19T02:58:30.000Z</time></trkpt>
        <trkpt lat="28.254596" lon="105.739034"><ele>905</ele><time>2026-07-19T02:58:31.000Z</time></trkpt>
        <trkpt lat="28.254534" lon="105.739035"><ele>905</ele><time>2026-07-19T02:58:32.000Z</time></trkpt>
        <trkpt lat="28.254472" lon="105.739031"><ele>905</ele><time>2026-07-19T02:58:33.000Z</time></trkpt>
        <trkpt lat="28.254409" lon="105.739029"><ele>904</ele><time>2026-07-19T02:58:34.000Z</time></trkpt>
        <trkpt lat="28.254348" lon="105.739025"><ele>904</ele><time>2026-07-19T02:58:35.000Z</time></trkpt>
        <trkpt lat="28.25429" lon="105.739021"><ele>904</ele><time>2026-07-19T02:58:36.000Z</time></trkpt>
        <trkpt lat="28.254234" lon="105.739019"><ele>904</ele><time>2026-07-19T02:58:37.000Z</time></trkpt>
        <trkpt lat="28.254178" lon="105.739025"><ele>904</ele><time>2026-07-19T02:58:38.000Z</time></trkpt>
        <trkpt lat="28.254125" lon="105.739042"><ele>904</ele><time>2026-07-19T02:58:39.000Z</time></trkpt>
        <trkpt lat="28.254075" lon="105.739067"><ele>905</ele><time>2026-07-19T02:58:40.000Z</time></trkpt>
        <trkpt lat="28.254022" lon="105.739105"><ele>906</ele><time>2026-07-19T02:58:41.000Z</time></trkpt>
        <trkpt lat="28.253973" lon="105.739149"><ele>907</ele><time>2026-07-19T02:58:42.000Z</time></trkpt>
        <trkpt lat="28.253926" lon="105.739196"><ele>907</ele><time>2026-07-19T02:58:43.000Z</time></trkpt>
        <trkpt lat="28.253877" lon="105.739244"><ele>907</ele><time>2026-07-19T02:58:44.000Z</time></trkpt>
        <trkpt lat="28.253828" lon="105.739296"><ele>907</ele><time>2026-07-19T02:58:45.000Z</time></trkpt>
        <trkpt lat="28.253779" lon="105.739351"><ele>906</ele><time>2026-07-19T02:58:46.000Z</time></trkpt>
        <trkpt lat="28.253732" lon="105.739408"><ele>906</ele><time>2026-07-19T02:58:47.000Z</time></trkpt>
        <trkpt lat="28.253685" lon="105.739464"><ele>906</ele><time>2026-07-19T02:58:48.000Z</time></trkpt>
        <trkpt lat="28.25364" lon="105.739524"><ele>906</ele><time>2026-07-19T02:58:49.000Z</time></trkpt>
        <trkpt lat="28.253594" lon="105.739584"><ele>906</ele><time>2026-07-19T02:58:50.000Z</time></trkpt>
        <trkpt lat="28.253549" lon="105.739645"><ele>906</ele><time>2026-07-19T02:58:51.000Z</time></trkpt>
        <trkpt lat="28.253502" lon="105.73971"><ele>906</ele><time>2026-07-19T02:58:52.000Z</time></trkpt>
        <trkpt lat="28.253457" lon="105.739781"><ele>906</ele><time>2026-07-19T02:58:53.000Z</time></trkpt>
        <trkpt lat="28.253411" lon="105.739855"><ele>905</ele><time>2026-07-19T02:58:54.000Z</time></trkpt>
        <trkpt lat="28.253367" lon="105.739929"><ele>905</ele><time>2026-07-19T02:58:55.000Z</time></trkpt>
        <trkpt lat="28.25332" lon="105.739999"><ele>905</ele><time>2026-07-19T02:58:56.000Z</time></trkpt>
        <trkpt lat="28.253271" lon="105.740068"><ele>905</ele><time>2026-07-19T02:58:57.000Z</time></trkpt>
        <trkpt lat="28.25322" lon="105.740132"><ele>905</ele><time>2026-07-19T02:58:58.000Z</time></trkpt>
        <trkpt lat="28.253168" lon="105.740197"><ele>905</ele><time>2026-07-19T02:58:59.000Z</time></trkpt>
        <trkpt lat="28.253114" lon="105.740261"><ele>905</ele><time>2026-07-19T02:59:00.000Z</time></trkpt>
        <trkpt lat="28.253056" lon="105.740325"><ele>905</ele><time>2026-07-19T02:59:01.000Z</time></trkpt>
        <trkpt lat="28.252996" lon="105.74039"><ele>905</ele><time>2026-07-19T02:59:02.000Z</time></trkpt>
        <trkpt lat="28.252936" lon="105.74045"><ele>905</ele><time>2026-07-19T02:59:03.000Z</time></trkpt>
        <trkpt lat="28.252874" lon="105.740508"><ele>905</ele><time>2026-07-19T02:59:04.000Z</time></trkpt>
        <trkpt lat="28.252811" lon="105.740566"><ele>905</ele><time>2026-07-19T02:59:05.000Z</time></trkpt>
        <trkpt lat="28.252748" lon="105.740623"><ele>906</ele><time>2026-07-19T02:59:06.000Z</time></trkpt>
        <trkpt lat="28.252682" lon="105.740682"><ele>906</ele><time>2026-07-19T02:59:07.000Z</time></trkpt>
        <trkpt lat="28.252612" lon="105.74074"><ele>907</ele><time>2026-07-19T02:59:08.000Z</time></trkpt>
        <trkpt lat="28.252542" lon="105.7408"><ele>907</ele><time>2026-07-19T02:59:09.000Z</time></trkpt>
        <trkpt lat="28.252474" lon="105.74086"><ele>907</ele><time>2026-07-19T02:59:10.000Z</time></trkpt>
        <trkpt lat="28.252409" lon="105.74092"><ele>908</ele><time>2026-07-19T02:59:11.000Z</time></trkpt>
        <trkpt lat="28.252345" lon="105.740986"><ele>908</ele><time>2026-07-19T02:59:12.000Z</time></trkpt>
        <trkpt lat="28.252283" lon="105.741052"><ele>909</ele><time>2026-07-19T02:59:13.000Z</time></trkpt>
        <trkpt lat="28.252227" lon="105.741125"><ele>910</ele><time>2026-07-19T02:59:14.000Z</time></trkpt>
        <trkpt lat="28.252173" lon="105.741191"><ele>911</ele><time>2026-07-19T02:59:15.000Z</time></trkpt>
        <trkpt lat="28.252124" lon="105.741261"><ele>911</ele><time>2026-07-19T02:59:16.000Z</time></trkpt>
        <trkpt lat="28.252074" lon="105.741332"><ele>912</ele><time>2026-07-19T02:59:17.000Z</time></trkpt>
        <trkpt lat="28.252024" lon="105.741408"><ele>912</ele><time>2026-07-19T02:59:18.000Z</time></trkpt>
        <trkpt lat="28.251969" lon="105.74148"><ele>912</ele><time>2026-07-19T02:59:19.000Z</time></trkpt>
        <trkpt lat="28.251916" lon="105.741552"><ele>912</ele><time>2026-07-19T02:59:20.000Z</time></trkpt>
        <trkpt lat="28.251862" lon="105.741625"><ele>912</ele><time>2026-07-19T02:59:21.000Z</time></trkpt>
        <trkpt lat="28.251806" lon="105.741693"><ele>912</ele><time>2026-07-19T02:59:22.000Z</time></trkpt>
        <trkpt lat="28.25175" lon="105.741763"><ele>913</ele><time>2026-07-19T02:59:23.000Z</time></trkpt>
        <trkpt lat="28.251694" lon="105.741832"><ele>913</ele><time>2026-07-19T02:59:24.000Z</time></trkpt>
        <trkpt lat="28.251638" lon="105.741901"><ele>913</ele><time>2026-07-19T02:59:25.000Z</time></trkpt>
        <trkpt lat="28.25158" lon="105.741966"><ele>913</ele><time>2026-07-19T02:59:26.000Z</time></trkpt>
        <trkpt lat="28.251523" lon="105.742028"><ele>914</ele><time>2026-07-19T02:59:27.000Z</time></trkpt>
        <trkpt lat="28.251475" lon="105.742086"><ele>914</ele><time>2026-07-19T02:59:28.000Z</time></trkpt>
        <trkpt lat="28.251429" lon="105.742144"><ele>914</ele><time>2026-07-19T02:59:29.000Z</time></trkpt>
        <trkpt lat="28.251383" lon="105.742201"><ele>914</ele><time>2026-07-19T02:59:30.000Z</time></trkpt>
        <trkpt lat="28.251343" lon="105.742266"><ele>915</ele><time>2026-07-19T02:59:31.000Z</time></trkpt>
        <trkpt lat="28.251305" lon="105.742333"><ele>915</ele><time>2026-07-19T02:59:32.000Z</time></trkpt>
        <trkpt lat="28.251268" lon="105.742403"><ele>915</ele><time>2026-07-19T02:59:33.000Z</time></trkpt>
        <trkpt lat="28.251227" lon="105.742472"><ele>915</ele><time>2026-07-19T02:59:34.000Z</time></trkpt>
        <trkpt lat="28.251188" lon="105.742546"><ele>915</ele><time>2026-07-19T02:59:35.000Z</time></trkpt>
        <trkpt lat="28.251156" lon="105.742625"><ele>916</ele><time>2026-07-19T02:59:36.000Z</time></trkpt>
        <trkpt lat="28.251125" lon="105.742707"><ele>916</ele><time>2026-07-19T02:59:37.000Z</time></trkpt>
        <trkpt lat="28.251098" lon="105.742774"><ele>915</ele><time>2026-07-19T02:59:38.000Z</time></trkpt>
        <trkpt lat="28.251096" lon="105.7428302"><ele>916</ele><time>2026-07-19T02:59:40.000Z</time></trkpt>
        <trkpt lat="28.2510948" lon="105.7428798"><ele>917</ele><time>2026-07-19T02:59:44.000Z</time></trkpt>
        <trkpt lat="28.251085" lon="105.742934"><ele>918</ele><time>2026-07-19T02:59:46.000Z</time></trkpt>
        <trkpt lat="28.251062" lon="105.742983"><ele>918</ele><time>2026-07-19T02:59:47.000Z</time></trkpt>
        <trkpt lat="28.251033" lon="105.743046"><ele>918</ele><time>2026-07-19T02:59:48.000Z</time></trkpt>
        <trkpt lat="28.251002" lon="105.743122"><ele>918</ele><time>2026-07-19T02:59:49.000Z</time></trkpt>
        <trkpt lat="28.250967" lon="105.743202"><ele>918</ele><time>2026-07-19T02:59:50.000Z</time></trkpt>
        <trkpt lat="28.250927" lon="105.743289"><ele>918</ele><time>2026-07-19T02:59:51.000Z</time></trkpt>
        <trkpt lat="28.250896" lon="105.743373"><ele>918</ele><time>2026-07-19T02:59:52.000Z</time></trkpt>
        <trkpt lat="28.250859" lon="105.743459"><ele>919</ele><time>2026-07-19T02:59:53.000Z</time></trkpt>
        <trkpt lat="28.250822" lon="105.743545"><ele>919</ele><time>2026-07-19T02:59:54.000Z</time></trkpt>
        <trkpt lat="28.250789" lon="105.743632"><ele>920</ele><time>2026-07-19T02:59:55.000Z</time></trkpt>
        <trkpt lat="28.250758" lon="105.743718"><ele>920</ele><time>2026-07-19T02:59:56.000Z</time></trkpt>
        <trkpt lat="28.250729" lon="105.743807"><ele>921</ele><time>2026-07-19T02:59:57.000Z</time></trkpt>
        <trkpt lat="28.2507" lon="105.743898"><ele>921</ele><time>2026-07-19T02:59:58.000Z</time></trkpt>
        <trkpt lat="28.250675" lon="105.743989"><ele>922</ele><time>2026-07-19T02:59:59.000Z</time></trkpt>
        <trkpt lat="28.25065" lon="105.744083"><ele>923</ele><time>2026-07-19T03:00:00.000Z</time></trkpt>
        <trkpt lat="28.250627" lon="105.744169"><ele>923</ele><time>2026-07-19T03:00:01.000Z</time></trkpt>
        <trkpt lat="28.25061" lon="105.744252"><ele>924</ele><time>2026-07-19T03:00:02.000Z</time></trkpt>
        <trkpt lat="28.250589" lon="105.744331"><ele>924</ele><time>2026-07-19T03:00:03.000Z</time></trkpt>
        <trkpt lat="28.250562" lon="105.744402"><ele>925</ele><time>2026-07-19T03:00:04.000Z</time></trkpt>
        <trkpt lat="28.250529" lon="105.744469"><ele>925</ele><time>2026-07-19T03:00:05.000Z</time></trkpt>
        <trkpt lat="28.250486" lon="105.744531"><ele>926</ele><time>2026-07-19T03:00:06.000Z</time></trkpt>
        <trkpt lat="28.250444" lon="105.744592"><ele>926</ele><time>2026-07-19T03:00:07.000Z</time></trkpt>
        <trkpt lat="28.250399" lon="105.744651"><ele>926</ele><time>2026-07-19T03:00:08.000Z</time></trkpt>
        <trkpt lat="28.25035" lon="105.74471"><ele>927</ele><time>2026-07-19T03:00:09.000Z</time></trkpt>
        <trkpt lat="28.250303" lon="105.744772"><ele>927</ele><time>2026-07-19T03:00:10.000Z</time></trkpt>
        <trkpt lat="28.250259" lon="105.744837"><ele>928</ele><time>2026-07-19T03:00:11.000Z</time></trkpt>
        <trkpt lat="28.250215" lon="105.744899"><ele>928</ele><time>2026-07-19T03:00:12.000Z</time></trkpt>
        <trkpt lat="28.250159" lon="105.744946"><ele>929</ele><time>2026-07-19T03:00:13.000Z</time></trkpt>
        <trkpt lat="28.250102" lon="105.74499"><ele>929</ele><time>2026-07-19T03:00:14.000Z</time></trkpt>
        <trkpt lat="28.250041" lon="105.745025"><ele>929</ele><time>2026-07-19T03:00:15.000Z</time></trkpt>
        <trkpt lat="28.249981" lon="105.745056"><ele>928</ele><time>2026-07-19T03:00:16.000Z</time></trkpt>
        <trkpt lat="28.249914" lon="105.745067"><ele>927</ele><time>2026-07-19T03:00:17.000Z</time></trkpt>
        <trkpt lat="28.249846" lon="105.745071"><ele>926</ele><time>2026-07-19T03:00:18.000Z</time></trkpt>
        <trkpt lat="28.24978" lon="105.74506"><ele>924</ele><time>2026-07-19T03:00:19.000Z</time></trkpt>
        <trkpt lat="28.249714" lon="105.745039"><ele>923</ele><time>2026-07-19T03:00:20.000Z</time></trkpt>
        <trkpt lat="28.249649" lon="105.745013"><ele>921</ele><time>2026-07-19T03:00:21.000Z</time></trkpt>
        <trkpt lat="28.249585" lon="105.74498"><ele>920</ele><time>2026-07-19T03:00:22.000Z</time></trkpt>
        <trkpt lat="28.249519" lon="105.744932"><ele>918</ele><time>2026-07-19T03:00:23.000Z</time></trkpt>
        <trkpt lat="28.249461" lon="105.744883"><ele>917</ele><time>2026-07-19T03:00:24.000Z</time></trkpt>
        <trkpt lat="28.249405" lon="105.744829"><ele>915</ele><time>2026-07-19T03:00:25.000Z</time></trkpt>
        <trkpt lat="28.249355" lon="105.74477"><ele>914</ele><time>2026-07-19T03:00:26.000Z</time></trkpt>
        <trkpt lat="28.249309" lon="105.744704"><ele>913</ele><time>2026-07-19T03:00:27.000Z</time></trkpt>
        <trkpt lat="28.249276" lon="105.744629"><ele>912</ele><time>2026-07-19T03:00:28.000Z</time></trkpt>
        <trkpt lat="28.249254" lon="105.744549"><ele>911</ele><time>2026-07-19T03:00:29.000Z</time></trkpt>
        <trkpt lat="28.249237" lon="105.744467"><ele>911</ele><time>2026-07-19T03:00:30.000Z</time></trkpt>
        <trkpt lat="28.249222" lon="105.744386"><ele>910</ele><time>2026-07-19T03:00:31.000Z</time></trkpt>
        <trkpt lat="28.249204" lon="105.744304"><ele>910</ele><time>2026-07-19T03:00:32.000Z</time></trkpt>
        <trkpt lat="28.249183" lon="105.744233"><ele>908</ele><time>2026-07-19T03:00:33.000Z</time></trkpt>
        <trkpt lat="28.249169" lon="105.744156"><ele>906</ele><time>2026-07-19T03:00:34.000Z</time></trkpt>
        <trkpt lat="28.249157" lon="105.744079"><ele>904</ele><time>2026-07-19T03:00:35.000Z</time></trkpt>
        <trkpt lat="28.249145" lon="105.744001"><ele>903</ele><time>2026-07-19T03:00:36.000Z</time></trkpt>
        <trkpt lat="28.249132" lon="105.74392"><ele>902</ele><time>2026-07-19T03:00:37.000Z</time></trkpt>
        <trkpt lat="28.249121" lon="105.743837"><ele>901</ele><time>2026-07-19T03:00:38.000Z</time></trkpt>
        <trkpt lat="28.249111" lon="105.743751"><ele>900</ele><time>2026-07-19T03:00:39.000Z</time></trkpt>
        <trkpt lat="28.249104" lon="105.743665"><ele>899</ele><time>2026-07-19T03:00:40.000Z</time></trkpt>
        <trkpt lat="28.249095" lon="105.743583"><ele>898</ele><time>2026-07-19T03:00:41.000Z</time></trkpt>
        <trkpt lat="28.249079" lon="105.743501"><ele>897</ele><time>2026-07-19T03:00:42.000Z</time></trkpt>
        <trkpt lat="28.249058" lon="105.743425"><ele>897</ele><time>2026-07-19T03:00:43.000Z</time></trkpt>
        <trkpt lat="28.249035" lon="105.743351"><ele>896</ele><time>2026-07-19T03:00:44.000Z</time></trkpt>
        <trkpt lat="28.249012" lon="105.743274"><ele>896</ele><time>2026-07-19T03:00:45.000Z</time></trkpt>
        <trkpt lat="28.248989" lon="105.743196"><ele>896</ele><time>2026-07-19T03:00:46.000Z</time></trkpt>
        <trkpt lat="28.248966" lon="105.743117"><ele>896</ele><time>2026-07-19T03:00:47.000Z</time></trkpt>
        <trkpt lat="28.248942" lon="105.743038"><ele>896</ele><time>2026-07-19T03:00:48.000Z</time></trkpt>
        <trkpt lat="28.248921" lon="105.742961"><ele>896</ele><time>2026-07-19T03:00:49.000Z</time></trkpt>
        <trkpt lat="28.2489" lon="105.742887"><ele>896</ele><time>2026-07-19T03:00:50.000Z</time></trkpt>
        <trkpt lat="28.24888" lon="105.742815"><ele>897</ele><time>2026-07-19T03:00:51.000Z</time></trkpt>
        <trkpt lat="28.248857" lon="105.742746"><ele>898</ele><time>2026-07-19T03:00:52.000Z</time></trkpt>
        <trkpt lat="28.24883" lon="105.742683"><ele>900</ele><time>2026-07-19T03:00:53.000Z</time></trkpt>
        <trkpt lat="28.248799" lon="105.74262"><ele>901</ele><time>2026-07-19T03:00:54.000Z</time></trkpt>
        <trkpt lat="28.248761" lon="105.742561"><ele>901</ele><time>2026-07-19T03:00:55.000Z</time></trkpt>
        <trkpt lat="28.248717" lon="105.742511"><ele>901</ele><time>2026-07-19T03:00:56.000Z</time></trkpt>
        <trkpt lat="28.248666" lon="105.74247"><ele>901</ele><time>2026-07-19T03:00:57.000Z</time></trkpt>
        <trkpt lat="28.24861" lon="105.742436"><ele>901</ele><time>2026-07-19T03:00:58.000Z</time></trkpt>
        <trkpt lat="28.248554" lon="105.742404"><ele>902</ele><time>2026-07-19T03:00:59.000Z</time></trkpt>
        <trkpt lat="28.248486" lon="105.742385"><ele>904</ele><time>2026-07-19T03:01:00.000Z</time></trkpt>
        <trkpt lat="28.248421" lon="105.742375"><ele>905</ele><time>2026-07-19T03:01:01.000Z</time></trkpt>
        <trkpt lat="28.248358" lon="105.742374"><ele>906</ele><time>2026-07-19T03:01:02.000Z</time></trkpt>
        <trkpt lat="28.248294" lon="105.742391"><ele>906</ele><time>2026-07-19T03:01:03.000Z</time></trkpt>
        <trkpt lat="28.248231" lon="105.7424"><ele>907</ele><time>2026-07-19T03:01:04.000Z</time></trkpt>
        <trkpt lat="28.248171" lon="105.742425"><ele>908</ele><time>2026-07-19T03:01:05.000Z</time></trkpt>
        <trkpt lat="28.248107" lon="105.742447"><ele>908</ele><time>2026-07-19T03:01:06.000Z</time></trkpt>
        <trkpt lat="28.248039" lon="105.742478"><ele>909</ele><time>2026-07-19T03:01:07.000Z</time></trkpt>
        <trkpt lat="28.247969" lon="105.742513"><ele>910</ele><time>2026-07-19T03:01:08.000Z</time></trkpt>
        <trkpt lat="28.247904" lon="105.742552"><ele>910</ele><time>2026-07-19T03:01:09.000Z</time></trkpt>
        <trkpt lat="28.247841" lon="105.742588"><ele>911</ele><time>2026-07-19T03:01:10.000Z</time></trkpt>
        <trkpt lat="28.247778" lon="105.742632"><ele>911</ele><time>2026-07-19T03:01:11.000Z</time></trkpt>
        <trkpt lat="28.247725" lon="105.742688"><ele>912</ele><time>2026-07-19T03:01:12.000Z</time></trkpt>
        <trkpt lat="28.247679" lon="105.742748"><ele>913</ele><time>2026-07-19T03:01:13.000Z</time></trkpt>
        <trkpt lat="28.247639" lon="105.74281"><ele>913</ele><time>2026-07-19T03:01:14.000Z</time></trkpt>
        <trkpt lat="28.247598" lon="105.742872"><ele>914</ele><time>2026-07-19T03:01:15.000Z</time></trkpt>
        <trkpt lat="28.247561" lon="105.742934"><ele>915</ele><time>2026-07-19T03:01:16.000Z</time></trkpt>
        <trkpt lat="28.247526" lon="105.743001"><ele>915</ele><time>2026-07-19T03:01:17.000Z</time></trkpt>
        <trkpt lat="28.247497" lon="105.743068"><ele>915</ele><time>2026-07-19T03:01:18.000Z</time></trkpt>
        <trkpt lat="28.247463" lon="105.743133"><ele>916</ele><time>2026-07-19T03:01:19.000Z</time></trkpt>
        <trkpt lat="28.247433" lon="105.743199"><ele>916</ele><time>2026-07-19T03:01:20.000Z</time></trkpt>
        <trkpt lat="28.247416" lon="105.743269"><ele>916</ele><time>2026-07-19T03:01:21.000Z</time></trkpt>
        <trkpt lat="28.247404" lon="105.743341"><ele>917</ele><time>2026-07-19T03:01:22.000Z</time></trkpt>
        <trkpt lat="28.247392" lon="105.743412"><ele>918</ele><time>2026-07-19T03:01:23.000Z</time></trkpt>
        <trkpt lat="28.247379" lon="105.743482"><ele>919</ele><time>2026-07-19T03:01:24.000Z</time></trkpt>
        <trkpt lat="28.24737" lon="105.743551"><ele>919</ele><time>2026-07-19T03:01:25.000Z</time></trkpt>
        <trkpt lat="28.247361" lon="105.743623"><ele>919</ele><time>2026-07-19T03:01:26.000Z</time></trkpt>
        <trkpt lat="28.24735" lon="105.743695"><ele>918</ele><time>2026-07-19T03:01:27.000Z</time></trkpt>
        <trkpt lat="28.247338" lon="105.743769"><ele>919</ele><time>2026-07-19T03:01:28.000Z</time></trkpt>
        <trkpt lat="28.247323" lon="105.743846"><ele>918</ele><time>2026-07-19T03:01:29.000Z</time></trkpt>
        <trkpt lat="28.24731" lon="105.743924"><ele>918</ele><time>2026-07-19T03:01:30.000Z</time></trkpt>
        <trkpt lat="28.247304" lon="105.744005"><ele>918</ele><time>2026-07-19T03:01:31.000Z</time></trkpt>
        <trkpt lat="28.247312" lon="105.744085"><ele>918</ele><time>2026-07-19T03:01:32.000Z</time></trkpt>
        <trkpt lat="28.247314" lon="105.744163"><ele>918</ele><time>2026-07-19T03:01:33.000Z</time></trkpt>
        <trkpt lat="28.247323" lon="105.744241"><ele>917</ele><time>2026-07-19T03:01:34.000Z</time></trkpt>
        <trkpt lat="28.247333" lon="105.744318"><ele>917</ele><time>2026-07-19T03:01:35.000Z</time></trkpt>
        <trkpt lat="28.24734" lon="105.744395"><ele>917</ele><time>2026-07-19T03:01:36.000Z</time></trkpt>
        <trkpt lat="28.247344" lon="105.74447"><ele>916</ele><time>2026-07-19T03:01:37.000Z</time></trkpt>
        <trkpt lat="28.247344" lon="105.744548"><ele>916</ele><time>2026-07-19T03:01:38.000Z</time></trkpt>
        <trkpt lat="28.247329" lon="105.744622"><ele>916</ele><time>2026-07-19T03:01:39.000Z</time></trkpt>
        <trkpt lat="28.247312" lon="105.744696"><ele>917</ele><time>2026-07-19T03:01:40.000Z</time></trkpt>
        <trkpt lat="28.247293" lon="105.74477"><ele>917</ele><time>2026-07-19T03:01:41.000Z</time></trkpt>
        <trkpt lat="28.24727" lon="105.744842"><ele>918</ele><time>2026-07-19T03:01:42.000Z</time></trkpt>
        <trkpt lat="28.247245" lon="105.744912"><ele>918</ele><time>2026-07-19T03:01:43.000Z</time></trkpt>
        <trkpt lat="28.247213" lon="105.744978"><ele>919</ele><time>2026-07-19T03:01:44.000Z</time></trkpt>
        <trkpt lat="28.247172" lon="105.745025"><ele>919</ele><time>2026-07-19T03:01:45.000Z</time></trkpt>
        <trkpt lat="28.247124" lon="105.74506"><ele>920</ele><time>2026-07-19T03:01:46.000Z</time></trkpt>
        <trkpt lat="28.247073" lon="105.745075"><ele>920</ele><time>2026-07-19T03:01:47.000Z</time></trkpt>
        <trkpt lat="28.247025" lon="105.745075"><ele>920</ele><time>2026-07-19T03:01:48.000Z</time></trkpt>
        <trkpt lat="28.24697" lon="105.74505"><ele>921</ele><time>2026-07-19T03:01:49.000Z</time></trkpt>
        <trkpt lat="28.246914" lon="105.745017"><ele>922</ele><time>2026-07-19T03:01:50.000Z</time></trkpt>
        <trkpt lat="28.246856" lon="105.744969"><ele>922</ele><time>2026-07-19T03:01:51.000Z</time></trkpt>
        <trkpt lat="28.246801" lon="105.744913"><ele>923</ele><time>2026-07-19T03:01:52.000Z</time></trkpt>
        <trkpt lat="28.246747" lon="105.744853"><ele>923</ele><time>2026-07-19T03:01:53.000Z</time></trkpt>
        <trkpt lat="28.246696" lon="105.744795"><ele>924</ele><time>2026-07-19T03:01:54.000Z</time></trkpt>
        <trkpt lat="28.246639" lon="105.744746"><ele>925</ele><time>2026-07-19T03:01:55.000Z</time></trkpt>
        <trkpt lat="28.246582" lon="105.744718"><ele>926</ele><time>2026-07-19T03:01:56.000Z</time></trkpt>
        <trkpt lat="28.24652" lon="105.744695"><ele>926</ele><time>2026-07-19T03:01:57.000Z</time></trkpt>
        <trkpt lat="28.246458" lon="105.744675"><ele>927</ele><time>2026-07-19T03:01:58.000Z</time></trkpt>
        <trkpt lat="28.246387" lon="105.744694"><ele>927</ele><time>2026-07-19T03:01:59.000Z</time></trkpt>
        <trkpt lat="28.246323" lon="105.744678"><ele>927</ele><time>2026-07-19T03:02:00.000Z</time></trkpt>
        <trkpt lat="28.246256" lon="105.744659"><ele>927</ele><time>2026-07-19T03:02:01.000Z</time></trkpt>
        <trkpt lat="28.246197" lon="105.744636"><ele>928</ele><time>2026-07-19T03:02:02.000Z</time></trkpt>
        <trkpt lat="28.246143" lon="105.744611"><ele>928</ele><time>2026-07-19T03:02:03.000Z</time></trkpt>
        <trkpt lat="28.246093" lon="105.744582"><ele>928</ele><time>2026-07-19T03:02:04.000Z</time></trkpt>
        <trkpt lat="28.246047" lon="105.744551"><ele>928</ele><time>2026-07-19T03:02:05.000Z</time></trkpt>
        <trkpt lat="28.246001" lon="105.744509"><ele>930</ele><time>2026-07-19T03:02:06.000Z</time></trkpt>
        <trkpt lat="28.24596" lon="105.744456"><ele>931</ele><time>2026-07-19T03:02:07.000Z</time></trkpt>
        <trkpt lat="28.245916" lon="105.744399"><ele>932</ele><time>2026-07-19T03:02:08.000Z</time></trkpt>
        <trkpt lat="28.245873" lon="105.744343"><ele>933</ele><time>2026-07-19T03:02:09.000Z</time></trkpt>
        <trkpt lat="28.245828" lon="105.744288"><ele>933</ele><time>2026-07-19T03:02:10.000Z</time></trkpt>
        <trkpt lat="28.245781" lon="105.74423"><ele>933</ele><time>2026-07-19T03:02:11.000Z</time></trkpt>
        <trkpt lat="28.245731" lon="105.744177"><ele>934</ele><time>2026-07-19T03:02:12.000Z</time></trkpt>
        <trkpt lat="28.245677" lon="105.744129"><ele>934</ele><time>2026-07-19T03:02:13.000Z</time></trkpt>
        <trkpt lat="28.245618" lon="105.744093"><ele>935</ele><time>2026-07-19T03:02:14.000Z</time></trkpt>
        <trkpt lat="28.245556" lon="105.744076"><ele>935</ele><time>2026-07-19T03:02:15.000Z</time></trkpt>
        <trkpt lat="28.245491" lon="105.744055"><ele>935</ele><time>2026-07-19T03:02:16.000Z</time></trkpt>
        <trkpt lat="28.245424" lon="105.744045"><ele>935</ele><time>2026-07-19T03:02:17.000Z</time></trkpt>
        <trkpt lat="28.245357" lon="105.744039"><ele>936</ele><time>2026-07-19T03:02:18.000Z</time></trkpt>
        <trkpt lat="28.245288" lon="105.744039"><ele>936</ele><time>2026-07-19T03:02:19.000Z</time></trkpt>
        <trkpt lat="28.245222" lon="105.744045"><ele>936</ele><time>2026-07-19T03:02:20.000Z</time></trkpt>
        <trkpt lat="28.245155" lon="105.744061"><ele>936</ele><time>2026-07-19T03:02:21.000Z</time></trkpt>
        <trkpt lat="28.245089" lon="105.744087"><ele>936</ele><time>2026-07-19T03:02:22.000Z</time></trkpt>
        <trkpt lat="28.245022" lon="105.744121"><ele>936</ele><time>2026-07-19T03:02:23.000Z</time></trkpt>
        <trkpt lat="28.244956" lon="105.744163"><ele>936</ele><time>2026-07-19T03:02:24.000Z</time></trkpt>
        <trkpt lat="28.244885" lon="105.744213"><ele>936</ele><time>2026-07-19T03:02:25.000Z</time></trkpt>
        <trkpt lat="28.244809" lon="105.744272"><ele>937</ele><time>2026-07-19T03:02:26.000Z</time></trkpt>
        <trkpt lat="28.244746" lon="105.744337"><ele>937</ele><time>2026-07-19T03:02:27.000Z</time></trkpt>
        <trkpt lat="28.244697" lon="105.744404"><ele>938</ele><time>2026-07-19T03:02:28.000Z</time></trkpt>
        <trkpt lat="28.244646" lon="105.744475"><ele>938</ele><time>2026-07-19T03:02:29.000Z</time></trkpt>
        <trkpt lat="28.244594" lon="105.744549"><ele>939</ele><time>2026-07-19T03:02:30.000Z</time></trkpt>
        <trkpt lat="28.244544" lon="105.744631"><ele>939</ele><time>2026-07-19T03:02:31.000Z</time></trkpt>
        <trkpt lat="28.244501" lon="105.744723"><ele>940</ele><time>2026-07-19T03:02:32.000Z</time></trkpt>
        <trkpt lat="28.244465" lon="105.744809"><ele>941</ele><time>2026-07-19T03:02:33.000Z</time></trkpt>
        <trkpt lat="28.24444" lon="105.744905"><ele>941</ele><time>2026-07-19T03:02:34.000Z</time></trkpt>
        <trkpt lat="28.244419" lon="105.744998"><ele>941</ele><time>2026-07-19T03:02:35.000Z</time></trkpt>
        <trkpt lat="28.244397" lon="105.745093"><ele>941</ele><time>2026-07-19T03:02:36.000Z</time></trkpt>
        <trkpt lat="28.244375" lon="105.74519"><ele>942</ele><time>2026-07-19T03:02:37.000Z</time></trkpt>
        <trkpt lat="28.24435" lon="105.745285"><ele>942</ele><time>2026-07-19T03:02:38.000Z</time></trkpt>
        <trkpt lat="28.244321" lon="105.745381"><ele>942</ele><time>2026-07-19T03:02:39.000Z</time></trkpt>
        <trkpt lat="28.244292" lon="105.745472"><ele>943</ele><time>2026-07-19T03:02:40.000Z</time></trkpt>
        <trkpt lat="28.244257" lon="105.745565"><ele>943</ele><time>2026-07-19T03:02:41.000Z</time></trkpt>
        <trkpt lat="28.244224" lon="105.745652"><ele>944</ele><time>2026-07-19T03:02:42.000Z</time></trkpt>
        <trkpt lat="28.244196" lon="105.745732"><ele>944</ele><time>2026-07-19T03:02:43.000Z</time></trkpt>
        <trkpt lat="28.244176" lon="105.745799"><ele>945</ele><time>2026-07-19T03:02:44.000Z</time></trkpt>
        <trkpt lat="28.244161" lon="105.745858"><ele>945</ele><time>2026-07-19T03:02:45.000Z</time></trkpt>
        <trkpt lat="28.244145" lon="105.745936"><ele>946</ele><time>2026-07-19T03:02:47.000Z</time></trkpt>
        <trkpt lat="28.244136" lon="105.745995"><ele>948</ele><time>2026-07-19T03:02:49.000Z</time></trkpt>
        <trkpt lat="28.244126" lon="105.746048"><ele>948</ele><time>2026-07-19T03:02:51.000Z</time></trkpt>
        <trkpt lat="28.244111" lon="105.746124"><ele>948</ele><time>2026-07-19T03:02:53.000Z</time></trkpt>
        <trkpt lat="28.244087" lon="105.746216"><ele>949</ele><time>2026-07-19T03:02:55.000Z</time></trkpt>
        <trkpt lat="28.244072" lon="105.746268"><ele>949</ele><time>2026-07-19T03:02:56.000Z</time></trkpt>
        <trkpt lat="28.244054" lon="105.746317"><ele>949</ele><time>2026-07-19T03:02:57.000Z</time></trkpt>
        <trkpt lat="28.244033" lon="105.746365"><ele>950</ele><time>2026-07-19T03:02:58.000Z</time></trkpt>
        <trkpt lat="28.244005" lon="105.746412"><ele>950</ele><time>2026-07-19T03:02:59.000Z</time></trkpt>
        <trkpt lat="28.243977" lon="105.746461"><ele>950</ele><time>2026-07-19T03:03:00.000Z</time></trkpt>
        <trkpt lat="28.243947" lon="105.746512"><ele>950</ele><time>2026-07-19T03:03:01.000Z</time></trkpt>
        <trkpt lat="28.243917" lon="105.746566"><ele>951</ele><time>2026-07-19T03:03:02.000Z</time></trkpt>
        <trkpt lat="28.243883" lon="105.746623"><ele>951</ele><time>2026-07-19T03:03:03.000Z</time></trkpt>
        <trkpt lat="28.243848" lon="105.746682"><ele>951</ele><time>2026-07-19T03:03:04.000Z</time></trkpt>
        <trkpt lat="28.243813" lon="105.746738"><ele>951</ele><time>2026-07-19T03:03:05.000Z</time></trkpt>
        <trkpt lat="28.243775" lon="105.746793"><ele>952</ele><time>2026-07-19T03:03:06.000Z</time></trkpt>
        <trkpt lat="28.243733" lon="105.746848"><ele>952</ele><time>2026-07-19T03:03:07.000Z</time></trkpt>
        <trkpt lat="28.243689" lon="105.746901"><ele>952</ele><time>2026-07-19T03:03:08.000Z</time></trkpt>
        <trkpt lat="28.243647" lon="105.746953"><ele>952</ele><time>2026-07-19T03:03:09.000Z</time></trkpt>
        <trkpt lat="28.243608" lon="105.747008"><ele>953</ele><time>2026-07-19T03:03:10.000Z</time></trkpt>
        <trkpt lat="28.243538" lon="105.747039"><ele>953</ele><time>2026-07-19T03:03:11.000Z</time></trkpt>
        <trkpt lat="28.243495" lon="105.747096"><ele>953</ele><time>2026-07-19T03:03:12.000Z</time></trkpt>
        <trkpt lat="28.243451" lon="105.747151"><ele>953</ele><time>2026-07-19T03:03:13.000Z</time></trkpt>
        <trkpt lat="28.243406" lon="105.747209"><ele>954</ele><time>2026-07-19T03:03:14.000Z</time></trkpt>
        <trkpt lat="28.243361" lon="105.747258"><ele>954</ele><time>2026-07-19T03:03:15.000Z</time></trkpt>
        <trkpt lat="28.243317" lon="105.747313"><ele>954</ele><time>2026-07-19T03:03:16.000Z</time></trkpt>
        <trkpt lat="28.24327" lon="105.74737"><ele>953</ele><time>2026-07-19T03:03:17.000Z</time></trkpt>
        <trkpt lat="28.243228" lon="105.747424"><ele>953</ele><time>2026-07-19T03:03:18.000Z</time></trkpt>
        <trkpt lat="28.243184" lon="105.747474"><ele>953</ele><time>2026-07-19T03:03:19.000Z</time></trkpt>
        <trkpt lat="28.24314" lon="105.747524"><ele>954</ele><time>2026-07-19T03:03:20.000Z</time></trkpt>
        <trkpt lat="28.243095" lon="105.747574"><ele>954</ele><time>2026-07-19T03:03:21.000Z</time></trkpt>
        <trkpt lat="28.243048" lon="105.74762"><ele>954</ele><time>2026-07-19T03:03:22.000Z</time></trkpt>
        <trkpt lat="28.243" lon="105.747664"><ele>954</ele><time>2026-07-19T03:03:23.000Z</time></trkpt>
        <trkpt lat="28.24295" lon="105.747707"><ele>954</ele><time>2026-07-19T03:03:24.000Z</time></trkpt>
        <trkpt lat="28.2429" lon="105.747749"><ele>955</ele><time>2026-07-19T03:03:25.000Z</time></trkpt>
        <trkpt lat="28.24285" lon="105.747793"><ele>955</ele><time>2026-07-19T03:03:26.000Z</time></trkpt>
        <trkpt lat="28.242803" lon="105.747836"><ele>955</ele><time>2026-07-19T03:03:27.000Z</time></trkpt>
        <trkpt lat="28.242753" lon="105.747881"><ele>955</ele><time>2026-07-19T03:03:28.000Z</time></trkpt>
        <trkpt lat="28.242706" lon="105.747927"><ele>956</ele><time>2026-07-19T03:03:29.000Z</time></trkpt>
        <trkpt lat="28.242657" lon="105.747975"><ele>956</ele><time>2026-07-19T03:03:30.000Z</time></trkpt>
        <trkpt lat="28.242609" lon="105.74802"><ele>956</ele><time>2026-07-19T03:03:31.000Z</time></trkpt>
        <trkpt lat="28.24256" lon="105.748068"><ele>957</ele><time>2026-07-19T03:03:32.000Z</time></trkpt>
        <trkpt lat="28.242512" lon="105.748115"><ele>957</ele><time>2026-07-19T03:03:33.000Z</time></trkpt>
        <trkpt lat="28.242469" lon="105.748163"><ele>958</ele><time>2026-07-19T03:03:34.000Z</time></trkpt>
        <trkpt lat="28.242434" lon="105.748216"><ele>958</ele><time>2026-07-19T03:03:35.000Z</time></trkpt>
        <trkpt lat="28.242405" lon="105.748271"><ele>958</ele><time>2026-07-19T03:03:36.000Z</time></trkpt>
        <trkpt lat="28.242376" lon="105.748323"><ele>958</ele><time>2026-07-19T03:03:37.000Z</time></trkpt>
        <trkpt lat="28.242352" lon="105.74837"><ele>959</ele><time>2026-07-19T03:03:38.000Z</time></trkpt>
        <trkpt lat="28.242317" lon="105.748445"><ele>959</ele><time>2026-07-19T03:03:40.000Z</time></trkpt>
        <trkpt lat="28.24229" lon="105.748494"><ele>960</ele><time>2026-07-19T03:03:42.000Z</time></trkpt>
        <trkpt lat="28.24226" lon="105.748546"><ele>960</ele><time>2026-07-19T03:03:44.000Z</time></trkpt>
        <trkpt lat="28.242215" lon="105.748608"><ele>961</ele><time>2026-07-19T03:03:46.000Z</time></trkpt>
        <trkpt lat="28.242147" lon="105.748659"><ele>961</ele><time>2026-07-19T03:03:48.000Z</time></trkpt>
        <trkpt lat="28.242071" lon="105.7487"><ele>962</ele><time>2026-07-19T03:03:50.000Z</time></trkpt>
        <trkpt lat="28.241986" lon="105.748725"><ele>962</ele><time>2026-07-19T03:03:52.000Z</time></trkpt>
        <trkpt lat="28.24194" lon="105.748736"><ele>963</ele><time>2026-07-19T03:03:53.000Z</time></trkpt>
        <trkpt lat="28.241854" lon="105.748748"><ele>963</ele><time>2026-07-19T03:03:55.000Z</time></trkpt>
        <trkpt lat="28.241768" lon="105.74876"><ele>963</ele><time>2026-07-19T03:03:57.000Z</time></trkpt>
        <trkpt lat="28.241722" lon="105.74877"><ele>963</ele><time>2026-07-19T03:03:58.000Z</time></trkpt>
        <trkpt lat="28.241673" lon="105.748782"><ele>963</ele><time>2026-07-19T03:03:59.000Z</time></trkpt>
        <trkpt lat="28.241621" lon="105.748791"><ele>963</ele><time>2026-07-19T03:04:00.000Z</time></trkpt>
        <trkpt lat="28.241565" lon="105.748799"><ele>963</ele><time>2026-07-19T03:04:01.000Z</time></trkpt>
        <trkpt lat="28.241508" lon="105.748802"><ele>964</ele><time>2026-07-19T03:04:02.000Z</time></trkpt>
        <trkpt lat="28.241449" lon="105.748802"><ele>964</ele><time>2026-07-19T03:04:03.000Z</time></trkpt>
        <trkpt lat="28.241388" lon="105.748799"><ele>964</ele><time>2026-07-19T03:04:04.000Z</time></trkpt>
        <trkpt lat="28.241329" lon="105.74879"><ele>964</ele><time>2026-07-19T03:04:05.000Z</time></trkpt>
        <trkpt lat="28.24128" lon="105.748737"><ele>964</ele><time>2026-07-19T03:04:06.000Z</time></trkpt>
        <trkpt lat="28.24122" lon="105.748721"><ele>964</ele><time>2026-07-19T03:04:07.000Z</time></trkpt>
        <trkpt lat="28.241162" lon="105.7487"><ele>964</ele><time>2026-07-19T03:04:08.000Z</time></trkpt>
        <trkpt lat="28.241107" lon="105.748679"><ele>964</ele><time>2026-07-19T03:04:09.000Z</time></trkpt>
        <trkpt lat="28.241053" lon="105.74866"><ele>963</ele><time>2026-07-19T03:04:10.000Z</time></trkpt>
        <trkpt lat="28.241" lon="105.748642"><ele>964</ele><time>2026-07-19T03:04:11.000Z</time></trkpt>
        <trkpt lat="28.240946" lon="105.748629"><ele>964</ele><time>2026-07-19T03:04:12.000Z</time></trkpt>
        <trkpt lat="28.240891" lon="105.74862"><ele>964</ele><time>2026-07-19T03:04:13.000Z</time></trkpt>
        <trkpt lat="28.240837" lon="105.748621"><ele>964</ele><time>2026-07-19T03:04:14.000Z</time></trkpt>
        <trkpt lat="28.240785" lon="105.748631"><ele>965</ele><time>2026-07-19T03:04:15.000Z</time></trkpt>
        <trkpt lat="28.240738" lon="105.748639"><ele>965</ele><time>2026-07-19T03:04:16.000Z</time></trkpt>
        <trkpt lat="28.240649" lon="105.748658"><ele>965</ele><time>2026-07-19T03:04:18.000Z</time></trkpt>
        <trkpt lat="28.2406" lon="105.748662"><ele>966</ele><time>2026-07-19T03:04:19.000Z</time></trkpt>
        <trkpt lat="28.240553" lon="105.74866"><ele>966</ele><time>2026-07-19T03:04:20.000Z</time></trkpt>
        <trkpt lat="28.240503" lon="105.748654"><ele>967</ele><time>2026-07-19T03:04:21.000Z</time></trkpt>
        <trkpt lat="28.240457" lon="105.748639"><ele>967</ele><time>2026-07-19T03:04:22.000Z</time></trkpt>
        <trkpt lat="28.240412" lon="105.748615"><ele>967</ele><time>2026-07-19T03:04:23.000Z</time></trkpt>
        <trkpt lat="28.240378" lon="105.74858"><ele>968</ele><time>2026-07-19T03:04:24.000Z</time></trkpt>
        <trkpt lat="28.240344" lon="105.748536"><ele>968</ele><time>2026-07-19T03:04:25.000Z</time></trkpt>
        <trkpt lat="28.240312" lon="105.74849"><ele>969</ele><time>2026-07-19T03:04:26.000Z</time></trkpt>
        <trkpt lat="28.240282" lon="105.74844"><ele>969</ele><time>2026-07-19T03:04:27.000Z</time></trkpt>
        <trkpt lat="28.24027" lon="105.74837"><ele>970</ele><time>2026-07-19T03:04:28.000Z</time></trkpt>
        <trkpt lat="28.240235" lon="105.748323"><ele>971</ele><time>2026-07-19T03:04:29.000Z</time></trkpt>
        <trkpt lat="28.240203" lon="105.748281"><ele>972</ele><time>2026-07-19T03:04:30.000Z</time></trkpt>
        <trkpt lat="28.240173" lon="105.748241"><ele>973</ele><time>2026-07-19T03:04:31.000Z</time></trkpt>
        <trkpt lat="28.24014" lon="105.748198"><ele>973</ele><time>2026-07-19T03:04:32.000Z</time></trkpt>
        <trkpt lat="28.240108" lon="105.748159"><ele>974</ele><time>2026-07-19T03:04:33.000Z</time></trkpt>
        <trkpt lat="28.240069" lon="105.748123"><ele>975</ele><time>2026-07-19T03:04:34.000Z</time></trkpt>
        <trkpt lat="28.240027" lon="105.748093"><ele>975</ele><time>2026-07-19T03:04:35.000Z</time></trkpt>
        <trkpt lat="28.239982" lon="105.748066"><ele>976</ele><time>2026-07-19T03:04:36.000Z</time></trkpt>
        <trkpt lat="28.239935" lon="105.748047"><ele>977</ele><time>2026-07-19T03:04:37.000Z</time></trkpt>
        <trkpt lat="28.239887" lon="105.748038"><ele>977</ele><time>2026-07-19T03:04:38.000Z</time></trkpt>
        <trkpt lat="28.239838" lon="105.748041"><ele>978</ele><time>2026-07-19T03:04:39.000Z</time></trkpt>
        <trkpt lat="28.239787" lon="105.748048"><ele>979</ele><time>2026-07-19T03:04:40.000Z</time></trkpt>
        <trkpt lat="28.239734" lon="105.748063"><ele>979</ele><time>2026-07-19T03:04:41.000Z</time></trkpt>
        <trkpt lat="28.239686" lon="105.748093"><ele>979</ele><time>2026-07-19T03:04:42.000Z</time></trkpt>
        <trkpt lat="28.239634" lon="105.748187"><ele>979</ele><time>2026-07-19T03:04:44.000Z</time></trkpt>
        <trkpt lat="28.239634" lon="105.748246"><ele>980</ele><time>2026-07-19T03:04:45.000Z</time></trkpt>
        <trkpt lat="28.239642" lon="105.748304"><ele>980</ele><time>2026-07-19T03:04:46.000Z</time></trkpt>
        <trkpt lat="28.239655" lon="105.74837"><ele>980</ele><time>2026-07-19T03:04:47.000Z</time></trkpt>
        <trkpt lat="28.23967" lon="105.748439"><ele>981</ele><time>2026-07-19T03:04:48.000Z</time></trkpt>
        <trkpt lat="28.239687" lon="105.74851"><ele>981</ele><time>2026-07-19T03:04:49.000Z</time></trkpt>
        <trkpt lat="28.239706" lon="105.748585"><ele>981</ele><time>2026-07-19T03:04:50.000Z</time></trkpt>
        <trkpt lat="28.239725" lon="105.748659"><ele>982</ele><time>2026-07-19T03:04:51.000Z</time></trkpt>
        <trkpt lat="28.239745" lon="105.748734"><ele>982</ele><time>2026-07-19T03:04:52.000Z</time></trkpt>
        <trkpt lat="28.239764" lon="105.748809"><ele>982</ele><time>2026-07-19T03:04:53.000Z</time></trkpt>
        <trkpt lat="28.239786" lon="105.748888"><ele>983</ele><time>2026-07-19T03:04:54.000Z</time></trkpt>
        <trkpt lat="28.239813" lon="105.748963"><ele>984</ele><time>2026-07-19T03:04:55.000Z</time></trkpt>
        <trkpt lat="28.239844" lon="105.74904"><ele>984</ele><time>2026-07-19T03:04:56.000Z</time></trkpt>
        <trkpt lat="28.239878" lon="105.749116"><ele>984</ele><time>2026-07-19T03:04:57.000Z</time></trkpt>
        <trkpt lat="28.239913" lon="105.749188"><ele>985</ele><time>2026-07-19T03:04:58.000Z</time></trkpt>
        <trkpt lat="28.239947" lon="105.749259"><ele>985</ele><time>2026-07-19T03:04:59.000Z</time></trkpt>
        <trkpt lat="28.239979" lon="105.749322"><ele>985</ele><time>2026-07-19T03:05:00.000Z</time></trkpt>
        <trkpt lat="28.240012" lon="105.749387"><ele>985</ele><time>2026-07-19T03:05:01.000Z</time></trkpt>
        <trkpt lat="28.240119" lon="105.749408"><ele>986</ele><time>2026-07-19T03:05:02.000Z</time></trkpt>
        <trkpt lat="28.240168" lon="105.749466"><ele>986</ele><time>2026-07-19T03:05:03.000Z</time></trkpt>
        <trkpt lat="28.240198" lon="105.749541"><ele>986</ele><time>2026-07-19T03:05:04.000Z</time></trkpt>
        <trkpt lat="28.240228" lon="105.749616"><ele>986</ele><time>2026-07-19T03:05:05.000Z</time></trkpt>
        <trkpt lat="28.240259" lon="105.749691"><ele>987</ele><time>2026-07-19T03:05:06.000Z</time></trkpt>
        <trkpt lat="28.24029" lon="105.749766"><ele>987</ele><time>2026-07-19T03:05:07.000Z</time></trkpt>
        <trkpt lat="28.240319" lon="105.749837"><ele>988</ele><time>2026-07-19T03:05:08.000Z</time></trkpt>
        <trkpt lat="28.240346" lon="105.749907"><ele>989</ele><time>2026-07-19T03:05:09.000Z</time></trkpt>
        <trkpt lat="28.240369" lon="105.749978"><ele>989</ele><time>2026-07-19T03:05:10.000Z</time></trkpt>
        <trkpt lat="28.240383" lon="105.75005"><ele>990</ele><time>2026-07-19T03:05:11.000Z</time></trkpt>
        <trkpt lat="28.240387" lon="105.750129"><ele>991</ele><time>2026-07-19T03:05:12.000Z</time></trkpt>
        <trkpt lat="28.240383" lon="105.750207"><ele>991</ele><time>2026-07-19T03:05:13.000Z</time></trkpt>
        <trkpt lat="28.240371" lon="105.750286"><ele>991</ele><time>2026-07-19T03:05:14.000Z</time></trkpt>
        <trkpt lat="28.24035" lon="105.750364"><ele>992</ele><time>2026-07-19T03:05:15.000Z</time></trkpt>
        <trkpt lat="28.240319" lon="105.750438"><ele>993</ele><time>2026-07-19T03:05:16.000Z</time></trkpt>
        <trkpt lat="28.240277" lon="105.750513"><ele>994</ele><time>2026-07-19T03:05:17.000Z</time></trkpt>
        <trkpt lat="28.240234" lon="105.750584"><ele>995</ele><time>2026-07-19T03:05:18.000Z</time></trkpt>
        <trkpt lat="28.240197" lon="105.750651"><ele>996</ele><time>2026-07-19T03:05:19.000Z</time></trkpt>
        <trkpt lat="28.240158" lon="105.750718"><ele>996</ele><time>2026-07-19T03:05:20.000Z</time></trkpt>
        <trkpt lat="28.24012" lon="105.750781"><ele>997</ele><time>2026-07-19T03:05:21.000Z</time></trkpt>
        <trkpt lat="28.240081" lon="105.750839"><ele>997</ele><time>2026-07-19T03:05:22.000Z</time></trkpt>
        <trkpt lat="28.240038" lon="105.750888"><ele>997</ele><time>2026-07-19T03:05:23.000Z</time></trkpt>
        <trkpt lat="28.23999" lon="105.750931"><ele>998</ele><time>2026-07-19T03:05:24.000Z</time></trkpt>
        <trkpt lat="28.239936" lon="105.750965"><ele>998</ele><time>2026-07-19T03:05:25.000Z</time></trkpt>
        <trkpt lat="28.239876" lon="105.750987"><ele>997</ele><time>2026-07-19T03:05:26.000Z</time></trkpt>
        <trkpt lat="28.239815" lon="105.750997"><ele>997</ele><time>2026-07-19T03:05:27.000Z</time></trkpt>
        <trkpt lat="28.23975" lon="105.750998"><ele>997</ele><time>2026-07-19T03:05:28.000Z</time></trkpt>
        <trkpt lat="28.239682" lon="105.750992"><ele>997</ele><time>2026-07-19T03:05:29.000Z</time></trkpt>
        <trkpt lat="28.23961" lon="105.750983"><ele>996</ele><time>2026-07-19T03:05:30.000Z</time></trkpt>
        <trkpt lat="28.239536" lon="105.750968"><ele>996</ele><time>2026-07-19T03:05:31.000Z</time></trkpt>
        <trkpt lat="28.23946" lon="105.750953"><ele>996</ele><time>2026-07-19T03:05:32.000Z</time></trkpt>
        <trkpt lat="28.239385" lon="105.750935"><ele>996</ele><time>2026-07-19T03:05:33.000Z</time></trkpt>
        <trkpt lat="28.239308" lon="105.750921"><ele>996</ele><time>2026-07-19T03:05:34.000Z</time></trkpt>
        <trkpt lat="28.239236" lon="105.750905"><ele>995</ele><time>2026-07-19T03:05:35.000Z</time></trkpt>
        <trkpt lat="28.239168" lon="105.750897"><ele>995</ele><time>2026-07-19T03:05:36.000Z</time></trkpt>
        <trkpt lat="28.239101" lon="105.750884"><ele>995</ele><time>2026-07-19T03:05:37.000Z</time></trkpt>
        <trkpt lat="28.239032" lon="105.75087"><ele>994</ele><time>2026-07-19T03:05:38.000Z</time></trkpt>
        <trkpt lat="28.238958" lon="105.750856"><ele>994</ele><time>2026-07-19T03:05:39.000Z</time></trkpt>
        <trkpt lat="28.238886" lon="105.750843"><ele>994</ele><time>2026-07-19T03:05:40.000Z</time></trkpt>
        <trkpt lat="28.238814" lon="105.750832"><ele>993</ele><time>2026-07-19T03:05:41.000Z</time></trkpt>
        <trkpt lat="28.23874" lon="105.750819"><ele>993</ele><time>2026-07-19T03:05:42.000Z</time></trkpt>
        <trkpt lat="28.238667" lon="105.750805"><ele>993</ele><time>2026-07-19T03:05:43.000Z</time></trkpt>
        <trkpt lat="28.238597" lon="105.750786"><ele>993</ele><time>2026-07-19T03:05:44.000Z</time></trkpt>
        <trkpt lat="28.23853" lon="105.750766"><ele>993</ele><time>2026-07-19T03:05:45.000Z</time></trkpt>
        <trkpt lat="28.238464" lon="105.750744"><ele>993</ele><time>2026-07-19T03:05:46.000Z</time></trkpt>
        <trkpt lat="28.238399" lon="105.750722"><ele>993</ele><time>2026-07-19T03:05:47.000Z</time></trkpt>
        <trkpt lat="28.238332" lon="105.750701"><ele>994</ele><time>2026-07-19T03:05:48.000Z</time></trkpt>
        <trkpt lat="28.238264" lon="105.750681"><ele>994</ele><time>2026-07-19T03:05:49.000Z</time></trkpt>
        <trkpt lat="28.238194" lon="105.750666"><ele>994</ele><time>2026-07-19T03:05:50.000Z</time></trkpt>
        <trkpt lat="28.238123" lon="105.750663"><ele>994</ele><time>2026-07-19T03:05:51.000Z</time></trkpt>
        <trkpt lat="28.238052" lon="105.750667"><ele>994</ele><time>2026-07-19T03:05:52.000Z</time></trkpt>
        <trkpt lat="28.237985" lon="105.750685"><ele>994</ele><time>2026-07-19T03:05:53.000Z</time></trkpt>
        <trkpt lat="28.237923" lon="105.750717"><ele>994</ele><time>2026-07-19T03:05:54.000Z</time></trkpt>
        <trkpt lat="28.237869" lon="105.750766"><ele>994</ele><time>2026-07-19T03:05:55.000Z</time></trkpt>
        <trkpt lat="28.237827" lon="105.750827"><ele>994</ele><time>2026-07-19T03:05:56.000Z</time></trkpt>
        <trkpt lat="28.237799" lon="105.750897"><ele>995</ele><time>2026-07-19T03:05:57.000Z</time></trkpt>
        <trkpt lat="28.23779" lon="105.750972"><ele>996</ele><time>2026-07-19T03:05:58.000Z</time></trkpt>
        <trkpt lat="28.237798" lon="105.751047"><ele>996</ele><time>2026-07-19T03:05:59.000Z</time></trkpt>
        <trkpt lat="28.237806" lon="105.751126"><ele>996</ele><time>2026-07-19T03:06:00.000Z</time></trkpt>
        <trkpt lat="28.23781" lon="105.751208"><ele>996</ele><time>2026-07-19T03:06:01.000Z</time></trkpt>
        <trkpt lat="28.237809" lon="105.751291"><ele>996</ele><time>2026-07-19T03:06:02.000Z</time></trkpt>
        <trkpt lat="28.237803" lon="105.751375"><ele>996</ele><time>2026-07-19T03:06:03.000Z</time></trkpt>
        <trkpt lat="28.23779" lon="105.751457"><ele>996</ele><time>2026-07-19T03:06:04.000Z</time></trkpt>
        <trkpt lat="28.237773" lon="105.751537"><ele>996</ele><time>2026-07-19T03:06:05.000Z</time></trkpt>
        <trkpt lat="28.237763" lon="105.751614"><ele>996</ele><time>2026-07-19T03:06:06.000Z</time></trkpt>
        <trkpt lat="28.237751" lon="105.751694"><ele>996</ele><time>2026-07-19T03:06:07.000Z</time></trkpt>
        <trkpt lat="28.237733" lon="105.751774"><ele>996</ele><time>2026-07-19T03:06:08.000Z</time></trkpt>
        <trkpt lat="28.237714" lon="105.751856"><ele>996</ele><time>2026-07-19T03:06:09.000Z</time></trkpt>
        <trkpt lat="28.237695" lon="105.751942"><ele>996</ele><time>2026-07-19T03:06:10.000Z</time></trkpt>
        <trkpt lat="28.237674" lon="105.752025"><ele>996</ele><time>2026-07-19T03:06:11.000Z</time></trkpt>
        <trkpt lat="28.237652" lon="105.752111"><ele>996</ele><time>2026-07-19T03:06:12.000Z</time></trkpt>
        <trkpt lat="28.237626" lon="105.752207"><ele>991</ele><time>2026-07-19T03:06:13.000Z</time></trkpt>
        <trkpt lat="28.2376" lon="105.752291"><ele>992</ele><time>2026-07-19T03:06:14.000Z</time></trkpt>
        <trkpt lat="28.237576" lon="105.752375"><ele>992</ele><time>2026-07-19T03:06:15.000Z</time></trkpt>
        <trkpt lat="28.237573" lon="105.752463"><ele>992</ele><time>2026-07-19T03:06:16.000Z</time></trkpt>
        <trkpt lat="28.237549" lon="105.752534"><ele>992</ele><time>2026-07-19T03:06:17.000Z</time></trkpt>
        <trkpt lat="28.237527" lon="105.752601"><ele>993</ele><time>2026-07-19T03:06:18.000Z</time></trkpt>
        <trkpt lat="28.237506" lon="105.752665"><ele>993</ele><time>2026-07-19T03:06:19.000Z</time></trkpt>
        <trkpt lat="28.237487" lon="105.752725"><ele>993</ele><time>2026-07-19T03:06:20.000Z</time></trkpt>
        <trkpt lat="28.237469" lon="105.752786"><ele>993</ele><time>2026-07-19T03:06:21.000Z</time></trkpt>
        <trkpt lat="28.237453" lon="105.752848"><ele>993</ele><time>2026-07-19T03:06:22.000Z</time></trkpt>
        <trkpt lat="28.237434" lon="105.752908"><ele>993</ele><time>2026-07-19T03:06:23.000Z</time></trkpt>
        <trkpt lat="28.237409" lon="105.752967"><ele>993</ele><time>2026-07-19T03:06:24.000Z</time></trkpt>
        <trkpt lat="28.237378" lon="105.753022"><ele>993</ele><time>2026-07-19T03:06:25.000Z</time></trkpt>
        <trkpt lat="28.237344" lon="105.753072"><ele>993</ele><time>2026-07-19T03:06:26.000Z</time></trkpt>
        <trkpt lat="28.237306" lon="105.753118"><ele>993</ele><time>2026-07-19T03:06:27.000Z</time></trkpt>
        <trkpt lat="28.237265" lon="105.753159"><ele>993</ele><time>2026-07-19T03:06:28.000Z</time></trkpt>
        <trkpt lat="28.237218" lon="105.753194"><ele>993</ele><time>2026-07-19T03:06:29.000Z</time></trkpt>
        <trkpt lat="28.237166" lon="105.753228"><ele>993</ele><time>2026-07-19T03:06:30.000Z</time></trkpt>
        <trkpt lat="28.237112" lon="105.753263"><ele>993</ele><time>2026-07-19T03:06:31.000Z</time></trkpt>
        <trkpt lat="28.23705" lon="105.753301"><ele>994</ele><time>2026-07-19T03:06:32.000Z</time></trkpt>
        <trkpt lat="28.236986" lon="105.753339"><ele>994</ele><time>2026-07-19T03:06:33.000Z</time></trkpt>
        <trkpt lat="28.23693" lon="105.75338"><ele>994</ele><time>2026-07-19T03:06:34.000Z</time></trkpt>
        <trkpt lat="28.236859" lon="105.753419"><ele>995</ele><time>2026-07-19T03:06:35.000Z</time></trkpt>
        <trkpt lat="28.236795" lon="105.753462"><ele>994</ele><time>2026-07-19T03:06:36.000Z</time></trkpt>
        <trkpt lat="28.236735" lon="105.753502"><ele>994</ele><time>2026-07-19T03:06:37.000Z</time></trkpt>
        <trkpt lat="28.236673" lon="105.753543"><ele>994</ele><time>2026-07-19T03:06:38.000Z</time></trkpt>
        <trkpt lat="28.236612" lon="105.753583"><ele>995</ele><time>2026-07-19T03:06:39.000Z</time></trkpt>
        <trkpt lat="28.236554" lon="105.753623"><ele>995</ele><time>2026-07-19T03:06:40.000Z</time></trkpt>
        <trkpt lat="28.236497" lon="105.753663"><ele>995</ele><time>2026-07-19T03:06:41.000Z</time></trkpt>
        <trkpt lat="28.236439" lon="105.753701"><ele>995</ele><time>2026-07-19T03:06:42.000Z</time></trkpt>
        <trkpt lat="28.236372" lon="105.753737"><ele>996</ele><time>2026-07-19T03:06:43.000Z</time></trkpt>
        <trkpt lat="28.236317" lon="105.753775"><ele>997</ele><time>2026-07-19T03:06:44.000Z</time></trkpt>
        <trkpt lat="28.236265" lon="105.753813"><ele>997</ele><time>2026-07-19T03:06:45.000Z</time></trkpt>
        <trkpt lat="28.236214" lon="105.753848"><ele>998</ele><time>2026-07-19T03:06:46.000Z</time></trkpt>
        <trkpt lat="28.236166" lon="105.753886"><ele>998</ele><time>2026-07-19T03:06:47.000Z</time></trkpt>
        <trkpt lat="28.236118" lon="105.753925"><ele>998</ele><time>2026-07-19T03:06:48.000Z</time></trkpt>
        <trkpt lat="28.236069" lon="105.753964"><ele>998</ele><time>2026-07-19T03:06:49.000Z</time></trkpt>
        <trkpt lat="28.236022" lon="105.754007"><ele>998</ele><time>2026-07-19T03:06:50.000Z</time></trkpt>
        <trkpt lat="28.235969" lon="105.754045"><ele>999</ele><time>2026-07-19T03:06:51.000Z</time></trkpt>
        <trkpt lat="28.235917" lon="105.754085"><ele>999</ele><time>2026-07-19T03:06:52.000Z</time></trkpt>
        <trkpt lat="28.235867" lon="105.754126"><ele>999</ele><time>2026-07-19T03:06:53.000Z</time></trkpt>
        <trkpt lat="28.235816" lon="105.754168"><ele>999</ele><time>2026-07-19T03:06:54.000Z</time></trkpt>
        <trkpt lat="28.235767" lon="105.754212"><ele>999</ele><time>2026-07-19T03:06:55.000Z</time></trkpt>
        <trkpt lat="28.235718" lon="105.754259"><ele>999</ele><time>2026-07-19T03:06:56.000Z</time></trkpt>
        <trkpt lat="28.235667" lon="105.754304"><ele>1000</ele><time>2026-07-19T03:06:57.000Z</time></trkpt>
        <trkpt lat="28.235613" lon="105.754346"><ele>1000</ele><time>2026-07-19T03:06:58.000Z</time></trkpt>
        <trkpt lat="28.235557" lon="105.754385"><ele>1000</ele><time>2026-07-19T03:06:59.000Z</time></trkpt>
        <trkpt lat="28.235496" lon="105.754421"><ele>1000</ele><time>2026-07-19T03:07:00.000Z</time></trkpt>
        <trkpt lat="28.235435" lon="105.754461"><ele>1000</ele><time>2026-07-19T03:07:01.000Z</time></trkpt>
        <trkpt lat="28.235373" lon="105.754503"><ele>1001</ele><time>2026-07-19T03:07:02.000Z</time></trkpt>
        <trkpt lat="28.23531" lon="105.754546"><ele>1000</ele><time>2026-07-19T03:07:03.000Z</time></trkpt>
        <trkpt lat="28.235244" lon="105.75459"><ele>1000</ele><time>2026-07-19T03:07:04.000Z</time></trkpt>
        <trkpt lat="28.235177" lon="105.754634"><ele>1000</ele><time>2026-07-19T03:07:05.000Z</time></trkpt>
        <trkpt lat="28.235109" lon="105.754675"><ele>1000</ele><time>2026-07-19T03:07:06.000Z</time></trkpt>
        <trkpt lat="28.235039" lon="105.754715"><ele>1000</ele><time>2026-07-19T03:07:07.000Z</time></trkpt>
        <trkpt lat="28.234968" lon="105.754753"><ele>1001</ele><time>2026-07-19T03:07:08.000Z</time></trkpt>
        <trkpt lat="28.2349" lon="105.75479"><ele>1000</ele><time>2026-07-19T03:07:09.000Z</time></trkpt>
        <trkpt lat="28.234829" lon="105.754828"><ele>999</ele><time>2026-07-19T03:07:10.000Z</time></trkpt>
        <trkpt lat="28.234756" lon="105.754867"><ele>999</ele><time>2026-07-19T03:07:11.000Z</time></trkpt>
        <trkpt lat="28.234684" lon="105.754905"><ele>998</ele><time>2026-07-19T03:07:12.000Z</time></trkpt>
        <trkpt lat="28.234611" lon="105.75494"><ele>998</ele><time>2026-07-19T03:07:13.000Z</time></trkpt>
        <trkpt lat="28.234538" lon="105.754975"><ele>998</ele><time>2026-07-19T03:07:14.000Z</time></trkpt>
        <trkpt lat="28.234465" lon="105.75501"><ele>997</ele><time>2026-07-19T03:07:15.000Z</time></trkpt>
        <trkpt lat="28.234392" lon="105.755044"><ele>997</ele><time>2026-07-19T03:07:16.000Z</time></trkpt>
        <trkpt lat="28.234318" lon="105.755074"><ele>997</ele><time>2026-07-19T03:07:17.000Z</time></trkpt>
        <trkpt lat="28.234246" lon="105.755103"><ele>998</ele><time>2026-07-19T03:07:18.000Z</time></trkpt>
        <trkpt lat="28.234175" lon="105.755132"><ele>998</ele><time>2026-07-19T03:07:19.000Z</time></trkpt>
        <trkpt lat="28.234107" lon="105.755159"><ele>997</ele><time>2026-07-19T03:07:20.000Z</time></trkpt>
        <trkpt lat="28.234042" lon="105.755186"><ele>997</ele><time>2026-07-19T03:07:21.000Z</time></trkpt>
        <trkpt lat="28.233978" lon="105.755209"><ele>997</ele><time>2026-07-19T03:07:22.000Z</time></trkpt>
        <trkpt lat="28.233915" lon="105.755227"><ele>997</ele><time>2026-07-19T03:07:23.000Z</time></trkpt>
        <trkpt lat="28.233852" lon="105.755242"><ele>997</ele><time>2026-07-19T03:07:24.000Z</time></trkpt>
        <trkpt lat="28.233791" lon="105.75525"><ele>997</ele><time>2026-07-19T03:07:25.000Z</time></trkpt>
        <trkpt lat="28.233728" lon="105.755251"><ele>996</ele><time>2026-07-19T03:07:26.000Z</time></trkpt>
        <trkpt lat="28.233671" lon="105.755248"><ele>996</ele><time>2026-07-19T03:07:27.000Z</time></trkpt>
        <trkpt lat="28.233616" lon="105.755234"><ele>997</ele><time>2026-07-19T03:07:28.000Z</time></trkpt>
        <trkpt lat="28.233565" lon="105.755224"><ele>997</ele><time>2026-07-19T03:07:29.000Z</time></trkpt>
        <trkpt lat="28.233517" lon="105.755213"><ele>997</ele><time>2026-07-19T03:07:30.000Z</time></trkpt>
        <trkpt lat="28.233468" lon="105.755203"><ele>997</ele><time>2026-07-19T03:07:31.000Z</time></trkpt>
        <trkpt lat="28.233421" lon="105.755195"><ele>997</ele><time>2026-07-19T03:07:32.000Z</time></trkpt>
        <trkpt lat="28.233341" lon="105.755179"><ele>997</ele><time>2026-07-19T03:07:34.000Z</time></trkpt>
        <trkpt lat="28.233281" lon="105.755161"><ele>997</ele><time>2026-07-19T03:07:36.000Z</time></trkpt>
        <trkpt lat="28.233214" lon="105.755137"><ele>999</ele><time>2026-07-19T03:07:38.000Z</time></trkpt>
        <trkpt lat="28.233214" lon="105.755137"><ele>1000</ele><time>2026-07-19T03:07:40.000Z</time></trkpt>
        <trkpt lat="28.2330729" lon="105.7551"><ele>1000</ele><time>2026-07-19T03:07:41.000Z</time></trkpt>
        <trkpt lat="28.2330174" lon="105.7550758"><ele>1001</ele><time>2026-07-19T03:07:42.000Z</time></trkpt>
        <trkpt lat="28.2329619" lon="105.7550557"><ele>1001</ele><time>2026-07-19T03:07:43.000Z</time></trkpt>
        <trkpt lat="28.2329146" lon="105.7550302"><ele>1001</ele><time>2026-07-19T03:07:44.000Z</time></trkpt>
        <trkpt lat="28.232862" lon="105.755001"><ele>1001</ele><time>2026-07-19T03:07:45.000Z</time></trkpt>
        <trkpt lat="28.232805" lon="105.754977"><ele>1001</ele><time>2026-07-19T03:07:46.000Z</time></trkpt>
        <trkpt lat="28.2327465" lon="105.7549524"><ele>1001</ele><time>2026-07-19T03:07:47.000Z</time></trkpt>
        <trkpt lat="28.2326907" lon="105.7549306"><ele>1000</ele><time>2026-07-19T03:07:48.000Z</time></trkpt>
        <trkpt lat="28.232631" lon="105.7549065"><ele>1001</ele><time>2026-07-19T03:07:49.000Z</time></trkpt>
        <trkpt lat="28.232572" lon="105.754882"><ele>1001</ele><time>2026-07-19T03:07:50.000Z</time></trkpt>
        <trkpt lat="28.232511" lon="105.754857"><ele>1001</ele><time>2026-07-19T03:07:51.000Z</time></trkpt>
        <trkpt lat="28.232454" lon="105.754837"><ele>1001</ele><time>2026-07-19T03:07:52.000Z</time></trkpt>
        <trkpt lat="28.232403" lon="105.75482"><ele>1001</ele><time>2026-07-19T03:07:53.000Z</time></trkpt>
        <trkpt lat="28.232358" lon="105.7548"><ele>1001</ele><time>2026-07-19T03:07:54.000Z</time></trkpt>
        <trkpt lat="28.232309" lon="105.754782"><ele>1001</ele><time>2026-07-19T03:07:55.000Z</time></trkpt>
        <trkpt lat="28.232261" lon="105.754763"><ele>1001</ele><time>2026-07-19T03:07:56.000Z</time></trkpt>
        <trkpt lat="28.23221" lon="105.754743"><ele>1001</ele><time>2026-07-19T03:07:57.000Z</time></trkpt>
        <trkpt lat="28.232158" lon="105.754723"><ele>1001</ele><time>2026-07-19T03:07:58.000Z</time></trkpt>
        <trkpt lat="28.232103" lon="105.754702"><ele>1001</ele><time>2026-07-19T03:07:59.000Z</time></trkpt>
        <trkpt lat="28.232049" lon="105.754679"><ele>1002</ele><time>2026-07-19T03:08:00.000Z</time></trkpt>
        <trkpt lat="28.231995" lon="105.754656"><ele>1002</ele><time>2026-07-19T03:08:01.000Z</time></trkpt>
        <trkpt lat="28.231943" lon="105.754633"><ele>1002</ele><time>2026-07-19T03:08:02.000Z</time></trkpt>
        <trkpt lat="28.231893" lon="105.754614"><ele>1002</ele><time>2026-07-19T03:08:03.000Z</time></trkpt>
        <trkpt lat="28.231842" lon="105.754602"><ele>1002</ele><time>2026-07-19T03:08:04.000Z</time></trkpt>
        <trkpt lat="28.231793" lon="105.754601"><ele>1003</ele><time>2026-07-19T03:08:05.000Z</time></trkpt>
        <trkpt lat="28.231745" lon="105.754611"><ele>1003</ele><time>2026-07-19T03:08:06.000Z</time></trkpt>
        <trkpt lat="28.2317" lon="105.754629"><ele>1004</ele><time>2026-07-19T03:08:07.000Z</time></trkpt>
        <trkpt lat="28.231661" lon="105.754655"><ele>1005</ele><time>2026-07-19T03:08:08.000Z</time></trkpt>
        <trkpt lat="28.231628" lon="105.754691"><ele>1005</ele><time>2026-07-19T03:08:09.000Z</time></trkpt>
        <trkpt lat="28.23158" lon="105.754771"><ele>1006</ele><time>2026-07-19T03:08:11.000Z</time></trkpt>
        <trkpt lat="28.231541" lon="105.754858"><ele>1007</ele><time>2026-07-19T03:08:13.000Z</time></trkpt>
        <trkpt lat="28.231523" lon="105.754908"><ele>1007</ele><time>2026-07-19T03:08:14.000Z</time></trkpt>
        <trkpt lat="28.231504" lon="105.754961"><ele>1008</ele><time>2026-07-19T03:08:15.000Z</time></trkpt>
        <trkpt lat="28.231483" lon="105.755017"><ele>1008</ele><time>2026-07-19T03:08:16.000Z</time></trkpt>
        <trkpt lat="28.231459" lon="105.755075"><ele>1009</ele><time>2026-07-19T03:08:17.000Z</time></trkpt>
        <trkpt lat="28.231433" lon="105.755138"><ele>1009</ele><time>2026-07-19T03:08:18.000Z</time></trkpt>
        <trkpt lat="28.2314111" lon="105.7552093"><ele>1009</ele><time>2026-07-19T03:08:19.000Z</time></trkpt>
        <trkpt lat="28.2313821" lon="105.7552763"><ele>1009</ele><time>2026-07-19T03:08:20.000Z</time></trkpt>
        <trkpt lat="28.2313551" lon="105.7553472"><ele>1009</ele><time>2026-07-19T03:08:21.000Z</time></trkpt>
        <trkpt lat="28.231331" lon="105.755418"><ele>1010</ele><time>2026-07-19T03:08:22.000Z</time></trkpt>
        <trkpt lat="28.231311" lon="105.755492"><ele>1010</ele><time>2026-07-19T03:08:23.000Z</time></trkpt>
        <trkpt lat="28.231286" lon="105.755563"><ele>1010</ele><time>2026-07-19T03:08:24.000Z</time></trkpt>
        <trkpt lat="28.231261" lon="105.755635"><ele>1010</ele><time>2026-07-19T03:08:25.000Z</time></trkpt>
        <trkpt lat="28.231238" lon="105.755707"><ele>1011</ele><time>2026-07-19T03:08:26.000Z</time></trkpt>
        <trkpt lat="28.231214" lon="105.755779"><ele>1011</ele><time>2026-07-19T03:08:27.000Z</time></trkpt>
        <trkpt lat="28.23119" lon="105.755849"><ele>1011</ele><time>2026-07-19T03:08:28.000Z</time></trkpt>
        <trkpt lat="28.23117" lon="105.755917"><ele>1012</ele><time>2026-07-19T03:08:29.000Z</time></trkpt>
        <trkpt lat="28.231151" lon="105.755975"><ele>1012</ele><time>2026-07-19T03:08:30.000Z</time></trkpt>
        <trkpt lat="28.231131" lon="105.756029"><ele>1012</ele><time>2026-07-19T03:08:31.000Z</time></trkpt>
        <trkpt lat="28.231112" lon="105.75608"><ele>1012</ele><time>2026-07-19T03:08:32.000Z</time></trkpt>
        <trkpt lat="28.231095" lon="105.756128"><ele>1012</ele><time>2026-07-19T03:08:33.000Z</time></trkpt>
        <trkpt lat="28.231068" lon="105.756211"><ele>1013</ele><time>2026-07-19T03:08:35.000Z</time></trkpt>
        <trkpt lat="28.231047" lon="105.756278"><ele>1013</ele><time>2026-07-19T03:08:37.000Z</time></trkpt>
        <trkpt lat="28.2310241" lon="105.7563319"><ele>1014</ele><time>2026-07-19T03:08:39.000Z</time></trkpt>
      </trkseg>
  </trk>
</gpx>